     2              OBSERVATION DATA    GPS                 RINEX VERSION / TYPE
teqc 2000Feb29 Duncan Agnew 20031030 00:41:31UTC            PGM / RUN BY / DATE
                                                            COMMENT
L2: 1 -> 1; 150 -> 5; 250 -> 9                              COMMENT
L2: 1 -> 1; 150 -> 5; 250 -> 9                              COMMENT
L2: 1 -> 1; 150 -> 5; 250 -> 9                              COMMENT
L2: 1 -> 1; 150 -> 5; 250 -> 9                              COMMENT
L2: 1 -> 1; 150 -> 5; 250 -> 9                              COMMENT
Original Marker Name: K526                                  COMMENT
Campaign Name: CSUSB 2002-2003                              COMMENT
4-Character Station Name: K526                              COMMENT
6-Character Antenna Code: DMRCHT                            COMMENT
Vertical Measurement Point: BPA                             COMMENT
Vertical Offset to Rinex Ref. Point: 0.0000                 COMMENT
Radial Measurement Point: RRP                               COMMENT
Radial Offset to Rinex Ref. Point: 0.0000                   COMMENT
Antenna Height from Field Measurement: 1.5020 m             COMMENT
Additional Antenna Identification Info.:                    COMMENT
Turborogue and Ashtech Choke Ring                           COMMENT
Original XYZ: 0.0000 0.0000 0.0000                          COMMENT
New XYZ position is based on association with SCEC monument COMMENT
E1D0S5B5+0011. Position of that monument is believed to be  COMMENT
valid to within 1 m horizontally; vertical accuracy         COMMENT
should be no worse than 3-times this value.                 COMMENT
                                                            COMMENT
Revised Rinex header created by UCSD GPS archive for        COMMENT
GSAC on 09-Nov-2004 (2004:314) 22:43:35 GMT                 COMMENT
For assistance contact dagnew@ucsd.edu                      COMMENT
or anderson@python.ucsd.edu                                 COMMENT
                                                            COMMENT
K526 1956                                                   MARKER NAME
ANR CAL STATE SAN BERNARDINO                                OBSERVER / AGENCY
2403 ASHTECH Z-XII3 CD00                                    REC # / TYPE / VERS
2409 DORNE-MARGOL. TYPE T                                   ANT # / TYPE
 -2416859.0000 -4702077.0000  3556539.0000                  APPROX POSITION XYZ
        1.5020        0.0000        0.0000                  ANTENNA: DELTA H/E/N
     1     1     0                                          WAVELENGTH FACT L1/2
     7    C1    L1    L2    P1    P2    S1    S2            # / TYPES OF OBSERV
     0                                                      INTERVAL
  2002     7    11    15    29    0.000000                  TIME OF FIRST OBS
  2002     7    11    22    59   30.000000                  TIME OF LAST OBS
                                                            END OF HEADER
 02  7 11 15 29  0.0000000  0  9G 6G18G17G15G30G29G26G23G10
                     25416.03149      6007.92143
       246.000          74.000
                      4657.49049       920.53843
       234.000          74.000
                     19214.26949      3941.39643
       238.000          74.000
                     15543.89249      2877.36043
       229.000          74.000
                     56203.88549     11821.07043
       218.000          74.000
                     21114.34549      4398.52843
       229.000          74.000
                     14304.00049      2960.01743
       229.000          74.000
                     38433.18249      8018.70643
       247.000          74.000
                     51304.04449     11819.40843
       222.000          74.000
 02  7 11 15 29 30.0000000  0 10G 6G18G17G15G30G29G26G23G10G21
                    126713.31449     84446.46243
       246.000          74.000
  21105011.611       20451.89749     13227.81646  21105010.855    21105017.724
       235.000         179.000
  20333184.220       85620.34649     55686.41847  20333183.420    20333189.976
       238.000         193.000
  20786194.194       64199.75749     40790.94946  20786193.658    20786200.554
       229.000         176.000
                    255871.80549    167406.33745                  22558112.397
       217.000         137.000
                     95562.26849     62199.69243
       228.000          74.000
                     64532.56149     42065.81745                  21266776.252
       229.000         146.000
                    173485.98549    113714.62543
       247.000          74.000
                    250960.81949    167396.44444                  22548576.252
       220.000         118.000
                       498.091 9   1293859.715 1
       209.000
 02  7 11 15 30  0.0000000  0  9G 6G18G17G15G30G29G26G23G10
                    228670.79749    163341.39543
       245.000          74.000
  22307290.964       36795.92449     25963.42646  22307290.344    22307297.419
       234.000         185.000
  21545058.268      152382.48649    107708.82947  21545057.887    21545064.593
       238.000         198.000
  21994695.018      113231.98449     78997.86446  21994693.780    21994701.325
       229.000         182.000
  23795319.158      455799.98849    323194.35945  23795320.163    23795326.543
       220.000         155.000
                    170703.10849    120543.26143
       226.000          74.000
  22475633.325      115476.27849     81762.26146  22475633.223    22475640.383
       229.000         175.000
                    309156.61949    219926.39143
       247.000          74.000
  23785794.189      450940.89249    323224.97545  23785792.998    23785801.165
       220.000         157.000
 02  7 11 15 30 29.9990000  0  9G 6G18G17G15G30G29G26G23G10
                    331460.52049       702.29543
       245.000          74.000
  22010742.986       53839.54749     39244.19646  22010742.030    22010747.990
       235.000         185.000
  21258068.492      219662.04349    160134.41947  21258068.066    21258074.758
       238.000         199.000
  21704335.019      162797.83449    117620.58746  21704333.782    21704340.824
       229.000         184.000
  23533654.495      656182.58649    479336.49045  23533656.389    23533664.902
       218.000         158.000
                    246702.53549       499.63343
       230.000          74.000
  22185701.983      167295.40349    122140.81646  22185702.198    22185709.662
       229.000         177.000
                    445623.42549       930.73743
       246.000          74.000
  23524154.240      651439.02149    479457.17345  23524153.148    23524161.677
       218.000         159.000
 02  7 11 15 31  0.0000000  0 10G 6G18G17G15G30G29G26G23G10G21
  20247220.646      261657.07049    -53689.80647  20247220.241    20247225.817
       245.000         206.000
  21981118.906     -101833.90049    -82059.74946  21981118.608    21981124.440
       235.000         185.000
  21237968.294      114035.99549     77828.37147  21237968.540    21237974.474
       238.000         199.000
  21680867.441       39475.59149     21525.32546  21680866.688    21680873.423
       230.000         185.000
  23538870.801      683581.08349    500685.79345  23538872.238    23538878.289
       225.000         160.000
  22634192.075      150138.27549    -74745.95546  22634190.876    22634198.344
       228.000         172.000
  22162729.667       46571.15049     28069.99146  22162729.552    22162735.957
       229.000         177.000
  20895883.281      409454.81949    -27253.02047  20895883.011    20895889.207
       246.000         207.000
  23529401.865      679016.80349    500946.27445  23529402.693    23529410.169
       221.000         159.000
                   -154981.93249   -121666.00844                  24702944.519
       209.000         131.000
 02  7 11 15 31 30.0000000  0 10G 6G18G17G15G30G29G26G23G10G21
  20248063.661      266087.48849    -50237.57247  20248063.257    20248068.900
       245.000         211.000
  21965599.204     -183390.62449   -145610.40546  21965598.143    21965604.730
       235.000         185.000
  21231935.764       82332.72349     53124.48647  21231935.457    21231941.520
       239.000         200.000
  21671470.476       -9904.91449    -16952.99646  21671469.694    21671476.825
       232.000         187.000
  23558135.060      784811.31649    579566.34945  23558135.402    23558142.387
       223.000         160.000
  22629948.344      127839.43749    -92121.69646  22629947.583    22629955.402
       228.000         177.000
  22153893.128         135.81449     -8113.36546  22153892.120    22153900.340
       229.000         178.000
  20903118.111      447472.65749      2371.22648  20903117.723    20903123.909
       246.000         213.000
  23548712.411      780490.86249    580016.85845  23548712.296    23548720.006
       221.000         161.000
  24685235.628     -247992.56049   -194141.86445  24685235.097    24685245.674
       207.000         135.000
 02  7 11 15 32  0.0000000  0 10G 6G18G17G15G30G29G26G23G10G21
  20248995.394      270983.80449    -46422.29348  20248995.102    20249000.930
       245.000         213.000
  21950145.255     -264601.26549   -208891.39546  21950144.861    21950151.058
       235.000         185.000
  21225932.062       50781.99549     28539.48747  21225931.603    21225938.033
       240.000         200.000
  21662106.164      -59114.57549    -55298.20647  21662105.436    21662112.057
       232.000         188.000
  23577410.590      886105.13949    658496.41145  23577411.578    23577420.015
       222.000         160.000
  22625799.487      106038.07349   -109109.81246  22625798.845    22625806.704
       228.000         179.000
  22145155.694      -45778.72649    -43890.90846  22145155.478    22145162.480
       229.000         179.000
  20910432.041      485907.26349     32320.23148  20910431.639    20910437.843
       246.000         214.000
  23568047.042      882093.17449    659187.43645  23568047.440    23568054.278
       224.000         161.000
  24667565.182     -340851.56849   -266499.54445  24667565.480    24667576.279
       210.000         137.000
 02  7 11 15 32 30.0000000  0 10G 6G18G17G15G30G29G26G23G10G21
  20250016.059      276347.46349    -42242.86248  20250015.746    20250021.628
       245.000         213.000
  21934757.705     -345463.40849   -271900.83046  21934756.934    21934763.365
       235.000         186.000
  21219957.417       19384.23549      4073.67847  21219956.890    21219963.356
       240.000         200.000
  21652774.555     -108152.87249    -93509.87347  21652773.557    21652780.570
       234.000         190.000
  23596697.926      987460.20749    737474.29245  23596697.736    23596707.801
       219.000         160.000
  22621745.672       84736.01849   -125708.84046  22621745.471    22621753.423
       229.000         180.000
  22136518.208      -91169.27449    -79260.15846  22136518.637    22136525.565
       230.000         179.000
  20917825.017      524757.28249     62592.93848  20917824.611    20917830.760
       246.000         214.000
  23587405.831      983822.02949    738456.58546  23587406.568    23587412.737
       222.000         163.000
  24649923.787     -433556.99849   -338737.57745  24649923.083    24649935.850
       212.000         137.000
 02  7 11 15 33  0.0000000  0 10G 6G18G17G15G30G29G26G23G10G21
  20251125.588      282178.02349    -37699.61548  20251125.458    20251131.152
       246.000         213.000
  21919436.460     -425976.84449   -334638.55447  21919436.010    21919442.455
       234.000         188.000
  21214011.455      -11862.21849    -20274.21847  21214010.686    21214017.669
       239.000         201.000
  21643475.290     -157021.29249   -131589.16547  21643474.414    21643481.879
       235.000         192.000
  23615996.005     1088872.15749    816496.44145  23615995.766    23616005.941
       218.000         158.000
  22617787.077       63933.24049   -141918.82246  22617786.712    22617793.839
       230.000         179.000
  22127980.633     -136034.82749   -114220.30946  22127980.308    22127987.773
       230.000         180.000
  20925296.399      564019.36049     93186.72748  20925295.859    20925302.239
       246.000         213.000
  23606787.651     1085672.98849    817820.84646  23606787.311    23606794.969
       219.000         164.000
  24632311.730     -526108.73049   -410855.80745  24632311.236    24632321.618
       208.000         135.000
 02  7 11 15 33 30.0000000  0 10G 6G18G17G15G30G29G26G23G10G21
  20252324.606      288478.48349    -32790.21448  20252324.657    20252330.284
       246.000         214.000
  21904182.278     -506138.10249   -397101.83947  21904181.731    21904188.587
       236.000         189.000
  21208094.564      -42955.43049    -44502.71547  21208093.982    21208100.644
       239.000         201.000
  21634208.632     -205717.53949   -169534.29547  21634208.009    21634215.127
       235.000         193.000
  23635304.738     1190340.35349    895562.41545  23635304.979    23635315.617
       217.000         156.000
  22613924.288       43633.46349   -157736.84346  22613924.006    22613931.223
       230.000         179.000
  22119543.739     -180370.51449   -148767.57746  22119543.159    22119550.877
       229.000         180.000
  20932846.224      603693.71849    124101.77448  20932845.802    20932851.983
       247.000         213.000
  23626192.541     1187646.11549    897280.31146  23626192.307    23626199.860
       220.000         163.000
  24614729.778     -618502.96149   -482851.31345  24614729.757    24614739.683
       209.000         132.000
 02  7 11 15 34  0.0000000  0 10G 6G18G17G15G30G29G26G23G10G21
  20253613.018      295248.66449    -27514.80248  20253612.866    20253618.784
       246.000         214.000
  21888995.190     -585946.75449   -459290.37147  21888994.395    21889000.565
       235.000         188.000
  21202206.657      -73896.72449    -68612.83747  21202206.118    21202212.366
       239.000         200.000
  21624974.583     -254242.82849   -207346.21647  21624973.622    21624980.873
       235.000         193.000
  23654623.694     1291860.54149    974668.90145  23654624.924    23654632.779
       217.000         154.000
  22610157.191       23836.72949   -173162.90246  22610157.054    22610163.996
       229.000         179.000
  22111207.940     -224174.98549   -182900.93146  22111207.490    22111214.676
       229.000         178.000
  20940473.956      643777.27849    155335.67948  20940473.542    20940479.726
       247.000         214.000
  23645620.113     1289738.20549    976832.46346  23645619.758    23645628.195
       223.000         164.000
  24597177.510     -710739.49449   -554723.94244  24597175.560    24597184.991
       208.000         129.000
 02  7 11 15 34 30.0000000  0 11G 6G18G17G15G30G29G26G23G10G22G21
  20254990.774      302488.65449    -21873.29048  20254990.712    20254996.400
       246.000         214.000
  21873875.277     -665402.30549   -521203.74846  21873874.692    21873880.411
       235.000         187.000
  21196347.597     -104686.88849    -92605.19847  21196347.244    21196353.691
       239.000         200.000
  21615772.759     -302598.27649   -245025.78847  21615772.362    21615778.963
       237.000         193.000
  23673951.773     1393429.14849   1053813.10245  23673953.233    23673960.930
       218.000         154.000
  22606485.841        4543.68449   -188196.45846  22606485.556    22606492.686
       227.000         179.000
  22102973.638     -267446.77549   -216619.20846  22102973.510    22102980.433
       230.000         177.000
  20948178.999      684267.12349    186886.17248  20948178.478    20948184.630
       246.000         214.000
  23665069.869     1391945.69649   1056474.58046  23665071.372    23665078.059
       224.000         164.000
                   -733909.24249   -583586.53144                  23787339.841
       207.000         126.000
  24579655.886     -802817.88349   -626473.28544  24579654.699    24579663.267
       206.000         128.000
 02  7 11 15 35  0.0000000  0 11G 6G18G17G15G30G29G26G23G10G22G21
  20256458.140      310199.28049    -15865.04348  20256457.716    20256463.893
       245.000         214.000
  21858822.882     -744502.93149   -582840.56746  21858821.992    21858828.107
       233.000         186.000
  21190517.109     -135326.19649   -116479.99747  21190516.221    21190523.327
       238.000         200.000
  21606603.460     -350783.69649   -282572.88347  21606602.520    21606609.979
       237.000         194.000
  23693288.576     1495043.37149   1132992.88145  23693288.768    23693297.864
       215.000         154.000
  22602910.511      -14244.25549   -202836.42946  22602909.361    22602917.589
       228.000         178.000
  22094841.224     -310183.28649   -249920.36346  22094841.639    22094849.022
       231.000         179.000
  20955960.924      725161.45749    218751.84348  20955960.430    20955966.598
       246.000         214.000
  23684541.086     1494266.15749   1136204.73745  23684541.303    23684546.973
       221.000         162.000
  23780421.463     -770212.64049   -611874.98645  23780421.737    23780428.856
       206.000         141.000
  24562164.126     -894736.35749   -698098.08144  24562161.899    24562172.541
       207.000         129.000
 02  7 11 15 35 30.0000000  0 11G 6G18G17G15G30G29G26G23G10G22G21
  20258015.525      318383.36749     -9487.87448  20258015.288    20258021.381
       245.000         214.000
  21843838.666     -823245.28249   -644198.20246  21843837.856    21843844.170
       235.000         186.000
  21184715.621     -165812.72349   -140235.75647  21184715.057    21184721.491
       238.000         200.000
  21597466.729     -398797.24549   -319986.03847  21597466.045    21597473.062
       238.000         194.000
  23712633.635     1596702.46249   1212207.60945  23712633.296    23712642.145
       214.000         152.000
  22599431.918      -32523.78649   -217080.23946  22599431.439    22599438.863
       227.000         178.000
  22086811.605     -352379.95849   -282800.86946  22086811.968    22086818.355
       232.000         180.000
  20963819.906      766460.14749    250932.60048  20963819.430    20963825.494
       247.000         214.000
  23704033.535     1596698.99649   1216022.46345  23704032.070    23704039.886
       219.000         159.000
  23773612.107     -805996.50749   -639758.54345  23773613.720    23773620.586
       206.000         142.000
  24544703.651     -986491.85249   -769595.85944  24544703.305    24544715.084
       202.000         131.000
 02  7 11 15 36  0.0000000  0 11G 6G18G17G15G30G29G26G23G10G22G21
  20259662.130      327035.93749     -2745.65348  20259661.898    20259667.943
       245.000         214.000
  21828921.671     -901634.30349   -705280.52646  21828920.903    21828927.309
       235.000         187.000
  21178942.323     -196152.43249   -163877.10947  21178941.804    21178948.169
       239.000         201.000
  21588361.687     -446644.83549   -357269.89347  21588360.689    21588368.326
       238.000         195.000
  23731985.420     1698397.27849   1291450.18445  23731986.548    23731995.112
       218.000         152.000
  22596049.194      -50299.47749   -230931.45246  22596048.851    22596056.562
       228.000         178.000
  22078883.910     -394040.37149   -315263.52846  22078883.327    22078891.320
       231.000         180.000
  20971754.309      808155.41649    283422.37748  20971753.917    20971760.332
       247.000         214.000
  23723545.397     1699235.90049   1295921.25645  23723544.362    23723552.269
       218.000         157.000
  23766901.383     -841266.09149   -667241.36445  23766900.497    23766909.406
       206.000         142.000
  24527273.099    -1078088.12749   -840969.55444  24527273.492    24527285.357
       202.000         130.000
 02  7 11 15 36 30.0000000  0 11G 6G18G17G15G30G29G26G23G10G22G21
  20261398.438      336160.10349      4364.04248  20261398.446    20261404.192
       245.000         213.000
  21814072.807     -979665.78149   -766084.24547  21814072.632    21814078.734
       238.000         189.000
  21173197.317     -226343.31249   -187402.48747  21173196.551    21173203.182
       239.000         201.000
  21579288.672     -494323.91949   -394422.43847  21579288.190    21579295.496
       238.000         195.000
  23751344.183     1800127.69349   1370720.49745  23751344.476    23751353.384
       216.000         152.000
  22592763.209      -67567.84149   -244387.33646  22592763.245    22592770.420
       229.000         178.000
  22071059.084     -435159.80349   -347304.65246  22071058.504    22071066.728
       231.000         181.000
  20979764.256      850247.68049    316221.50348  20979763.772    20979770.114
       246.000         214.000
  23743077.266     1801876.95849   1375901.19245  23743075.661    23743085.099
       214.000         157.000
  23760288.519     -876018.08249   -694320.87545  23760287.885    23760296.788
       205.000         141.000
  24509873.623    -1169521.85149   -912216.55644  24509872.398    24509884.666
       199.000         129.000
 02  7 11 15 37  0.0000000  0 11G 6G18G17G15G30G29G26G23G10G22G21
  20263224.945      345758.04849     11842.91948  20263224.811    20263230.497
       246.000         213.000
  21799292.633    -1057336.91749   -826607.18447  21799292.384    21799298.458
       236.000         190.000
  21167480.826     -256383.91549   -210810.76147  21167480.348    21167486.755
       239.000         201.000
  21570248.087     -541833.18249   -431442.66547  21570247.618    21570254.215
       239.000         195.000
  23770709.412     1901892.16549   1450017.31645  23770709.270    23770718.698
       215.000         153.000
  22589574.258      -84326.05449   -257445.68846  22589574.773    22589581.896
       230.000         179.000
  22063338.028     -475734.31349   -378921.16046  22063337.589    22063345.959
       230.000         181.000
  20987849.662      892736.53449    349329.65448  20987849.024    20987855.547
       246.000         214.000
  23762628.687     1904621.37949   1455961.65945  23762627.435    23762636.038
       212.000         155.000
  23753774.674     -910250.14649   -720995.23245  23753774.144    23753781.320
       206.000         141.000
  24492505.658    -1260790.55549   -983335.03844  24492506.471    24492518.954
       201.000         128.000
 02  7 11 15 37 30.0000000  0 11G 6G18G17G15G30G29G26G23G10G22G21
  20265141.968      355831.72449     19692.49348  20265141.714    20265147.538
       246.000         213.000
  21784581.431    -1134644.96949   -886847.19647  21784580.789    21784587.611
       236.000         190.000
  21161793.091     -286272.98149   -234100.96247  21161792.416    21161799.079
       239.000         201.000
  21561240.011     -589171.60049   -468329.75647  21561239.275    21561245.893
       238.000         194.000
  23790080.934     2003689.07349   1529339.41745  23790082.189    23790090.302
       213.000         152.000
  22586482.960     -100571.71149   -270104.64146  22586482.953    22586489.432
       230.000         179.000
  22055721.341     -515760.38249   -410110.29946  22055720.912    22055728.326
       230.000         180.000
  20996010.313      935621.02549    382746.09548  20996009.735    20996016.362
       246.000         214.000
  23782199.718     2007467.57449   1536101.43545  23782199.056    23782207.840
       217.000         157.000
  23747359.900     -943960.49149   -747263.09245  23747359.665    23747367.052
       206.000         139.000
  24475169.975    -1351891.36149  -1054322.70044  24475170.282    24475178.116
       206.000         127.000
 02  7 11 15 38  0.0000000  0 11G 6G18G17G15G30G29G26G23G10G22G21
  20267149.292      366380.16849     27912.01748  20267149.245    20267154.748
       246.000         213.000
  21769939.182    -1211590.51549   -946804.73847  21769938.955    21769944.476
       236.000         189.000
  21156133.848     -316012.67249   -257274.75947  21156133.174    21156140.216
       239.000         201.000
  21552263.983     -636340.84949   -505085.03847  21552263.518    21552269.852
       238.000         193.000
  23809457.641     2105513.74049   1608683.14845  23809458.945    23809466.487
       214.000         152.000
  22583488.933     -116305.34549   -282364.60546  22583488.596    22583496.069
       230.000         179.000
  22048209.112     -555237.50949   -440871.69446  22048209.162    22048215.814
       231.000         180.000
  21004245.614      978897.30949    416467.83148  21004245.154    21004251.605
       247.000         214.000
  23801789.490     2110411.79449   1616317.59845  23801788.005    23801797.274
       217.000         159.000
  23741044.280     -977149.95949   -773125.08245  23741043.188    23741051.477
       204.000         140.000
  24457866.417    -1442824.51849  -1125179.66444  24457867.251    24457875.789
       206.000         127.000
 02  7 11 15 38 30.0000000  0 11G 6G18G17G15G30G29G26G23G10G22G21
  20269247.079      377403.75249     36501.77248  20269246.892    20269252.664
       245.000         213.000
  21755366.113    -1288172.56749  -1006479.04147  21755365.534    21755371.151
       235.000         189.000
  21150502.931     -345603.42449   -280332.50347  21150502.322    21150508.997
       239.000         201.000
  21543320.093     -683341.51549   -541708.94847  21543318.851    21543326.007
       237.000         192.000
  23828839.191     2207362.94249   1688046.01845  23828837.409    23828849.219
       212.000         151.000
  22580592.458     -131526.13849   -294224.94846  22580591.492    22580600.055
       229.000         179.000
  22040801.753     -594163.68949   -471203.77446  22040802.190    22040808.759
       230.000         180.000
  21012555.040     1022563.07849    450493.05948  21012554.471    21012560.557
       247.000         214.000
  23821397.157     2213451.12449   1696607.88545  23821395.481    23821404.574
       213.000         158.000
  23734827.475    -1009818.30449   -798580.96245  23734827.141    23734835.266
       207.000         141.000
  24440594.395    -1533589.08449  -1195905.27145  24440592.970    24440604.274
       207.000         132.000
 02  7 11 15 39  0.0000000  0 11G 6G18G17G15G30G29G26G23G10G22G21
  20271435.749      388904.97249     45463.71348  20271435.617    20271441.382
       245.000         213.000
  21740862.879    -1364387.69849  -1065867.41647  21740862.444    21740867.831
       236.000         189.000
  21144900.673     -375043.35249   -303272.72247  21144900.040    21144906.234
       239.000         201.000
  21534408.561     -730171.59549   -578199.93247  21534408.179    21534415.046
       238.000         192.000
  23848224.865     2309235.77949   1767427.29945  23848225.347    23848233.749
       218.000         150.000
  22577794.115     -146231.06149   -305683.31946  22577794.458    22577801.044
       227.000         179.000
  22033500.011     -632534.74849   -501103.28446  22033500.025    22033506.601
       230.000         180.000
  21020938.510     1066618.23249    484821.70048  21020938.047    21020944.298
       247.000         214.000
  23841022.945     2316585.18649   1776971.96245  23841020.555    23841031.592
       212.000         156.000
  23728710.873    -1041962.92149   -823628.79145  23728710.296    23728718.569
       205.000         141.000
  24423355.399    -1624181.58349  -1266496.79445  24423354.394    24423366.779
       208.000         136.000
 02  7 11 15 39 30.0000000  0 11G 6G18G17G15G30G29G26G23G10G22G21
  20273715.386      400884.33549     54798.23248  20273715.209    20273721.198
       245.000         214.000
  21726429.666    -1440234.80549  -1124969.01947  21726429.056    21726434.988
       237.000         189.000
  21139327.048     -404333.00649   -326095.85147  21139326.389    21139333.080
       239.000         201.000
  21525529.592     -776831.47349   -614558.29847  21525528.657    21525535.995
       237.000         192.000
  23867614.679     2411129.10849   1846824.56745  23867615.444    23867625.308
       217.000         153.000
  22575094.100     -160419.28449   -316739.05446  22575093.598    22575101.798
       228.000         179.000
  22026304.303     -670348.68949   -530568.68546  22026304.167    22026311.411
       230.000         181.000
  21029395.654     1111060.43649    519451.94548  21029394.863    21029401.334
       246.000         213.000
  23860666.334     2419811.38349   1857407.86445  23860666.195    23860675.042
       217.000         153.000
  23722693.860    -1073583.55349   -848268.28845  23722694.091    23722699.986
       207.000         139.000
  24406149.262    -1714600.83249  -1336953.31845  24406147.745    24406160.305
       209.000         140.000
 02  7 11 15 40  0.0000000  0 11G 6G18G17G15G30G29G26G23G10G22G21
  20276085.864      413341.04649     64504.71348  20276085.698    20276091.798
       245.000         214.000
  21712066.356    -1515714.23949  -1183784.13247  21712065.999    21712072.196
       237.000         191.000
  21133781.760     -433473.81649   -348802.98947  21133781.098    21133787.981
       239.000         201.000
  21516682.693     -823322.51049   -650785.09047  21516682.141    21516689.021
       237.000         192.000
  23887007.576     2513038.79749   1926234.57045  23887007.399    23887018.050
       214.000         153.000
  22572492.460     -174090.95649   -327392.28446  22572493.018    22572500.581
       229.000         180.000
  22019214.655     -707604.86249   -559599.46346  22019214.315    22019221.965
       230.000         182.000
  21037925.632     1155886.06449    554380.96148  21037924.978    21037931.529
       247.000         213.000
  23880326.581     2523125.89249   1937912.56945  23880325.655    23880335.147
       215.000         151.000
  23716776.016    -1104680.78849   -872499.94545  23716774.419    23716782.437
       206.000         137.000
  24388975.789    -1804846.96849  -1407274.96445  24388975.304    24388986.324
       212.000         144.000
 02  7 11 15 40 30.0000000  0 11G 6G18G17G15G30G29G26G23G10G22G21
  20278547.610      426277.11249     74584.71248  20278547.624    20278553.305
       246.000         214.000
  21697773.539    -1590823.42849  -1242310.73947  21697772.525    21697779.884
       237.000         192.000
  21128265.054     -462464.64349   -371393.26947  21128264.827    21128271.088
       240.000         202.000
  21507868.180     -869643.41949   -686879.31947  21507866.864    21507874.079
       235.000         191.000
  23906403.228     2614963.04249   2005655.92245  23906402.892    23906412.870
       217.000         152.000
  22569989.580     -187243.93949   -337641.34246  22569990.051    22569996.939
       229.000         180.000
  22012231.777     -744299.63749   -588192.78846  22012231.279    22012239.439
       229.000         182.000
  21046528.579     1201094.44749    589608.22348  21046528.302    21046534.277
       247.000         213.000
  23900003.015     2626527.39549   2018485.05345  23900000.044    23900011.141
       211.000         148.000
  23710958.688    -1135252.83849   -896322.37345  23710957.426    23710964.199
       198.000         135.000
  24371836.161    -1894917.41449  -1477459.67745  24371835.539    24371846.111
       213.000         145.000
 02  7 11 15 41  0.0000000  0 11G 6G18G17G15G30G29G26G23G10G22G21
  20281100.653      439692.89649     85038.52548  20281100.446    20281106.329
       246.000         214.000
  21683551.355    -1665561.28449  -1300547.99847  21683550.430    21683557.063
       236.000         192.000
  21122776.807     -491306.09549   -393867.14747  21122776.076    21122782.789
       240.000         202.000
  21499085.803     -915794.81549   -722841.45647  21499085.013    21499091.828
       237.000         190.000
  23925801.149     2716898.79549   2085086.23945  23925801.023    23925810.270
       218.000         151.000
  22567585.599     -199877.56749   -347485.69146  22567586.405    22567593.647
       230.000         181.000
  22005356.218     -780431.30149   -616347.33046  22005355.929    22005363.751
       230.000         182.000
  21055203.892     1246683.01849    625131.74048  21055203.186    21055209.818
       246.000         213.000
  23919695.409     2730013.32649   2099123.28245  23919695.270    23919704.029
       215.000         150.000
  23705240.857    -1165299.54049   -919735.46645  23705241.103    23705248.600
       207.000         135.000
  24354729.842    -1984811.57049  -1547507.03845  24354729.741    24354739.303
       213.000         145.000
 02  7 11 15 41 30.0000000  0 11G 6G18G17G15G30G29G26G23G10G22G21
  20283744.945      453588.39849     95866.15448  20283744.796    20283750.445
       246.000         214.000
  21669399.833    -1739927.08649  -1358495.34247  21669398.967    21669405.582
       237.000         191.000
  21117316.750     -519998.74449   -416225.06847  21117316.016    21117322.789
       239.000         202.000
  21490335.753     -961777.15449   -758671.87647  21490335.001    21490342.358
       235.000         191.000
  23945200.478     2818842.69949   2164522.90245  23945200.922    23945209.332
       218.000         151.000
  22565280.496     -211991.33749   -356924.94246  22565281.121    22565287.867
       231.000         181.000
  21998587.958     -815998.22049   -644061.80246  21998587.665    21998595.994
       230.000         183.000
  21063950.991     1292649.26549    660949.55348  21063950.381    21063956.936
       247.000         213.000
  23939403.967     2833580.99449   2179825.27645  23939404.495    23939412.729
       219.000         153.000
  23699623.586    -1194820.64049   -942738.92545  23699621.404    23699631.325
       199.000         137.000
  24337657.296    -2074528.54949  -1617416.32645  24337656.501    24337667.409
       213.000         145.000
 02  7 11 15 42  0.0000000  0 11G 6G18G17G15G30G29G26G23G10G22G21
  20286480.569      467963.91049    107067.81148  20286480.312    20286486.112
       246.000         213.000
  21655319.479    -1813919.67849  -1416151.87447  21655318.825    21655324.872
       237.000         191.000
  21111884.961     -548543.00549   -438467.35747  21111884.347    21111891.177
       240.000         202.000
  21481617.700    -1007590.78049   -794370.81047  21481616.886    21481624.337
       236.000         191.000
  23964600.854     2920791.81249   2243963.64545  23964601.032    23964610.791
       219.000         149.000
  22563074.590     -223584.25549   -365958.33346  22563074.678    22563081.634
       231.000         181.000
  21991927.668     -850998.47249   -671334.70346  21991927.565    21991935.082
       231.000         183.000
  21072769.501     1338990.85949    697059.83847  21072769.076    21072775.192
       247.000         212.000
  23959127.666     2937227.48349   2260588.64345  23959127.841    23959137.230
       220.000         157.000
  23694105.360    -1223816.18149   -965332.84145  23694102.524    23694113.348
       202.000         135.000
  24320618.698    -2164066.96549  -1687186.48045  24320617.797    24320629.382
       211.000         145.000
 02  7 11 15 42 30.0000000  0 11G 6G18G17G15G30G29G26G23G10G22G21
  20289307.861      482821.28649    118644.94948  20289307.565    20289313.541
       246.000         213.000
  21641310.597    -1887536.67449  -1473515.72047  21641309.883    21641315.866
       239.000         191.000
  21106481.836     -576937.43749   -460592.90647  21106481.637    21106487.845
       240.000         202.000
  21472932.139    -1053234.17649   -829937.10647  21472931.509    21472938.087
       235.000         190.000
  23984001.997     3022744.40649   2323407.06945  23984003.030    23984011.165
       218.000         149.000
  22560967.911     -234654.12149   -374584.16246  22560967.107    22560975.296
       229.000         180.000
  21985375.849     -885428.58349   -698163.34746  21985375.961    21985382.823
       230.000         182.000
  21081659.327     1385706.92549    733461.93047  21081658.671    21081665.262
       246.000         212.000
  23978866.106     3040952.08949   2341412.92045  23978865.787    23978875.227
       219.000         156.000
  23688688.073    -1252283.91549   -987515.57545  23688686.354    23688696.815
       202.000         133.000
  24303614.347    -2253424.50249  -1756815.69845  24303614.048    24303625.566
       210.000         145.000
 02  7 11 15 43  0.0000000  0 11G 6G18G17G15G30G29G26G23G10G22G21
  20292226.753      498159.85249    130597.03448  20292226.764    20292232.443
       246.000         213.000
  21627373.265    -1960777.96649  -1530586.82147  21627373.041    21627378.601
       239.000         192.000
  21101106.847     -605183.54249   -482602.87747  21101106.418    21101112.598
       239.000         202.000
  21464278.617    -1098708.78249   -865371.87247  21464277.670    21464285.257
       235.000         190.000
  24003403.187     3124696.53749   2402850.16345  24003403.410    24003413.180
       217.000         148.000
  22558960.725     -245201.41549   -382802.78746  22558960.716    22558967.491
       228.000         179.000
  21978932.624     -919287.89949   -724547.19746  21978932.642    21978939.005
       232.000         182.000
  21090619.815     1432794.22549    770153.29447  21090619.168    21090625.622
       246.000         212.000
  23998618.304     3144751.07849   2422295.12645  23998618.302    23998628.322
       216.000         157.000
  23683371.035    -1280224.96349  -1009287.87545  23683370.794    23683379.791
       206.000         135.000
  24286644.557    -2342600.83749  -1826303.70745  24286643.906    24286656.513
       208.000         144.000
 02  7 11 15 43 30.0000000  0 11G 6G18G17G15G30G29G26G23G10G22G21
  20295237.563      513981.23749    142925.33948  20295237.160    20295243.041
       246.000         213.000
  21613507.940    -2033641.44349  -1587363.52547  21613507.280    21613513.788
       239.000         193.000
  21095760.062     -633280.34649   -504496.50147  21095759.350    21095766.215
       238.000         201.000
  21455657.421    -1144013.50749   -900674.27247  21455656.568    21455663.758
       234.000         190.000
  24022803.760     3226646.37249   2482291.46245  24022804.269    24022813.828
       212.000         146.000
  22557053.324     -255223.98949   -390612.54446  22557052.867    22557060.967
       228.000         178.000
  21972598.602     -952573.34849   -750483.87646  21972598.507    21972605.422
       231.000         182.000
  21099650.724     1480251.63549    807133.04747  21099650.056    21099656.746
       246.000         212.000
  24018384.534     3248623.38649   2503234.46345  24018385.058    24018394.136
       218.000         155.000
  23678154.882    -1307637.62349  -1030648.40045  23678154.615    23678162.880
       201.000         135.000
  24269709.690    -2431593.82849  -1895648.82245  24269709.260    24269721.135
       209.000         144.000
 02  7 11 15 44  0.0000000  0 11G 6G18G17G15G30G29G26G23G10G22G21
  20298340.017      530284.71649    155629.30448  20298339.862    20298345.558
       246.000         213.000
  21599714.323    -2106127.17249  -1643845.87847  21599713.529    21599719.831
       238.000         194.000
  21090441.606     -661229.21049   -526274.86147  21090441.061    21090447.656
       239.000         202.000
  21447068.191    -1189149.84149   -935845.45547  21447067.424    21447074.343
       234.000         189.000
  24042203.038     3328589.79649   2561727.71745  24042203.449    24042214.964
       210.000         144.000
  22555245.886     -264722.29449   -398013.79046  22555246.558    22555253.480
       228.000         179.000
  21966373.964     -985284.17149   -775972.80246  21966374.096    21966381.594
       231.000         182.000
  21108751.360     1528075.80849    844398.59547  21108750.856    21108757.225
       246.000         212.000
  24038164.190     3352565.02849   2584227.83845  24038164.075    24038174.750
       212.000         153.000
  23673038.830    -1334522.76149  -1051597.90545  23673036.078    23673046.726
       204.000         132.000
  24252809.807    -2520403.45249  -1964851.07445  24252809.210    24252820.255
       211.000         143.000
 02  7 11 15 44 30.0000000  0 11G 6G18G17G15G30G29G26G23G10G22G21
  20301534.602      547071.93549    168710.20848  20301534.450    20301540.342
       246.000         214.000
  21585993.101    -2178232.62549  -1700031.93647  21585992.388    21585998.624
       238.000         194.000
  21085151.564     -689029.14749   -547937.17347  21085150.684    21085157.680
       238.000         202.000
  21438511.342    -1234116.31549   -970884.27847  21438510.688    21438518.014
       235.000         189.000
  24061600.602     3430525.22749   2641157.78545  24061598.942    24061610.721
       207.000         141.000
  22553538.759     -273694.27349   -405004.90046  22553538.850    22553546.239
       229.000         180.000
  21960259.256    -1017417.11949   -801011.41746  21960258.989    21960266.516
       231.000         182.000
  21117921.693     1576265.81949    881949.21347  21117921.207    21117927.678
       247.000         212.000
  24057956.737     3456574.98449   2665274.40445  24057955.534    24057966.299
       213.000         148.000
  23668023.651    -1360878.69449  -1072135.02645  23668023.848    23668032.638
       206.000         135.000
  24235945.198    -2609027.24149  -2033908.51145  24235945.494    24235955.011
       210.000         140.000
 02  7 11 15 45  0.0000000  0 11G 6G18G17G15G30G29G26G23G10G22G21
  20304820.972      564341.78249    182167.17948  20304820.565    20304826.345
       246.000         213.000
  21572344.136    -2249958.34549  -1755922.09147  21572343.198    21572349.485
       238.000         194.000
  21079889.460     -716681.79249   -569484.70747  21079888.907    21079895.215
       239.000         202.000
  21429986.527    -1278914.57849  -1005792.01447  21429985.969    21429993.271
       234.000         189.000
  24080995.640     3532448.27849   2720578.19245  24080996.413    24081007.557
       206.000         136.000
  22551931.668     -282140.57549   -411586.40646  22551930.943    22551938.505
       230.000         180.000
  21954254.596    -1048971.89049   -825599.50846  21954254.026    21954261.796
       232.000         182.000
  21127160.910     1624817.72949    919781.83247  21127160.271    21127166.752
       246.000         212.000
  24077761.655     3560649.66049   2746371.45445  24077761.083    24077769.428
       209.000         145.000
  23663109.129    -1386706.75049  -1092260.82345  23663108.571    23663117.851
       208.000         136.000
  24219115.777    -2697465.78449  -2102821.62245  24219114.846    24219123.525
       205.000         136.000
 02  7 11 15 45 30.0000000  0 11G 6G18G17G15G30G29G26G23G10G22G21
  20308199.923      582098.37549    196003.44448  20308199.556    20308205.846
       246.000         213.000
  21558768.251    -2321299.65549  -1811512.68247  21558767.876    21558773.673
       239.000         194.000
  21074656.156     -744183.67849   -590914.77347  21074655.550    21074661.820
       239.000         202.000
  21421494.320    -1323541.12449  -1040565.95947  21421493.838    21421500.796
       234.000         189.000
  24100389.047     3634359.85149   2799989.62345  24100387.469    24100395.873
       207.000         135.000
  22550425.260     -290056.96249   -417754.99046  22550425.116    22550432.252
       229.000         180.000
  21948360.978    -1079942.82649   -849732.66646  21948360.646    21948368.809
       230.000         182.000
  21136469.166     1673733.00849    957897.59447  21136468.677    21136474.904
       246.000         212.000
  24097579.070     3664790.09649   2827519.72745  24097580.003    24097587.897
       213.000         145.000
  23658295.398    -1412002.90749  -1111972.16945  23658294.593    23658303.826
       204.000         136.000
  24202322.447    -2785713.44749  -2171585.97845  24202320.202    24202332.094
       203.000         135.000
 02  7 11 15 46  0.0000000  0 11G 6G18G17G15G30G29G26G23G10G22G21
  20311670.600      600336.91449    210215.24648  20311670.313    20311676.303
       245.000         213.000
  21545264.988    -2392260.51649  -1866806.83147  21545264.564    21545269.908
       239.000         194.000
  21069450.471     -771539.88349   -612231.33547  21069449.474    21069456.112
       238.000         201.000
  21413033.916    -1368001.23049  -1075210.21547  21413033.755    21413040.495
       234.000         189.000
  24119778.676     3736251.83449   2879385.83345  24119780.533    24119788.470
       212.000         134.000
  22549018.930     -297447.70149   -423513.98546  22549018.100    22549025.678
       229.000         180.000
  21942577.835    -1110333.29049   -873413.48546  21942578.009    21942585.380
       232.000         183.000
  21145845.320     1723004.37449    996290.82047  21145844.866    21145851.123
       246.000         212.000
  24117407.824     3768989.00849   2908713.59645  24117407.436    24117416.279
       210.000         146.000
  23653581.999    -1436772.04449  -1131272.81645  23653580.327    23653591.559
       203.000         138.000
  24185564.942    -2873774.57449  -2240204.99645  24185564.232    24185577.195
       207.000         137.000
 02  7 11 15 46 30.0000000  0 11G 6G18G17G15G30G29G26G23G10G22G21
  20315233.750      619061.12049    224805.50748  20315233.497    20315239.521
       246.000         213.000
  21531834.847    -2462836.51349  -1921801.07047  21531834.011    21531839.485
       238.000         193.000
  21064272.968     -798747.35249   -633431.98047  21064272.268    21064279.190
       238.000         202.000
  21404605.735    -1412291.76749  -1109722.32647  21404604.820    21404611.947
       234.000         189.000
  24139164.645     3838124.83849   2958767.23345  24139166.942    24139173.216
       212.000         137.000
  22547713.185     -304308.72449   -428860.21846  22547712.294    22547719.065
       228.000         179.000
  21936906.175    -1140138.13949   -896637.99646  21936905.576    21936912.877
       231.000         182.000
  21155289.375     1772633.10849   1034962.52047  21155288.688    21155295.401
       247.000         212.000
  24137247.528     3873247.47849   2989953.81745  24137246.862    24137256.570
       213.000         149.000
  23648969.328    -1461010.49849  -1150159.96745  23648968.410    23648977.404
       203.000         138.000
  24168843.922    -2961644.92049  -2308675.33945  24168843.638    24168854.145
       210.000         141.000
 02  7 11 15 47  0.0000000  0 11G 6G18G17G15G30G29G26G23G10G22G21
  20318889.346      638271.39149    239774.50148  20318888.896    20318895.077
       245.000         213.000
  21518478.110    -2533026.54349  -1976494.56347  21518477.358    21518483.129
       238.000         193.000
  21059123.810     -825806.27049   -654516.87247  21059123.302    21059130.243
       238.000         202.000
  21396209.887    -1456412.61649  -1144102.22547  21396209.193    21396216.383
       235.000         189.000
  24158546.654     3939975.87149   3038131.54045  24158547.146    24158556.645
       215.000         139.000
  22546508.300     -310639.23549   -433793.06846  22546508.327    22546514.808
       229.000         178.000
  21931346.261    -1169355.62049   -919404.82946  21931346.435    21931353.452
       232.000         182.000
  21164801.009     1822616.87849   1073910.86947  21164800.474    21164807.050
       245.000         212.000
  24157098.130     3977563.13249   3071238.62945  24157096.900    24157106.395
       213.000         151.000
  23644457.749    -1484718.03349  -1168633.44445  23644457.193    23644466.410
       206.000         139.000
  24152159.552    -3049323.23849  -2376996.05745  24152159.768    24152168.994
       215.000         145.000
 02  7 11 15 47 30.0000000  0 11G 6G18G17G15G30G29G26G23G10G22G21
  20322637.671      657968.69549    255123.00448  20322637.621    20322643.543
       246.000         213.000
  21505195.170    -2602828.86349  -2030885.96747  21505194.574    21505200.520
       238.000         195.000
  21054003.109     -852716.04249   -675485.55447  21054002.787    21054009.394
       239.000         202.000
  21387846.443    -1500363.33049  -1178349.54947  21387845.283    21387852.585
       234.000         189.000
  24177923.737     4041802.76249   3117477.03145  24177924.411    24177933.513
       214.000         140.000
  22545404.882     -316438.00949   -438311.58746  22545404.341    22545411.025
       229.000         179.000
  21925898.652    -1197983.29549   -941712.04846  21925898.067    21925905.504
       231.000         182.000
  21174379.931     1872954.21449   1113134.72147  21174379.262    21174385.670
       245.000         211.000
  24176959.590     4081934.31149   3152566.72245  24176959.109    24176967.856
       212.000         154.000
  23640047.442    -1507893.87649  -1186692.57245  23640046.197    23640054.994
       208.000         140.000
  24135511.904    -3136807.75149  -2445165.75345  24135511.843    24135521.034
       214.000         145.000
 02  7 11 15 48  0.0000000  0 11G 6G18G17G15G30G29G26G23G10G22G21
  20326478.740      678153.41349    270851.31548  20326478.292    20326484.490
       246.000         213.000
  21491986.154    -2672242.50749  -2084974.48847  21491984.968    21491991.609
       239.000         195.000
  21048910.825     -879476.67349   -696338.01647  21048910.183    21048916.403
       239.000         202.000
  21379515.329    -1544143.67949  -1212464.11747  21379514.320    21379521.408
       234.000         189.000
  24197295.577     4143602.85849   3196801.64945  24197295.981    24197306.184
       212.000         143.000
  22544402.577     -321704.50249   -442415.33446  22544402.075    22544409.704
       229.000         179.000
  21920563.459    -1226019.37149   -963558.29846  21920563.979    21920570.520
       232.000         181.000
  21184025.637     1923642.74849   1152632.24047  21184024.665    21184031.430
       246.000         211.000
  24196831.094     4186358.82549   3233936.35145  24196829.833    24196839.061
       211.000         150.000
  23635738.684    -1530537.68349  -1204337.16245  23635737.519    23635746.432
       209.000         140.000
  24118901.317    -3224097.45749  -2513183.66245  24118900.463    24118910.960
       216.000         146.000
 02  7 11 15 48 30.0000000  0 11G 6G18G17G15G30G29G26G23G10G22G21
  20330412.337      698824.63849    286958.71348  20330412.199    20330418.171
       245.000         213.000
  21478851.115    -2741267.44849  -2138760.13247  21478850.491    21478856.179
       239.000         196.000
  21043846.565     -906089.35849   -717075.19447  21043845.789    21043852.483
       239.000         202.000
  21371216.351    -1587754.85749  -1246446.87347  21371215.016    21371222.504
       233.000         189.000
  24216661.628     4245372.25149   3276102.31745  24216662.633    24216670.910
       212.000         144.000
  22543501.773     -326438.82449   -446104.41246  22543501.978    22543508.858
       229.000         180.000
  21915341.194    -1253463.19249   -984943.05446  21915341.355    21915347.817
       233.000         183.000
  21193737.514     1974679.15049   1192400.82947  21193736.771    21193743.627
       245.000         210.000
  24216711.860     4290833.09549   3315344.77045  24216710.210    24216720.620
       210.000         145.000
  23631530.852    -1552650.39149  -1221567.90945  23631528.613    23631539.635
       207.000         142.000
  24102327.765    -3311191.88449  -2581049.41545  24102327.576    24102338.486
       213.000         146.000
 02  7 11 15 49  0.0000000  0 11G 6G18G17G15G30G29G26G23G10G22G21
  20334438.691      719983.00349    303445.70548  20334438.501    20334444.612
       246.000         213.000
  21465790.323    -2809902.55449  -2192242.00947  21465789.853    21465795.399
       240.000         196.000
  21038810.462     -932553.95049   -737696.97247  21038809.665    21038816.746
       239.000         202.000
  21362949.562    -1631196.71249  -1280297.67547  21362948.808    21362956.204
       235.000         189.000
  24236021.624     4347108.43649   3355377.12645  24236022.661    24236032.167
       215.000         146.000
  22542702.422     -330640.18649   -449378.20246  22542702.522    22542709.375
       230.000         181.000
  21910231.815    -1280312.72749  -1005864.72246  21910230.913    21910239.269
       231.000         184.000
  21203515.312     2026061.50949   1232438.99147  21203514.802    21203521.518
       246.000         211.000
  24236601.836     4395355.07149   3396790.32945  24236602.609    24236610.191
       213.000         149.000
  23627424.137    -1574231.53249  -1238384.41845  23627424.095    23627432.220
       210.000         144.000
  24085791.683    -3398089.72649  -2648761.96745  24085790.694    24085802.160
       213.000         149.000
 02  7 11 15 49 30.0000000  0 11G 6G18G17G15G30G29G26G23G10G22G21
  20338557.838      741628.97549    320312.66348  20338557.650    20338563.721
       245.000         213.000
  21452803.977    -2878146.48749  -2245419.07047  21452803.233    21452809.101
       238.000         195.000
  21033802.627     -958870.47849   -758203.37447  21033802.292    21033808.974
       240.000         202.000
  21354715.314    -1674468.98649  -1314016.33847  21354714.649    21354721.927
       234.000         190.000
  24255374.857     4448808.75249   3434623.96145  24255376.212    24255384.496
       216.000         148.000
  22542004.608     -334307.68049   -452235.99546  22542004.215    22542011.659
       229.000         181.000
  21905235.904    -1306566.12849  -1026321.90646  21905235.471    21905243.062
       232.000         184.000
  21213358.609     2077787.95549   1272745.27147  21213357.768    21213364.291
       244.000         210.000
  24256500.770     4499922.93049   3478271.64945  24256500.644    24256509.125
       214.000         151.000
  23623418.528    -1595280.79949  -1254786.52745  23623417.368    23623427.111
       210.000         143.000
  24069292.991    -3484790.12749  -2716320.67945  24069291.616    24069303.976
       217.000         152.000
 02  7 11 15 50  0.0000000  0 11G 6G18G17G15G30G29G26G23G10G22G21
  20342770.069      763764.02949    337560.72248  20342769.704    20342776.128
       246.000         213.000
  21439892.447    -2945997.09349  -2298289.64847  21439891.442    21439897.277
       240.000         195.000
  21028823.325     -985037.69849   -778593.43747  21028822.769    21028829.298
       240.000         202.000
  21346513.333    -1717570.58049  -1347602.00347  21346512.267    21346519.676
       234.000         190.000
  24274720.867     4550471.66749   3513841.67845  24274720.860    24274731.240
       215.000         149.000
  22541408.493     -337439.91449   -454676.71746  22541408.857    22541416.187
       229.000         181.000
  21900353.864    -1332220.50649  -1046312.30646  21900353.321    21900361.156
       232.000         185.000
  21223267.144     2129857.43649   1313318.85147  21223266.748    21223272.903
       245.000         210.000
  24276408.321     4604535.60249   3559787.89045  24276407.763    24276416.066
       214.000         150.000
  23619514.631    -1615796.79149  -1270773.06845  23619513.591    23619522.190
       215.000         145.000
  24052832.416    -3571290.50949  -2783723.53245  24052831.361    24052841.955
       215.000         153.000
 02  7 11 15 50 30.0000000  0 11G 6G18G17G15G30G29G26G23G10G22G21
  20347075.018      786386.52149    355188.58448  20347074.603    20347080.988
       245.000         213.000
  21427055.588    -3013455.15049  -2350854.32947  21427054.629    21427061.116
       238.000         195.000
  21023871.938    -1011057.69249   -798868.78147  21023870.947    21023877.721
       239.000         202.000
  21338343.529    -1760503.48549  -1381056.22847  21338342.593    21338349.642
       234.000         190.000
  24294059.045     4652093.00649   3593027.07045  24294060.172    24294068.314
       216.000         150.000
  22540914.200     -340038.00449   -456701.23146  22540913.690    22540921.589
       229.000         181.000
  21895585.833    -1357276.25049  -1065836.24346  21895585.392    21895593.195
       232.000         186.000
  21233240.164     2182265.72849   1354156.44147  21233239.464    21233246.068
       244.000         210.000
  24296323.516     4709188.97549   3641335.83545  24296323.575    24296329.367
       216.000         151.000
  23615711.909    -1635781.43549  -1286345.60945  23615711.953    23615719.593
       215.000         147.000
  24036409.929    -3657591.26149  -2850970.83045  24036408.910    24036420.183
       216.000         153.000
 02  7 11 15 51  0.0000000  0 11G 6G18G17G15G30G29G26G23G10G22G21
  20351472.747      809496.60049    373196.38748  20351472.409    20351478.787
       246.000         213.000
  21414293.514    -3080519.89149  -2403112.53447  21414292.884    21414298.777
       240.000         196.000
  21018948.522    -1036930.24849   -819029.23047  21018948.025    21018954.526
       240.000         203.000
  21330205.837    -1803267.47349  -1414378.82947  21330204.846    21330212.182
       234.000         190.000
  24313388.161     4753668.49549   3672176.52845  24313388.421    24313398.992
       214.000         150.000
  22540521.472     -342101.49149   -458309.16246  22540521.322    22540529.522
       228.000         180.000
  21890932.108    -1381731.78949  -1084892.49646  21890932.193    21890939.419
       232.000         185.000
  21243277.157     2235010.63549   1395256.33747  21243276.396    21243283.324
       244.000         210.000
  24316246.072     4813881.09849   3722914.04645  24316245.534    24316254.695
       217.000         152.000
  23612010.234    -1655234.54749  -1301503.96145  23612009.876    23612017.113
       218.000         149.000
  24020025.521    -3743691.57149  -2918061.94345  24020024.563    24020035.789
       216.000         154.000
 02  7 11 15 51 30.0000000  0 11G 6G18G17G15G30G29G26G23G10G22G21
  20355963.704      833096.78449    391586.08547  20355963.270    20355969.921
       245.000         212.000
  21401607.025    -3147187.90149  -2455061.60147  21401606.206    21401612.496
       239.000         197.000
  21014053.642    -1062653.38649   -839073.25747  21014053.134    21014059.755
       241.000         203.000
  21322100.632    -1845860.52549  -1447568.24547  21322100.017    21322106.096
       235.000         190.000
  24332708.899     4855199.15849   3751291.14145  24332709.386    24332718.549
       212.000         150.000
  22540231.002     -343627.54249   -459498.31346  22540230.613    22540237.549
       229.000         180.000
  21886393.381    -1405583.20449  -1103477.99546  21886393.425    21886400.876
       232.000         185.000
  21253378.273     2288092.06849   1436618.45047  21253377.753    21253384.079
       245.000         210.000
  24336175.925     4918611.88349   3804522.34545  24336174.717    24336184.214
       217.000         151.000
  23608410.072    -1674153.96149  -1316246.43745  23608408.649    23608417.985
       215.000         150.000
  24003680.052    -3829587.94849  -2984994.11745  24003679.488    24003690.720
       218.000         155.000
 02  7 11 15 52  0.0000000  0 11G 6G18G17G15G30G29G26G23G10G22G21
  20360547.870      857186.51749    410357.26047  20360547.696    20360553.845
       245.000         212.000
  21388995.930    -3213459.22749  -2506701.56347  21388995.257    21389001.587
       239.000         197.000
  21009187.152    -1088227.84049   -859001.42447  21009186.423    21009193.201
       240.000         203.000
  21314027.831    -1888283.46849  -1480625.09247  21314026.786    21314034.032
       234.000         190.000
  24352020.242     4956681.05449   3830367.79145  24352021.027    24352030.096
       211.000         146.000
  22540042.967     -344616.29449   -460268.79146  22540042.403    22540049.999
       230.000         180.000
  21881969.763    -1428829.68149  -1121592.11446  21881970.077    21881977.026
       232.000         185.000
  21263542.884     2341506.96649   1478240.40347  21263542.456    21263549.004
       245.000         211.000
  24356112.397     5023378.29949   3886158.42345  24356108.697    24356119.488
       213.000         149.000
  23604911.378    -1692540.15649  -1330573.42745  23604910.251    23604918.181
       219.000         152.000
  23987373.447    -3915279.57549  -3051766.74345  23987373.237    23987383.522
       216.000         155.000
 02  7 11 15 52 30.0000000  0 11G 6G18G17G15G30G29G26G23G10G22G21
  20365225.121      881765.11749    429509.36548  20365224.938    20365231.283
       246.000         213.000
  21376460.434    -3279333.66349  -2558032.25947  21376459.855    21376465.985
       240.000         198.000
  21004348.608    -1113654.52149   -878814.44247  21004347.593    21004354.634
       240.000         203.000
  21305987.073    -1930536.87749  -1513549.83847  21305986.263    21305993.588
       235.000         191.000
  24371321.694     5058110.58249   3909403.61045  24371321.695    24371331.305
       210.000         145.000
  22539956.981     -345068.29249   -460621.02046  22539956.483    22539963.140
       230.000         180.000
  21877661.271    -1451470.52249  -1139234.32646  21877660.591    21877668.882
       230.000         184.000
  21273770.323     2395252.33949   1520119.87747  21273769.726    21273776.624
       245.000         211.000
  24376054.484     5128177.34749   3967819.87045  24376053.499    24376060.993
       211.000         145.000
  23601513.975    -1710394.14049  -1344485.69245  23601513.062    23601522.643
       218.000         155.000
  23971105.779    -4000766.72049  -3118380.06945  23971105.269    23971116.565
       216.000         154.000
 02  7 11 15 53  0.0000000  0 11G 6G18G17G15G30G29G26G23G10G22G21
  20369995.510      906833.41749    449043.05648  20369995.236    20370001.418
       247.000         213.000
  21364000.803    -3344809.59449  -2609052.43547  21363999.761    21364005.951
       239.000         198.000
  20999538.175    -1138933.04149   -898512.00947  20999537.513    20999543.861
       240.000         204.000
  21297978.881    -1972620.42549  -1546342.21647  21297978.356    21297985.188
       235.000         191.000
  24390612.982     5159485.49449   3988396.84745  24390613.939    24390622.581
       209.000         143.000
  22539973.385     -344982.38749   -460554.11646  22539973.001    22539980.038
       230.000         179.000
  21873468.255    -1473503.74449  -1156403.07146  21873467.873    21873475.586
       232.000         184.000
  21284060.408     2449326.49949   1562255.55047  21284059.742    21284066.541
       244.000         211.000
  24396003.103     5233007.40549   4049505.51545  24396002.289    24396010.065
       213.000         146.000
  23598217.701    -1727715.37349  -1357982.83245  23598217.174    23598225.133
       220.000         156.000
  23954877.172    -4086048.48149  -3184833.35045  23954875.675    23954887.869
       215.000         153.000
 02  7 11 15 53 30.0000000  0 11G 6G18G17G15G30G29G26G23G10G22G21
  20374859.112      932391.61049    468958.48848  20374858.799    20374865.024
       247.000         213.000
  21351617.078    -3409886.14349  -2659761.40847  21351616.444    21351622.515
       239.000         197.000
  20994756.199    -1164063.24649   -918094.01347  20994755.613    20994762.325
       241.000         204.000
  21290003.015    -2014534.08349  -1579002.21147  21290002.288    21290009.356
       235.000         192.000
  24409893.574     5260802.95649   4067345.31745  24409893.293    24409902.482
       209.000         141.000
  22540092.250     -344358.34549   -460067.88446  22540092.409    22540099.913
       230.000         180.000
  21869391.338    -1494927.98249  -1173097.28646  21869390.906    21869398.626
       232.000         185.000
  21294412.571     2503727.25649   1604645.71547  21294411.905    21294418.521
       244.000         210.000
  24415957.316     5337866.33849   4131213.68245  24415956.445    24415967.071
       210.000         146.000
  23595022.967    -1744503.89349  -1371064.85845  23595021.806    23595030.798
       220.000         157.000
  23938688.026    -4171122.68849  -3251124.93245  23938688.381    23938699.144
       215.000         152.000
 02  7 11 15 54  0.0000000  0 11G 6G18G17G15G30G29G26G23G10G22G21
  20379815.935      958439.45649    489255.45848  20379815.807    20379822.031
       247.000         213.000
  21339309.561    -3474562.60749  -2710158.62447  21339308.794    21339314.709
       240.000         197.000
  20990002.450    -1189045.33349   -937560.60447  20990001.894    20990008.156
       241.000         204.000
  21282059.481    -2056277.84549  -1611529.83747  21282058.747    21282065.815
       235.000         192.000
  24429162.568     5362060.51749   4146247.12845  24429162.213    24429173.367
       203.000         139.000
  22540313.451     -343195.75249   -459161.99646  22540313.086    22540319.940
       228.000         180.000
  21865430.536    -1515741.73249  -1189315.80246  21865430.677    21865438.593
       232.000         185.000
  21304826.304     2558452.09049   1647288.41347  21304825.436    21304832.200
       244.000         210.000
  24435916.197     5442751.86049   4212942.47045  24435915.428    24435924.038
       212.000         146.000
  23591929.717    -1760759.80249  -1383731.86545  23591929.267    23591937.758
       221.000         158.000
  23922538.633    -4255988.45149  -3317254.07345  23922537.362    23922548.431
       215.000         152.000
 02  7 11 15 54 30.0000000  0 11G 6G18G17G15G30G29G26G23G10G22G21
  20384866.322      984979.34649    509935.83748  20384865.961    20384872.516
       247.000         213.000
  21327078.744    -3538836.24749  -2760241.94747  21327078.401    21327083.897
       240.000         198.000
  20985277.106    -1213877.22349   -956910.14247  20985276.116    20985283.226
       240.000         204.000
  21274148.708    -2097849.48549  -1643923.33547  21274148.064    21274155.449
       236.000         192.000
  24448418.963     5463257.26349   4225101.54345  24448415.754    24448430.685
       203.000         134.000
  22540637.600     -341492.16149   -457834.56946  22540637.132    22540644.890
       229.000         180.000
  21861586.637    -1535941.48849  -1205055.89246  21861586.439    21861594.585
       233.000         186.000
  21315301.741     2613501.10749   1690183.72247  21315301.084    21315308.031
       244.000         210.000
  24455880.425     5547664.03749   4294692.09945  24455879.807    24455889.110
       212.000         149.000
  23588938.107    -1776481.02049  -1395982.23245  23588937.908    23588946.352
       222.000         159.000
  23906429.504    -4340642.77449  -3383218.41545  23906429.753    23906438.677
       215.000         152.000
 02  7 11 15 55  0.0000000  0 11G 6G18G17G15G30G29G26G23G10G22G21
  20390010.012     1012009.29849    530998.08748  20390009.890    20390016.005
       247.000         213.000
  21314924.372    -3602707.97249  -2810012.08147  21314923.945    21314929.617
       239.000         198.000
  20980579.780    -1238560.88349   -976144.17447  20980578.877    20980586.081
       239.000         204.000
  21266270.322    -2139251.26549  -1676184.47347  21266269.098    21266276.466
       235.000         192.000
  24467663.556     5564388.55549   4303904.98645  24467662.670    24467676.554
       205.000         133.000
  22541064.371     -339249.27149   -456086.92046  22541064.186    22541071.894
       228.000         180.000
  21857859.582    -1555527.89449  -1220318.04646  21857859.689    21857866.775
       233.000         186.000
  21325838.196     2668870.08949   1733328.35447  21325837.530    21325844.089
       244.000         210.000
  24475848.919     5652598.70749   4376459.27945  24475847.993    24475857.484
       214.000         150.000
  23586047.859    -1791669.65749  -1407817.59345  23586046.410    23586056.188
       219.000         160.000
  23890360.491    -4425086.69649  -3449018.80845  23890359.978    23890369.031
       214.000         151.000
 02  7 11 15 55 30.0000000  0 11G 6G18G17G15G30G29G26G23G10G22G21
  20395247.018     1039529.50549    552442.35448  20395246.665    20395253.059
       247.000         213.000
  21302846.678    -3666176.59249  -2859468.11247  21302846.117    21302852.192
       241.000         200.000
  20975910.829    -1263096.14649   -995262.59047  20975910.150    20975916.916
       240.000         204.000
  21258424.107    -2180483.09949  -1708313.17947  21258423.440    21258430.569
       236.000         192.000
  24486895.177     5665451.96649   4382655.53745  24486896.185    24486906.807
       207.000         133.000
  22541593.926     -336466.58049   -453918.62846  22541593.949    22541601.218
       228.000         180.000
  21854249.481    -1574499.33049  -1235101.01546  21854249.288    21854257.351
       233.000         185.000
  21336435.139     2724556.88149   1776720.62547  21336434.414    21336440.802
       244.000         209.000
  24495821.497     5757553.69349   4458242.25545  24495821.995    24495830.458
       217.000         155.000
  23583258.797    -1806325.81949  -1419238.04845  23583257.830    23583266.790
       221.000         160.000
  23874331.708    -4509319.13849  -3514654.42145  23874330.435    23874341.191
       214.000         150.000
 02  7 11 15 56  0.0000000  0 11G 6G18G17G15G30G29G26G23G10G22G21
  20400577.306     1067540.21849    574268.82748  20400577.124    20400583.537
       247.000         213.000
  21290845.828    -3729241.39449  -2908609.48947  21290845.065    21290851.457
       239.000         200.000
  20971270.279    -1287482.96949  -1014265.34247  20971269.782    20971276.147
       240.000         204.000
  21250610.422    -2221544.55349  -1740309.13147  21250610.039    21250616.989
       236.000         193.000
  24506114.151     5766445.01749   4461351.27545  24506116.239    24506124.028
       205.000         133.000
  22542226.368     -333143.43949   -451329.21146  22542226.661    22542233.285
       229.000         180.000
  21850756.657    -1592854.55349  -1249403.80646  21850757.066    21850763.779
       233.000         184.000
  21347092.011     2780559.19949   1820358.76347  21347091.466    21347098.063
       244.000         209.000
  24515797.469     5862527.26349   4540039.70545  24515796.237    24515806.519
       209.000         150.000
  23580571.265    -1820449.40849  -1430243.50345  23580570.251    23580580.159
       221.000         162.000
  23858343.194    -4593338.97349  -3580124.36545  23858341.934    23858351.744
       215.000         149.000
 02  7 11 15 56 30.0000000  0 11G 6G18G17G15G30G29G26G23G10G22G21
  20406000.968     1096041.14149    596477.27047  20406000.730    20406006.833
       247.000         212.000
  21278921.908    -3791901.74949  -2957435.71747  21278921.329    21278927.418
       239.000         199.000
  20966657.926    -1311721.54949  -1033152.57647  20966657.355    20966663.653
       240.000         204.000
  21242829.174    -2262435.84149  -1772172.48047  21242828.236    21242835.571
       237.000         194.000
  24525318.730     5867364.58149   4539989.72445  24525319.565    24525330.678
       211.000         137.000
  22542961.857     -329280.01549   -448318.80446  22542961.453    22542968.891
       230.000         180.000
  21847381.355    -1610592.24949  -1263225.41746  21847381.283    21847388.378
       234.000         184.000
  21357808.534     2836874.44749   1864240.74247  21357808.057    21357814.917
       245.000         210.000
  24535776.374     5967517.09349   4621849.87445  24535775.966    24535784.991
       208.000         144.000
  23577985.069    -1834040.88549  -1440834.33046  23577983.851    23577992.721
       219.000         163.000
  23842395.290    -4677145.02949  -3645427.74945  23842393.424    23842404.317
       217.000         149.000
 02  7 11 15 57  0.0000000  0 11G 6G18G17G15G30G29G26G23G10G22G21
  20411518.275     1125034.45149    619069.38947  20411517.990    20411524.083
       247.000         212.000
  21267075.530    -3854154.56149  -3005944.38347  21267074.880    21267081.038
       240.000         200.000
  20962074.149    -1335809.65249  -1051922.54947  20962073.469    20962080.183
       240.000         204.000
  21235080.731    -2303154.73649  -1803901.50247  21235080.010    21235087.172
       237.000         194.000
  24544509.374     5968210.08949   4618570.47945  24544510.569    24544520.919
       211.000         139.000
  22543800.376     -324873.88249   -444885.48846  22543800.002    22543806.758
       229.000         180.000
  21844124.150    -1627709.17749  -1276563.31446  21844123.888    21844130.999
       232.000         184.000
  21368584.664     2893502.70049   1908366.61447  21368583.917    21368590.929
       245.000         210.000
  24555758.451     6072523.15149   4703672.65445  24555758.002    24555767.715
       208.000         142.000
  23575500.380    -1847098.22449  -1451008.93845  23575500.011    23575508.535
       220.000         162.000
  23826488.521    -4760734.21649  -3710562.14945  23826486.856    23826498.857
       216.000         149.000
 02  7 11 15 57 30.0000000  0 11G 6G18G17G15G30G29G26G23G10G22G21
  20417128.747     1154517.68549    642043.27547  20417128.606    20417134.711
       247.000         212.000
  21255306.321    -3916001.83149  -3054137.03647  21255305.508    21255311.596
       240.000         199.000
  20957518.488    -1359749.97449  -1070577.36347  20957518.092    20957524.256
       240.000         204.000
  21227364.523    -2343703.85749  -1835498.23047  21227363.412    21227371.017
       236.000         194.000
  24563684.795     6068976.58549   4697089.65145  24563686.704    24563694.063
       212.000         137.000
  22544741.685     -319927.30449   -441031.05346  22544741.980    22544747.993
       230.000         179.000
  21840984.650    -1644206.68849  -1289418.53146  21840984.611    21840991.430
       234.000         184.000
  21379419.296     2950439.15449   1952732.64747  21379418.686    21379425.348
       245.000         209.000
  24575742.666     6177540.79849   4785504.44545  24575740.609    24575751.085
       208.000         138.000
  23573116.886    -1859624.33349  -1460769.61146  23573117.051    23573124.487
       220.000         163.000
  23810622.705    -4844108.17249  -3775528.82645  23810621.180    23810632.523
       216.000         149.000
 02  7 11 15 58  0.0000000  0 11G 6G18G17G15G30G29G26G23G10G22G21
  20422832.642     1184491.67949    665399.57647  20422832.367    20422838.684
       247.000         212.000
  21243614.676    -3977441.82349  -3102012.33647  21243614.172    21243619.369
       241.000         199.000
  20952991.185    -1383541.73449  -1089116.41447  20952990.327    20952997.180
       240.000         204.000
  21219680.685    -2384082.30949  -1866961.98047  21219679.941    21219686.618
       236.000         193.000
  24582844.935     6169662.02549   4775545.66345  24582844.431    24582854.366
       209.000         138.000
  22545786.087     -314439.46649   -436754.85246  22545785.348    22545792.565
       229.000         180.000
  21837963.708    -1660082.65749  -1301789.45946  21837963.662    21837971.291
       234.000         185.000
  21390312.358     3007682.44249   1997337.77347  21390311.406    21390318.700
       244.000         209.000
  24595728.937     6282568.85049   4867344.40945  24595728.252    24595737.819
       210.000         139.000
  23570834.646    -1871618.49549  -1470115.75746  23570833.591    23570843.168
       219.000         164.000
  23794798.384    -4927265.15649  -3840326.43845  23794797.085    23794807.392
       217.000         149.000
 02  7 11 15 58 30.0000000  0 11G 6G18G17G15G30G29G26G23G10G22G21
  20428630.251     1214957.82749    689139.37347  20428630.084    20428636.262
       247.000         212.000
  21232000.943    -4038472.36949  -3149568.57047  21232000.422    21232006.189
       240.000         199.000
  20948492.367    -1407183.06649  -1107538.25047  20948491.341    20948498.464
       240.000         204.000
  21212029.664    -2424288.52949  -1898291.52047  21212028.458    21212035.941
       236.000         193.000
  24601988.893     6270265.37749   4853937.70945  24601988.278    24601999.986
       205.000         138.000
  22546933.601     -308408.55549   -432055.48446  22546933.463    22546940.798
       229.000         178.000
  21835061.448    -1675334.38849  -1313673.94846  21835061.701    21835069.101
       234.000         186.000
  21401263.613     3065231.67349   2042181.29447  21401262.914    21401269.834
       244.000         209.000
  24615717.257     6387606.72549   4949192.00345  24615716.824    24615725.120
       211.000         144.000
  23568653.556    -1883079.44749  -1479046.42446  23568652.451    23568661.536
       220.000         164.000
  23779015.837    -5010202.71849  -3904953.04645  23779015.650    23779025.892
       216.000         148.000
 02  7 11 15 59  0.0000000  0 11G 6G18G17G15G30G29G26G23G10G22G21
  20434521.238     1245914.89549    713261.70247  20434520.916    20434527.610
       245.000         212.000
  21220465.033    -4099093.87449  -3196806.07747  21220464.408    21220470.130
       241.000         200.000
  20944021.929    -1430675.31249  -1125843.91847  20944021.106    20944028.498
       240.000         204.000
  21204411.257    -2464323.57149  -1929487.66947  21204410.612    21204417.908
       237.000         194.000
  24621116.335     6370782.87249   4932262.87245  24621116.386    24621125.674
       210.000         138.000
  22548184.255     -301835.38049   -426933.56046  22548184.167    22548191.427
       228.000         179.000
  21832277.963    -1689961.94649  -1325072.07946  21832277.709    21832285.483
       234.000         186.000
  21412272.494     3123083.48649   2087260.59447  21412272.192    21412279.049
       245.000         209.000
  24635706.742     6492651.42149   5031044.90245  24635705.606    24635716.414
       214.000         149.000
  23566573.962    -1894008.82749  -1487562.91346  23566574.290    23566582.220
       219.000         164.000
  23763275.058    -5092921.25849  -3969408.99245  23763274.238    23763284.613
       216.000         150.000
 02  7 11 15 59 30.0000000  0 11G 6G18G17G15G30G29G26G23G10G22G21
  20440505.534     1277362.46349    737766.23347  20440505.433    20440511.551
       245.000         212.000
  21209007.102    -4159305.69349  -3243724.36847  21209006.400    21209012.596
       240.000         200.000
  20939579.796    -1454018.71649  -1144033.60447  20939579.111    20939585.733
       241.000         204.000
  21196825.333    -2504187.99949  -1960550.87647  21196824.634    21196831.566
       238.000         194.000
  24640227.861     6471211.50549   5010518.75145  24640229.414    24640238.895
       212.000         141.000
  22549538.281     -294720.13949   -421389.25546  22549538.240    22549545.032
       230.000         180.000
  21829613.428    -1703964.51449  -1335983.21546  21829613.243    21829620.605
       233.000         186.000
  21423338.463     3181235.22549   2132573.60647  21423337.592    21423344.679
       244.000         208.000
  24655696.842     6597700.37749   5112901.09045  24655696.516    24655705.669
       213.000         152.000
  23564595.370    -1904407.12849  -1495665.53045  23564593.861    23564603.366
       218.000         162.000
  23747576.297    -5175419.25149  -4033693.10645  23747575.695    23747586.897
       218.000         152.000
 02  7 11 16  0  0.0000000  0 11G 6G18G17G15G30G29G26G23G10G22G21
  20446583.304     1309301.07549    762653.41847  20446582.885    20446589.336
       245.000         212.000
  21197627.263    -4219106.66049  -3290322.50247  21197626.578    21197632.656
       240.000         200.000
  20935166.121    -1477212.83249  -1162106.95647  20935165.447    20935172.032
       241.000         204.000
  21189272.136    -2543880.94649  -1991480.45747  21189271.243    21189278.208
       237.000         194.000
  24659321.866     6571549.26949   5088703.86045  24659324.065    24659333.131
       214.000         143.000
  22550995.673     -287062.50349   -415422.29846  22550994.871    22551002.876
       228.000         181.000
  21827068.166    -1717340.35949  -1346405.99646  21827067.915    21827075.373
       233.000         186.000
  21434461.142     3239685.13249   2178118.95947  21434460.372    21434467.041
       243.000         207.000
  24675687.544     6702752.05449   5194759.44145  24675686.378    24675695.949
       212.000         148.000
  23562717.847    -1914274.18149  -1503354.19745  23562716.831    23562725.337
       220.000         162.000
  23731919.676    -5257696.05349  -4097804.85945  23731919.154    23731929.524
       217.000         155.000
 02  7 11 16  0 30.0000000  0 11G 6G18G17G15G30G29G26G23G10G22G21
  20452754.153     1341728.96149    787921.85047  20452753.873    20452760.389
       245.000         212.000
  21186325.560    -4278497.69849  -3336601.21947  21186324.853    21186330.550
       240.000         200.000
  20930780.710    -1500258.91749  -1180064.96747  20930780.142    20930786.547
       241.000         204.000
  21181751.148    -2583403.92449  -2022277.59747  21181750.169    21181757.411
       236.000         194.000
  24678397.825     6671791.91749   5166814.83645  24678397.911    24678409.132
       210.000         143.000
  22552555.855     -278863.52649   -409033.52746  22552556.010    22552563.217
       230.000         181.000
  21824642.045    -1730089.86949  -1356340.69946  21824642.115    21824649.246
       234.000         186.000
  21445639.871     3298429.65349   2223893.86347  21445639.303    21445645.962
       243.000         207.000
  24695677.859     6807803.33649   5276617.43745  24695675.430    24695688.141
       202.000         144.000
  23560940.998    -1923611.62149  -1510630.19045  23560939.751    23560948.629
       216.000         161.000
  23716304.952    -5339751.91949  -4161744.43645  23716304.674    23716314.656
       218.000         155.000
 02  7 11 16  1  0.0000000  0 11G 6G18G17G15G30G29G26G23G10G22G21
  20459018.548     1374648.17649    813573.13047  20459018.186    20459024.494
       245.000         212.000
  21175102.394    -4337475.79749  -3382558.15947  21175101.522    21175107.328
       241.000         200.000
  20926423.746    -1523154.80349  -1197905.94647  20926423.199    20926429.564
       241.000         204.000
  21174262.992    -2622754.48849  -2052940.38347  21174262.073    21174269.074
       237.000         194.000
  24697455.534     6771939.26449   5244851.52245  24697456.437    24697467.485
       208.000         142.000
  22554219.558     -270121.02649   -402221.23146  22554219.559    22554226.795
       230.000         181.000
  21822335.780    -1742209.94449  -1365784.95746  21822336.171    21822343.070
       236.000         187.000
  21456874.643     3357468.56849   2269898.16847  21456874.025    21456880.892
       243.000         206.000
  24715668.087     6912854.18549   5358475.11745  24715667.989    24715678.894
       204.000         142.000
  23559265.140    -1932417.88749  -1517492.30845  23559264.061    23559272.166
       213.000         159.000
  23700732.866    -5421583.91649  -4225509.57145  23700731.175    23700742.272
       216.000         154.000
 02  7 11 16  1 30.0000000  0 10G 6G18G17G15G30G29G26G23G22G21
  20465376.704     1408060.38349    839608.56147  20465376.365    20465382.707
       245.000         211.000
  21163958.291    -4396038.54549  -3428191.44447  21163957.787    21163963.370
       241.000         201.000
  20922095.801    -1545898.54049  -1215628.36247  20922095.245    20922101.653
       241.000         204.000
  21166807.969    -2661930.94849  -2083467.50747  21166806.745    21166814.337
       237.000         194.000
  24716494.876     6871990.25249   5322813.12745  24716495.956    24716504.500
       210.000         141.000
  22555987.050     -260833.36949   -394984.12446  22555986.805    22555994.514
       229.000         181.000
  21820149.865    -1753697.76549  -1374736.53246  21820149.845    21820156.600
       235.000         187.000
  21468165.290     3416801.38549   2316131.49447  21468164.419    21468171.754
       243.000         206.000
  23557690.819    -1940691.63549  -1523939.44945  23557690.900    23557698.590
       217.000         160.000
  23685203.807    -5503188.78749  -4289097.70645  23685203.065    23685212.253
       215.000         152.000
 02  7 11 16  2  0.0000000  0 10G 6G18G17G15G30G29G26G23G22G21
  20471828.259     1441963.26449    866026.34047  20471827.898    20471834.530
       245.000         212.000
  21152892.909    -4454187.58549  -3473502.34947  21152892.357    21152898.115
       241.000         200.000
  20917796.355    -1568492.44549  -1233234.01647  20917795.352    20917802.467
       241.000         204.000
  21159385.565    -2700935.34949  -2113860.55547  21159384.693    21159391.786
       237.000         194.000
  24735514.636     6971940.35849   5400696.18545  24735512.691    24735524.899
       205.000         139.000
  22557857.734     -251002.78349   -387323.96746  22557857.690    22557864.443
       229.000         179.000
  21818084.008    -1764554.75949  -1383196.54747  21818084.005    21818090.854
       236.000         188.000
  21479511.123     3476423.65649   2362590.36947  21479510.334    21479517.379
       243.000         206.000
  23556217.391    -1948435.48349  -1529973.68245  23556216.461    23556224.749
       214.000         158.000
  23669717.800    -5584568.13349  -4352510.09445  23669717.975    23669727.511
       219.000         153.000
 02  7 11 16  2 30.0000000  0 10G 6G18G17G15G30G29G26G23G22G21
  20478373.186     1476357.03949    892826.62847  20478372.877    20478379.569
       245.000         212.000
  21141906.433    -4511921.99049  -3518490.17947  21141905.713    21141911.453
       240.000         200.000
  20913525.420    -1590936.12749  -1250722.61647  20913524.718    20913531.676
       241.000         204.000
  21151996.145    -2739767.07949  -2144119.06047  21151995.288    21152002.546
       237.000         195.000
  24754514.128     7071786.82049   5478498.45045  24754512.008    24754523.458
       199.000         137.000
  22559831.842     -240628.90049   -379240.46446  22559831.733    22559838.745
       228.000         179.000
  21816138.507    -1774779.44549  -1391163.85947  21816138.442    21816145.399
       236.000         189.000
  21490911.580     3536333.30349   2409273.16947  21490911.052    21490917.584
       244.000         206.000
  23554844.736    -1955649.55649  -1535595.11545  23554843.921    23554852.800
       213.000         156.000
  23654275.021    -5665720.88149  -4415745.92445  23654274.377    23654285.195
       220.000         156.000
 02  7 11 16  3  0.0000000  0 10G 6G18G17G15G30G29G26G23G22G21
  20485011.488     1511241.43149    920009.22547  20485011.422    20485017.759
       246.000         212.000
  21130998.938    -4569241.12649  -3563154.42247  21130997.945    21131004.136
       240.000         200.000
  20909283.185    -1613229.44049  -1268094.04647  20909282.505    20909288.833
       241.000         204.000
  21144639.611    -2778426.22349  -2174243.06647  21144638.891    21144645.904
       237.000         195.000
  24773494.009     7171527.49949   5556218.24845  24773493.787    24773505.439
       206.000         136.000
  22561909.232     -229711.67549   -370733.57146  22561908.336    22561916.188
       228.000         179.000
  21814313.257    -1784371.03349  -1398637.84447  21814312.706    21814320.412
       235.000         188.000
  21502366.270     3596527.94549   2456178.04447  21502365.522    21502372.342
       243.000         206.000
  23553572.764    -1962334.38849  -1540804.15845  23553570.732    23553580.580
       207.000         155.000
  23638875.542    -5746646.08849  -4478804.44845  23638875.507    23638885.243
       220.000         158.000
 02  7 11 16  3 30.0000000  0 10G 6G18G17G15G30G29G26G23G22G21
  20491742.993     1546615.38849    947573.28248  20491742.902    20491749.171
       245.000         213.000
  21120170.433    -4626145.08849  -3607495.15247  21120169.831    21120175.953
       240.000         201.000
  20905069.457    -1635372.88949  -1285348.70647  20905068.982    20905075.066
       241.000         204.000
  21137315.749    -2816913.62349  -2204233.25647  21137315.411    21137321.799
       238.000         195.000
  24792453.837     7271159.02649   5633853.04845  24792456.140    24792466.514
       208.000         139.000
  22564090.022     -218251.92749   -361803.93846  22564089.836    22564096.562
       228.000         179.000
  21812608.483    -1793329.32849  -1405618.37846  21812607.786    21812615.051
       234.000         187.000
  21513874.696     3657004.79849   2503302.81647  21513874.225    21513880.648
       243.000         205.000
  23552400.853    -1968491.13049  -1545601.65345  23552398.724    23552409.833
       205.000         153.000
  23623519.392    -5827343.30849  -4541685.33645  23623517.709    23623529.839
       217.000         157.000
 02  7 11 16  4  0.0000000  0 10G 6G18G17G15G30G29G26G23G22G21
  20498567.777     1582479.36949    975519.18047  20498567.587    20498573.939
       246.000         212.000
  21109421.266    -4682632.39849  -3651511.22047  21109420.532    21109426.322
       240.000         201.000
  20900884.386    -1657365.79649  -1302486.04947  20900883.519    20900890.371
       240.000         205.000
  21130024.752    -2855228.46649  -2234088.99347  21130024.219    21130030.813
       238.000         195.000
  24811392.589     7370679.32549   5711401.16045  24811394.809    24811402.527
       209.000         143.000
  22566374.256     -206249.02149   -352451.07746  22566374.734    22566380.664
       229.000         179.000
  21811024.548    -1801652.63349  -1412104.10446  21811024.732    21811031.792
       234.000         187.000
  21525436.485     3717762.16149   2550646.16947  21525436.081    21525442.784
       244.000         205.000
  23551329.722    -1974119.58249  -1549987.54745  23551329.634    23551337.326
       205.000         151.000
  23608206.640    -5907811.23849  -4604387.55545  23608206.379    23608215.977
       216.000         156.000
 02  7 11 16  4 30.0000000  0 10G 6G18G17G15G30G29G26G23G22G21
  20505485.961     1618834.08749   1003847.47747  20505485.598    20505492.149
       245.000         212.000
  21098751.629    -4738701.55249  -3695201.46247  21098751.099    21098756.907
       240.000         202.000
  20896728.112    -1679207.05249  -1319505.22847  20896727.347    20896734.145
       240.000         205.000
  21122766.814    -2893369.38149  -2263809.19947  21122765.943    21122772.722
       238.000         196.000
  24830309.802     7470087.23049   5788861.68145  24830308.565    24830320.097
       209.000         139.000
  22568761.902     -193701.96849   -342674.18846  22568761.352    22568768.218
       228.000         179.000
  21809561.841    -1809339.36149  -1418093.78346  21809561.565    21809568.887
       234.000         187.000
  21537051.521     3778798.86249   2598207.17947  21537051.060    21537057.684
       243.000         206.000
  23550359.509    -1979219.28349  -1553961.38745  23550358.456    23550368.364
       206.000         148.000
  23592938.028    -5988047.74949  -4666909.41845  23592936.750    23592947.134
       215.000         155.000
 02  7 11 16  5  0.0000000  0  9G 6G18G17G15G29G26G23G22G21
  20512497.768     1655681.58849   1032559.76147  20512497.414    20512504.151
       245.000         211.000
  21088162.130    -4794349.93249  -3738563.81747  21088161.560    21088167.572
       241.000         202.000
  20892601.074    -1700894.50849  -1336404.56447  20892600.674    20892607.036
       240.000         205.000
  21115542.237    -2931334.28449  -2293392.25447  21115541.455    21115549.144
       238.000         197.000
  22571253.583     -180608.78549   -332471.74846  22571253.646    22571260.555
       230.000         180.000
  21808220.897    -1816386.36949  -1423584.98846  21808220.743    21808227.289
       235.000         187.000
  21548719.534     3840114.77649   2645985.76847  21548718.712    21548725.618
       243.000         206.000
  23549490.278    -1983788.70449  -1557522.02045  23549488.279    23549497.309
       206.000         148.000
  23577713.838    -6068050.15549  -4729248.85545  23577713.199    23577724.037
       217.000         154.000
 02  7 11 16  5 30.0000000  0  9G 6G18G17G15G29G26G23G22G21
  20519602.711     1693018.08449   1061653.08247  20519602.555    20519608.867
       245.000         211.000
  21077652.186    -4849580.15549  -3781600.34047  21077651.436    21077657.308
       240.000         202.000
  20888502.867    -1722431.15049  -1353186.39147  20888502.361    20888508.913
       241.000         205.000
  21108350.704    -2969126.29549  -2322840.58347  21108350.153    21108357.165
       240.000         197.000
  22573848.658     -166972.93249   -321846.44946  22573848.530    22573855.164
       230.000         180.000
  21807001.367    -1822796.27249  -1428579.74346  21807001.517    21807007.832
       235.000         187.000
  21560439.592     3901704.30749   2693977.56447  21560438.559    21560445.430
       243.000         205.000
  23548720.800    -1987831.56249  -1560672.37745  23548719.641    23548727.595
       204.000         146.000
  23562533.901    -6147820.91349  -4791407.77845  23562533.897    23562542.753
       218.000         155.000
 02  7 11 16  6  0.0000000  0  9G 6G18G17G15G29G26G23G22G21
  20526800.683     1730843.13749   1091127.09647  20526800.482    20526806.804
       246.000         211.000
  21067221.810    -4904391.92249  -3824310.79447  21067220.697    21067226.822
       239.000         201.000
  20884433.353    -1743817.09849  -1369850.78547  20884432.588    20884439.595
       241.000         205.000
  21101192.166    -3006745.31149  -2352154.10847  21101191.589    21101198.411
       240.000         198.000
  22576546.777     -152794.75349   -310798.57346  22576546.182    22576553.811
       228.000         180.000
  21805902.980    -1828568.46249  -1433077.56447  21805903.287    21805909.580
       235.000         188.000
  21572211.351     3963565.16749   2742180.77847  21572211.229    21572217.510
       243.000         205.000
  23548051.405    -1991348.73549  -1563413.08645  23548050.834    23548058.970
       208.000         145.000
  23547398.351    -6227358.92849  -4853385.36745  23547397.856    23547407.155
       218.000         156.000
 02  7 11 16  6 30.0000000  0  9G 6G18G17G15G29G26G23G22G21
  20534091.617     1769156.68949   1120981.76447  20534091.524    20534098.085
       246.000         212.000
  21056871.186    -4958784.43549  -3866694.55647  21056870.902    21056876.393
       241.000         202.000
  20880392.542    -1765051.97949  -1386397.47147  20880391.866    20880398.955
       241.000         206.000
  21094066.631    -3044191.13949  -2381332.68747  21094065.942    21094072.154
       240.000         198.000
  22579347.942     -138074.18549   -299328.04646  22579346.754    22579355.751
       228.000         180.000
  21804926.032    -1833701.90049  -1437077.66346  21804925.154    21804932.460
       234.000         187.000
  21584034.484     4025695.41949   2790593.91347  21584034.144    21584040.835
       243.000         206.000
  23547482.113    -1994340.65649  -1565744.52545  23547480.059    23547491.636
       208.000         146.000
  23532307.170    -6306663.55649  -4915181.08745  23532306.573    23532317.113
       219.000         156.000
 02  7 11 16  7  0.0000000  0  9G 6G18G17G15G29G26G23G22G21
  20541475.284     1807957.66649   1151216.22847  20541475.023    20541481.734
       245.000         212.000
  21046600.463    -5012757.78449  -3908751.69647  21046599.322    21046605.894
       240.000         202.000
  20876380.326    -1786136.19649  -1402826.76047  20876379.383    20876386.533
       240.000         206.000
  21086973.884    -3081464.11849  -2410376.56947  21086973.182    21086979.993
       240.000         198.000
  22582252.257     -122812.06449   -287435.53246  22582251.083    22582258.999
       228.000         180.000
  21804070.603    -1838196.65449  -1440580.08446  21804070.236    21804077.477
       234.000         187.000
  21595908.251     4088092.04949   2839214.61647  21595907.424    21595914.622
       242.000         206.000
  23547012.761    -1996808.46249  -1567667.53545  23547010.794    23547020.361
       207.000         148.000
  23517260.482    -6385733.98249  -4976794.32345  23517259.780    23517270.919
       220.000         158.000
 02  7 11 16  7 30.0000000  0  9G 6G18G17G15G29G26G23G22G21
  20548951.483     1847245.15349   1181829.80347  20548951.157    20548957.723
       246.000         212.000
  21036409.367    -5066312.04249  -3950482.25747  21036408.567    21036414.522
       241.000         202.000
  20872396.566    -1807070.31449  -1419139.07447  20872395.321    20872402.512
       240.000         205.000
  21079913.813    -3118564.81649  -2439286.20347  21079912.770    21079920.009
       239.000         199.000
  22585259.295     -107009.29149   -275121.72046  22585258.631    22585266.740
       228.000         179.000
  21803336.763    -1842052.68249  -1443584.81046  21803336.614    21803344.198
       233.000         187.000
  21607831.988     4150751.97249   2888040.48147  21607831.220    21607838.194
       242.000         205.000
  23546642.610    -1998753.59949  -1569183.32645  23546644.627    23546651.621
       216.000         150.000
  23502258.491    -6464570.13949  -5038225.03045  23502258.195    23502268.467
       221.000         159.000
 02  7 11 16  8  0.0000000  0  9G 6G18G17G15G29G26G23G22G21
  20556520.441     1887020.21049   1212823.29747  20556520.167    20556526.662
       244.000         211.000
  21026298.502    -5119445.20149  -3991884.70947  21026297.737    21026303.708
       241.000         203.000
  20868441.784    -1827852.63849  -1435333.10347  20868440.909    20868447.713
       241.000         205.000
  21072886.710    -3155491.78049  -2468060.46547  21072885.755    21072893.469
       240.000         199.000
  22588369.596      -90664.53349   -262385.58846  22588369.127    22588377.006
       228.000         179.000
  21802724.879    -1845267.79649  -1446090.10246  21802724.888    21802732.320
       234.000         187.000
  21619805.747     4213674.52649   2937070.99147  21619805.260    21619812.101
       242.000         205.000
  23546372.161    -2000175.36849  -1570291.23545  23546370.677    23546380.456
       215.000         150.000
  23487301.373    -6543170.09749  -5099471.67845  23487299.811    23487310.763
       220.000         160.000
 02  7 11 16  8 30.0000000  0  9G 6G18G17G15G29G26G23G22G21
  20564182.316     1927283.67949   1244197.37347  20564182.113    20564188.764
       245.000         210.000
  21016267.948    -5172155.78249  -4032957.86447  21016267.251    21016273.088
       241.000         203.000
  20864516.157    -1848481.88049  -1451407.84847  20864515.546    20864522.294
       241.000         205.000
  21065893.186    -3192243.51849  -2496698.19147  21065892.496    21065899.130
       241.000         199.000
  22591583.152      -73777.04849   -249226.53846  22591582.453    22591590.383
       228.000         179.000
  21802235.427    -1847840.41049  -1448094.76047  21802235.626    21802242.718
       235.000         188.000
  21631829.376     4276858.60149   2986305.27947  21631828.617    21631835.453
       242.000         205.000
  23546201.555    -2001073.01149  -1570990.77545  23546199.675    23546209.978
       214.000         152.000
  23472389.628    -6621531.67549  -5160532.56945  23472387.624    23472398.473
       218.000         158.000
 02  7 11 16  9  0.0000000  0  9G 6G18G17G15G29G26G23G22G21
  20571937.171     1968035.42749   1275951.92247  20571936.844    20571943.241
       245.000         210.000
  21006318.063    -5224442.87349  -4073701.04147  21006317.529    21006323.019
       241.000         203.000
  20860619.838    -1868957.34649  -1467362.76847  20860619.264    20860625.720
       241.000         205.000
  21058933.090    -3228819.57849  -2525199.03847  21058932.484    21058938.767
       240.000         200.000
  22594900.107      -56346.60249   -235644.40346  22594900.196    22594907.035
       229.000         180.000
  21801868.504    -1849769.37349  -1449597.86947  21801868.471    21801876.029
       234.000         188.000
  21643902.349     4340302.35549   3035741.91547  21643901.948    21643908.949
       242.000         205.000
  23546130.259    -2001447.18349  -1571282.42845  23546129.164    23546137.847
       219.000         153.000
  23457523.292    -6699653.55649  -5221406.67345  23457521.276    23457532.001
       217.000         154.000
 02  7 11 16  9 30.0000000  0  9G 6G18G17G15G29G26G23G22G21
  20579784.689     2009274.26749   1308086.01947  20579784.542    20579790.866
       245.000         210.000
  20996448.663    -5276306.86249  -4114114.52147  20996447.792    20996453.789
       241.000         203.000
  20856752.672    -1889279.86549  -1483198.50947  20856752.241    20856758.653
       241.000         205.000
  21052006.240    -3265220.52749  -2553563.42447  21052005.120    21052012.137
       240.000         200.000
  22598320.112      -38374.47449   -221640.16046  22598319.749    22598326.784
       230.000         179.000
  21801623.881    -1851055.16649  -1450599.80447  21801623.480    21801630.837
       235.000         188.000
  21656024.206     4404002.84049   3085378.59747  21656023.457    21656030.962
       242.000         205.000
  23546158.579    -2001299.17449  -1571167.15345  23546157.105    23546166.909
       220.000         153.000
  23442702.598    -6777535.63649  -5282093.93445  23442701.126    23442712.803
       219.000         154.000
 02  7 11 16 10  0.0000000  0  9G 6G18G17G15G29G26G23G22G21
  20587724.555     2050998.15949   1340598.07947  20587724.305    20587730.641
       245.000         210.000
  20986659.623    -5327748.51149  -4154198.90647  20986658.908    20986664.802
       240.000         203.000
  20852914.364    -1909450.63549  -1498916.00847  20852913.608    20852920.477
       241.000         205.000
  21045112.389    -3301447.54749  -2581792.27947  21045111.273    21045118.836
       240.000         200.000
  22601843.050      -19862.30249   -207215.11346  22601842.910    22601849.677
       229.000         179.000
  21801501.524    -1851698.48149  -1451101.10347  21801501.465    21801508.786
       235.000         188.000
  21668194.229     4467956.37549   3135212.46947  21668193.412    21668200.886
       242.000         205.000
  23546285.861    -2000631.42249  -1570646.92845  23546284.426    23546292.809
       221.000         153.000
  23427927.575    -6855178.84249  -5342595.06545  23427927.203    23427937.105
       220.000         156.000
 02  7 11 16 10 30.0000000  0  9G 6G18G17G15G29G26G23G22G21
  20595757.001     2093208.59449   1373489.26547  20595756.464    20595763.278
       243.000         210.000
  20976951.376    -5378765.58349  -4193952.45047  20976950.819    20976956.289
       242.000         203.000
  20849105.279    -1929467.51849  -1514513.60447  20849104.685    20849111.732
       241.000         205.000
  21038252.060    -3337498.65349  -2609884.06647  21038251.212    21038258.630
       240.000         200.000
  22605468.837        -808.61249   -192368.10546  22605468.270    22605475.302
       229.000         179.000
  21801501.824    -1851697.17049  -1451100.10447  21801501.884    21801508.698
       235.000         188.000
  21680412.356     4532162.59349   3185243.23447  21680411.394    21680418.722
       241.000         205.000
  23546512.182    -1999442.74249  -1569720.75745  23546510.650    23546519.657
       220.000         153.000
  23413198.598    -6932580.12649  -5402907.69945  23413197.501    23413208.343
       222.000         160.000
 02  7 11 16 11  0.0000000  0  9G 6G18G17G15G29G26G23G22G21
  20603881.608     2135903.94249   1406758.30147  20603881.290    20603888.163
       244.000         210.000
  20967323.780    -5429359.07649  -4233375.93547  20967323.104    20967328.753
       241.000         203.000
  20845325.381    -1949331.52749  -1529992.07747  20845324.812    20845331.529
       241.000         205.000
  21031425.093    -3373374.64249  -2637839.39047  21031423.888    21031430.954
       240.000         200.000
  22609197.419       18785.04349   -177100.33446  22609197.238    22609205.109
       231.000         180.000
  21801624.506    -1851051.79449  -1450597.22147  21801623.900    21801631.513
       233.000         188.000
  21692677.757     4596618.10949   3235468.25447  21692677.402    21692683.889
       242.000         205.000
  23546837.113    -1997735.10149  -1568390.21145  23546836.344    23546844.838
       220.000         154.000
  23398515.493    -7009740.46349  -5463032.56145  23398514.865    23398525.328
       220.000         161.000
 02  7 11 16 11 30.0000000  0  9G 6G18G17G15G29G26G23G22G21
  20612098.889     2179085.59449   1440406.28647  20612098.841    20612105.307
       245.000         210.000
  20957777.202    -5479526.70249  -4272467.56647  20957776.783    20957782.672
       242.000         204.000
  20841574.931    -1969040.58949  -1545349.80647  20841574.288    20841581.081
       241.000         205.000
  21024631.869    -3409073.40549  -2665656.60647  21024630.921    21024637.887
       240.000         200.000
  22613029.151       38920.05949   -161410.74546  22613029.156    22613035.863
       230.000         180.000
  21801870.213    -1849760.09849  -1449590.72947  21801870.029    21801877.242
       233.000         188.000
  21704990.689     4661322.49549   3285887.21647  21704990.088    21704996.776
       242.000         205.000
  23547260.914    -1995507.53649  -1566654.53245  23547259.441    23547268.203
       220.000         153.000
  23383878.634    -7086657.00649  -5522967.45545  23383878.128    23383888.435
       219.000         161.000
 02  7 11 16 12  0.0000000  0  9G 6G18G17G15G29G26G23G22G21
  20620408.239     2222751.21349   1474431.38747  20620408.039    20620414.808
       245.000         210.000
  20948311.437    -5529269.61449  -4311228.26247  20948310.926    20948316.519
       241.000         205.000
  20837853.610    -1988596.11749  -1560587.90147  20837852.845    20837860.056
       241.000         205.000
  21017872.056    -3444596.55149  -2693336.97847  21017871.231    21017878.370
       240.000         200.000
  22616963.337       59594.40849   -145300.89046  22616963.212    22616970.952
       227.000         179.000
  21802238.525    -1847823.54149  -1448081.73246  21802238.324    21802246.074
       233.000         187.000
  21717350.143     4726271.82349   3336497.04047  21717349.362    21717356.679
       242.000         205.000
  23547783.328    -1992762.57149  -1564515.68445  23547782.819    23547791.628
       221.000         154.000
  23369287.964    -7163330.60949  -5582713.07245  23369287.469    23369297.848
       217.000         159.000
 02  7 11 16 12 30.0000000  0  9G 6G18G17G15G29G26G23G22G21
  20628810.009     2266902.28949   1508834.75647  20628809.902    20628816.554
       245.000         210.000
  20938926.925    -5578585.54449  -4349656.24147  20938926.283    20938932.102
       241.000         205.000
  20834161.971    -2007995.76549  -1575704.52647  20834161.380    20834168.198
       241.000         206.000
  21011146.062    -3479941.83249  -2720878.75247  21011144.787    21011152.495
       240.000         200.000
  22621000.300       80809.54849   -128769.63946  22620999.978    22621007.775
       229.000         179.000
  21802730.249    -1845239.53849  -1446068.23846  21802730.284    21802737.924
       233.000         187.000
  21729756.245     4791465.96349   3387297.61647  21729755.433    21729763.043
       241.000         205.000
  23548404.472    -1989499.08049  -1561972.78245  23548403.929    23548412.227
       217.000         154.000
  23354744.132    -7239758.60449  -5642267.31445  23354742.648    23354754.312
       220.000         158.000
 02  7 11 16 13  0.0000000  0  9G 6G18G17G15G29G26G23G22G21
  20637303.731     2311536.57849   1543614.65647  20637303.502    20637310.282
       245.000         210.000
  20929623.441    -5627475.78449  -4387752.51547  20929623.003    20929628.694
       241.000         205.000
  20830499.722    -2027241.35449  -1590701.10547  20830499.056    20830505.919
       242.000         206.000
  21004453.514    -3515110.78149  -2748283.12247  21004452.400    21004459.628
       240.000         200.000
  22625140.076      102563.27449   -111818.70846  22625139.452    22625147.598
       228.000         179.000
  21803344.975    -1842009.65949  -1443551.45247  21803345.638    21803352.220
       234.000         188.000
  21742208.168     4856900.91249   3438285.83747  21742207.823    21742214.933
       242.000         205.000
  23549123.558    -1985719.65249  -1559027.83045  23549122.532    23549131.876
       217.000         154.000
  23340246.884    -7315942.20849  -5701631.11245  23340246.304    23340256.300
       221.000         159.000
 02  7 11 16 13 30.0000000  0  9G 6G18G17G15G29G26G23G22G21
  20645889.066     2356652.69449   1578769.99947  20645888.569    20645895.472
       244.000         209.000
  20920400.885    -5675940.71949  -4425517.37247  20920400.068    20920406.218
       241.000         205.000
  20826866.789    -2046332.99849  -1605577.72247  20826866.081    20826872.729
       242.000         206.000
  20997794.504    -3550103.99649  -2775550.55947  20997793.650    20997800.474
       241.000         200.000
  22629381.855      124854.35149    -94449.05346  22629381.905    22629388.475
       230.000         179.000
  21804082.556    -1838134.33749  -1440531.73247  21804082.528    21804090.426
       234.000         188.000
  21754705.333     4922573.53449   3489459.25847  21754704.581    21754711.421
       242.000         204.000
  23549940.531    -1981426.15149  -1555682.34145  23549939.766    23549949.594
       215.000         153.000
  23325796.344    -7391880.96249  -5760804.12345  23325796.997    23325806.030
       222.000         162.000
 02  7 11 16 14  0.0000000  0  9G 6G18G17G15G29G26G23G22G21
  20654566.320     2402251.93549   1614301.81547  20654565.822    20654572.570
       243.000         208.000
  20911259.604    -5723978.32749  -4462949.25147  20911259.007    20911264.678
       242.000         205.000
  20823263.458    -2065268.83949  -1620332.93447  20823262.575    20823269.471
       241.000         206.000
  20991169.421    -3584919.43849  -2802679.47547  20991168.896    20991175.432
       241.000         201.000
  22633726.459      147684.36049    -76659.46246  22633726.167    22633733.603
       230.000         179.000
  21804943.297    -1833611.40049  -1437007.36147  21804943.352    21804950.576
       233.000         188.000
  21767247.617     4988483.54249   3540817.67247  21767246.789    21767253.586
       242.000         204.000
  23550855.732    -1976617.52949  -1551935.43145  23550854.373    23550864.179
       211.000         152.000
  23311392.927    -7467572.48749  -5819784.46646  23311392.569    23311402.708
       223.000         164.000
 02  7 11 16 14 30.0000000  0  9G 6G18G17G15G29G26G23G22G21
  20663334.770     2448330.50249   1650207.12847  20663334.541    20663341.442
       243.000         208.000
  20902199.179    -5771591.28049  -4500050.23947  20902198.319    20902204.301
       241.000         206.000
  20819689.122    -2084051.68549  -1634968.92647  20819688.180    20819694.894
       241.000         206.000
  20984577.621    -3619559.84349  -2829671.99347  20984576.610    20984583.622
       242.000         201.000
  22638172.712      171049.50349    -58452.86246  22638172.150    22638179.705
       229.000         179.000
  21805926.720    -1828443.64449  -1432980.53947  21805926.461    21805933.740
       233.000         188.000
  21779834.119     5054625.71849   3592357.00047  21779833.515    21779840.242
       242.000         204.000
  23551868.078    -1971297.78249  -1547790.25645  23551866.472    23551876.201
       207.000         151.000
  23297035.975    -7543019.13349  -5878574.00346  23297035.358    23297045.157
       223.000         165.000
 02  7 11 16 15  0.0000000  0  9G 6G18G17G15G29G26G23G22G21
  20672194.991     2494890.86049   1686487.86347  20672194.697    20672201.468
       244.000         209.000
  20893220.110    -5818776.26949  -4536817.73647  20893219.505    20893225.377
       242.000         206.000
  20816144.633    -2102678.24749  -1649483.15247  20816144.153    20816150.569
       242.000         206.000
  20978019.701    -3654021.63549  -2856525.33647  20978018.980    20978026.188
       242.000         201.000
  22642721.173      194952.26149    -39827.36046  22642720.661    22642728.257
       229.000         178.000
  21807033.447    -1822627.89849  -1428448.78446  21807033.115    21807040.905
       233.000         187.000
  21792464.932     5121000.87749   3644077.86947  21792464.131    21792471.358
       242.000         203.000
  23552977.998    -1965464.92649  -1543245.23845  23552979.002    23552985.057
       210.000         149.000
  23282726.243    -7618216.95949  -5937169.64846  23282725.425    23282735.053
       221.000         164.000
 02  7 11 16 15 30.0000000  0  9G 6G18G17G15G29G26G23G22G21
  20681146.941     2541933.29749   1723144.23947  20681146.680    20681153.503
       244.000         209.000
  20884322.808    -5865531.99349  -4573250.74847  20884322.115    20884327.851
       242.000         206.000
  20812630.114    -2121147.16749  -1663874.53147  20812629.267    20812636.095
       241.000         206.000
  20971495.983    -3688303.86049  -2883238.75447  20971495.076    20971502.177
       242.000         202.000
  22647372.067      219392.95149    -20782.67746  22647371.941    22647379.240
       229.000         177.000
  21808263.708    -1816163.01249  -1423411.19747  21808263.913    21808270.986
       233.000         188.000
  21805139.807     5187607.64149   3695979.20847  21805139.056    21805146.325
       241.000         203.000
  23554185.597    -1959119.11249  -1538300.50245  23554184.617    23554192.612
       207.000         148.000
  23268464.106    -7693164.39349  -5995570.19845  23268463.068    23268473.781
       220.000         162.000
 02  7 11 16 16  0.0000000  0  9G 6G18G17G15G29G26G23G22G21
  20690190.295     2589456.01249   1760174.85847  20690190.249    20690196.856
       244.000         209.000
  20875507.029    -5911859.24649  -4609349.87647  20875506.538    20875512.129
       241.000         206.000
  20809145.375    -2139459.18449  -1678143.65047  20809144.539    20809151.300
       241.000         206.000
  20965006.360    -3722407.44849  -2909812.98947  20965005.888    20965012.616
       242.000         202.000
  22652125.089      244370.01249     -1320.05546  22652124.700    22652131.862
       229.000         178.000
  21809617.333    -1809049.95549  -1417868.55447  21809616.786    21809624.460
       233.000         188.000
  21817858.102     5254442.84349   3748058.55447  21817857.122    21817865.022
       241.000         203.000
  23555490.269    -1952262.19249  -1532957.50745  23555489.134    23555499.702
       204.000         146.000
  23254249.581    -7767861.59449  -6053775.75045  23254248.619    23254259.708
       223.000         162.000
 02  7 11 16 16 30.0000000  0  9G 6G18G17G15G29G26G23G22G21
  20699325.312     2637460.54949   1797580.92947  20699325.075    20699332.008
       244.000         209.000
  20866773.230    -5957755.66049  -4645113.28947  20866772.624    20866778.282
       242.000         206.000
  20805690.965    -2157612.08549  -1692288.78547  20805690.390    20805696.801
       241.000         206.000
  20958551.238    -3756329.92549  -2936246.08747  20958550.038    20958556.813
       242.000         201.000
  22656980.332      269884.71949     18561.52346  22656979.450    22656987.519
       228.000         177.000
  21811094.627    -1801286.41249  -1411819.02547  21811094.673    21811102.024
       233.000         188.000
  21830619.795     5321506.33249   3800315.78047  21830618.927    21830626.283
       240.000         202.000
  23556892.587    -1944893.28649  -1527215.54245  23556892.733    23556901.324
       206.000         146.000
  23240083.256    -7842306.00749  -6111784.31946  23240083.335    23240091.885
       225.000         165.000
 02  7 11 16 17  0.0000000  0  9G 6G18G17G15G29G26G23G22G21
  20708551.332     2685943.16349   1835359.52247  20708551.068    20708557.787
       244.000         209.000
  20858120.879    -6003224.19649  -4680543.30247  20858120.134    20858126.263
       242.000         206.000
  20802266.356    -2175608.51849  -1706311.98847  20802265.891    20802272.364
       241.000         206.000
  20952129.811    -3790074.07349  -2962540.22147  20952128.603    20952135.622
       241.000         201.000
  22661937.276      295933.50449     38859.27846  22661936.818    22661944.447
       228.000         178.000
  21812695.091    -1792875.39449  -1405264.98147  21812695.175    21812701.904
       234.000         189.000
  21843423.954     5388792.99049   3852746.89847  21843423.213    21843430.387
       241.000         202.000
  23558391.693    -1937016.57249  -1521077.89245  23558390.046    23558400.101
       209.000         148.000
  23225964.662    -7916500.31949  -6169597.99446  23225963.320    23225974.505
       224.000         167.000
 02  7 11 16 17 30.0000000  0  9G 6G18G17G15G29G26G23G22G21
  20717868.130     2734902.89749   1873509.89847  20717867.719    20717874.734
       243.000         208.000
  20849549.942    -6048264.85249  -4715639.89647  20849549.367    20849554.939
       243.000         206.000
  20798871.483    -2193448.66149  -1720213.40747  20798870.651    20798877.875
       241.000         205.000
  20945742.354    -3823639.97949  -2988695.46747  20945741.525    20945748.628
       242.000         201.000
  22666995.683      322515.45049     59572.46546  22666995.935    22667002.490
       228.000         178.000
  21814418.955    -1783817.08049  -1398206.55347  21814418.742    21814426.732
       235.000         189.000
  21856270.274     5456300.30849   3905349.96447  21856269.559    21856276.628
       241.000         202.000
  23559986.940    -1928633.36749  -1514545.57845  23559986.860    23559995.644
       210.000         150.000
  23211893.638    -7990443.97849  -6227216.36046  23211892.831    23211902.773
       225.000         168.000
 02  7 11 16 18  0.0000000  0 10G 6G 2G18G17G15G29G26G23G22G21
  20727275.161     2784337.31649   1912030.15847  20727274.936    20727281.802
       244.000         207.000
  25162615.038     3298593.64949   2565656.19044  25162612.226    25162622.477
       199.000         126.000
  20841060.082    -6092879.01749  -4750404.15947  20841059.245    20841065.155
       242.000         206.000
  20795506.112    -2211133.72949  -1733993.98747  20795505.181    20795512.244
       241.000         206.000
  20939388.759    -3857029.07749  -3014712.94947  20939388.173    20939394.857
       242.000         201.000
  22672155.113      349628.16049     80699.23346  22672155.124    22672163.011
       228.000         179.000
  21816265.564    -1774113.27349  -1390645.14547  21816265.464    21816272.435
       234.000         189.000
  21869157.793     5524024.47749   3958122.00047  21869157.487    21869164.427
       241.000         202.000
  23561678.284    -1919746.38849  -1507620.73045  23561676.940    23561686.573
       210.000         152.000
  23197870.165    -8064137.78149  -6284640.03646  23197869.679    23197878.693
       224.000         167.000
 02  7 11 16 18 30.0000000  0 10G 6G 2G18G17G15G29G26G23G22G21
  20736772.804     2834247.40649   1950921.06647  20736772.721    20736779.467
       244.000         208.000
  25155385.188     3260601.51749   2536051.85644  25155387.198    25155395.374
       200.000         126.000
  20832651.835    -6137064.43549  -4784834.33947  20832651.266    20832656.833
       243.000         207.000
  20792170.658    -2228661.52949  -1747652.02747  20792169.900    20792177.134
       242.000         206.000
  20933069.186    -3890239.21249  -3040590.97747  20933068.398    20933075.267
       242.000         202.000
  22677415.675      377272.72549    102240.45146  22677415.042    22677423.351
       228.000         179.000
  21818235.346    -1763762.07149  -1382579.27647  21818235.490    21818242.364
       234.000         189.000
  21882086.550     5591965.09249   4011062.69947  21882085.977    21882093.173
       240.000         201.000
  23563465.557    -1910355.06149  -1500302.88145  23563465.322    23563474.713
       214.000         154.000
  23183894.587    -8137579.70349  -6341867.45046  23183893.355    23183902.827
       225.000         166.000
 02  7 11 16 19  0.0000000  0 10G 6G 2G18G17G15G29G26G23G22G21
  20746361.296     2884634.82149   1990183.92547  20746360.923    20746367.950
       244.000         208.000
  25148234.329     3223024.78448   2506771.23444  25148232.081    25148242.249
       193.000         127.000
  20824325.650    -6180819.12049  -4818928.87447  20824324.830    20824330.983
       242.000         207.000
  20788865.647    -2246029.61749  -1761185.62047  20788865.048    20788871.936
       243.000         206.000
  20926784.053    -3923267.69049  -3066327.44847  20926783.010    20926790.194
       241.000         202.000
  22682777.660      405450.62149    124197.23446  22682777.550    22682785.518
       229.000         179.000
  21820328.751    -1752761.31749  -1374007.26647  21820328.041    21820335.573
       233.000         189.000
  21895056.488     5660122.19849   4064172.09547  21895056.138    21895063.091
       241.000         201.000
  23565349.134    -1900458.33649  -1492591.22545  23565348.439    23565357.029
       217.000         156.000
  23169967.410    -8210766.86249  -6398896.34746  23169965.687    23169975.818
       223.000         164.000
 02  7 11 16 19 30.0000000  0 10G 6G 2G18G17G15G29G26G23G22G21
  20756040.493     2935499.12649   2029818.38147  20756040.202    20756047.419
       245.000         209.000
  25141162.667     3185864.52749   2477815.14344  25141163.515    25141174.630
       205.000         129.000
  20816081.466    -6224142.25349  -4852687.13547  20816080.657    20816086.490
       242.000         207.000
  20785591.231    -2263237.02649  -1774593.99447  20785590.535    20785597.757
       243.000         207.000
  20920533.566    -3956113.89949  -3091921.89647  20920532.337    20920539.636
       241.000         202.000
  22688241.148      434161.54649    146569.37146  22688240.428    22688249.189
       227.000         180.000
  21822545.629    -1741110.53349  -1364928.74946  21822544.857    21822552.802
       232.000         187.000
  21908067.359     5728494.25449   4117448.98747  21908066.801    21908073.922
       241.000         201.000
  23567328.572    -1890056.72549  -1484486.13345  23567327.369    23567337.843
       218.000         157.000
  23156088.832    -8283698.18149  -6455725.87546  23156088.144    23156098.175
       223.000         163.000
 02  7 11 16 20  0.0000000  0 10G 6G 2G18G17G15G29G26G23G22G21
  20765809.930     2986837.59649   2069822.32547  20765809.689    20765816.624
       244.000         208.000
  25134170.771     3149119.56249   2449182.62144  25134169.117    25134179.583
       199.000         130.000
  20807919.180    -6267035.45349  -4886110.38447  20807918.688    20807924.312
       243.000         207.000
  20782347.044    -2280285.36149  -1787878.41347  20782346.241    20782353.476
       243.000         207.000
  20914317.490    -3988779.26049  -3117375.41047  20914316.530    20914323.776
       242.000         201.000
  22693805.486      463403.01249    169354.91146  22693804.936    22693813.061
       227.000         179.000
  21824885.925    -1728811.57549  -1355345.16946  21824885.426    21824894.144
       233.000         187.000
  21921118.318     5797077.19449   4170890.20247  21921117.606    21921124.655
       240.000         200.000
  23569403.347    -1879153.43849  -1475990.15845  23569402.862    23569410.659
       218.000         157.000
  23142258.901    -8356374.46349  -6512356.64246  23142258.088    23142268.973
       224.000         164.000
 02  7 11 16 20 30.0000000  0 10G 6G 2G18G17G15G29G26G23G22G21
  20775669.379     3038649.22649   2110194.96247  20775668.964    20775676.104
       243.000         207.000
  25127257.454     3112790.41349   2420874.15845  25127257.671    25127267.008
       200.000         132.000
  20799838.600    -6309499.07449  -4919198.89947  20799838.202    20799843.695
       242.000         207.000
  20779133.192    -2297174.42349  -1801038.73047  20779132.376    20779139.488
       242.000         207.000
  20908135.945    -4021263.60049  -3142687.87647  20908135.409    20908142.119
       242.000         201.000
  22699470.844      493174.01349    192553.07846  22699470.713    22699478.683
       227.000         179.000
  21827349.506    -1715864.90249  -1345256.87546  21827349.450    21827356.619
       232.000         187.000
  21934208.917     5865868.42049   4224493.71347  21934208.014    21934214.921
       240.000         200.000
  23571573.538    -1867749.70949  -1467104.21645  23571573.449    23571583.437
       220.000         157.000
  23128477.587    -8428795.75249  -6568788.72046  23128476.989    23128486.179
       225.000         165.000
 02  7 11 16 21  0.0000000  0 10G 6G 2G18G17G15G29G26G23G22G21
  20785619.246     3090936.07449   2150937.88847  20785619.105    20785626.204
       244.000         207.000
  25120424.185     3076880.58749   2392892.40545  25120423.003    25120435.321
       200.000         132.000
  20791840.444    -6351529.83749  -4951950.12447  20791839.619    20791845.467
       242.000         207.000
  20775950.259    -2313900.97949  -1814072.41447  20775949.479    20775956.523
       242.000         207.000
  20901989.516    -4053563.91849  -3167856.94747  20901988.435    20901995.569
       242.000         202.000
  22705237.196      523476.51149    216165.40546  22705236.472    22705245.036
       228.000         178.000
  21829937.132    -1702267.70649  -1334661.67546  21829936.599    21829944.980
       232.000         187.000
  21947339.332     5934868.82549   4278260.22047  21947338.744    21947345.468
       240.000         199.000
  23573839.231    -1855844.14349  -1457827.22045  23573837.722    23573848.171
       218.000         157.000
  23114745.569    -8500958.12349  -6625019.07446  23114745.085    23114754.437
       224.000         166.000
 02  7 11 16 21 30.0000000  0 10G 6G 2G18G17G15G29G26G23G22G21
  20795658.490     3143692.02149   2192046.34147  20795658.525    20795665.011
       246.000         207.000
  25113669.817     3041385.61549   2365233.92944  25113668.439    25113678.968
       196.000         130.000
  20783923.606    -6393132.84349  -4984368.03647  20783923.000    20783928.751
       244.000         207.000
  20772797.355    -2330469.82549  -1826983.20947  20772796.802    20772803.561
       243.000         206.000
  20895877.013    -4085685.02249  -3192886.37747  20895876.116    20895882.995
       243.000         202.000
  22711103.709      554304.64149    240187.30546  22711103.710    22711110.207
       229.000         178.000
  21832647.467    -1688025.25149  -1323563.67647  21832647.353    21832654.129
       234.000         188.000
  21960508.070     6004071.10149   4332184.03047  21960506.947    21960514.465
       238.000         198.000
  23576199.149    -1843442.83949  -1448163.98345  23576198.437    23576208.476
       221.000         155.000
  23101062.040    -8572865.93049  -6681051.06946  23101061.028    23101070.501
       226.000         166.000
 02  7 11 16 22  0.0000000  0 10G 6G 2G18G17G15G29G26G23G22G21
  20805787.457     3196919.58249   2233522.28547  20805787.313    20805794.124
       245.000         207.000
  25106994.827     3006309.44349   2337901.76444  25106993.920    25107005.501
       201.000         131.000
  20776088.908    -6434304.50249  -5016449.83647  20776088.133    20776093.805
       243.000         207.000
  20769675.224    -2346877.05049  -1839768.06147  20769674.434    20769681.433
       243.000         206.000
  20889799.354    -4117623.11649  -3217773.19447  20889798.483    20889805.594
       243.000         202.000
  22717070.671      585660.95349    264620.78546  22717070.809    22717077.651
       229.000         178.000
  21835481.214    -1673134.41649  -1311960.44846  21835480.961    21835488.007
       233.000         187.000
  21973715.376     6073476.40349   4386266.04047  21973714.874    21973721.793
       239.000         197.000
  23578653.739    -1830543.89249  -1438112.93845  23578653.528    23578663.274
       220.000         153.000
  23087427.578    -8644515.27649  -6736881.67046  23087426.317    23087437.423
       224.000         166.000
 02  7 11 16 22 30.0000000  0 10G 6G 2G18G17G15G29G26G23G22G21
  20816005.941     3250617.77149   2275364.94647  20816005.709    20816012.747
       245.000         207.000
  25100400.090     2971652.53249   2310896.31244  25100398.336    25100409.306
       196.000         131.000
  20768336.207    -6475045.09949  -5048195.74447  20768335.501    20768341.162
       243.000         207.000
  20766583.810    -2363122.63649  -1852426.97147  20766583.004    20766589.970
       243.000         206.000
  20883756.606    -4149377.92649  -3242517.19647  20883755.657    20883762.914
       243.000         202.000
  22723137.980      617544.32649    289464.95746  22723137.949    22723144.950
       229.000         177.000
  21838438.203    -1657595.66349  -1299852.36147  21838437.694    21838445.336
       234.000         188.000
  21986961.064     6143082.64349   4440504.62147  21986960.424    21986967.691
       238.000         197.000
  23581202.910    -1817148.73749  -1427675.27145  23581202.064    23581211.461
       216.000         151.000
  23073842.239    -8715906.26249  -6792510.93746  23073841.582    23073851.218
       222.000         165.000
 02  7 11 16 23  0.0000000  0 10G 6G 2G18G17G15G29G26G23G22G21
  20826313.666     3304784.95349   2317573.06647  20826313.473    20826320.546
       244.000         207.000
  25093884.586     2937414.80449   2284217.46944  25093884.535    25093896.139
       200.000         131.000
  20760665.462    -6515355.14049  -5079606.14647  20760664.711    20760670.519
       243.000         208.000
  20763523.103    -2379206.93649  -1864960.21047  20763522.363    20763529.566
       243.000         206.000
  20877748.645    -4180949.77049  -3267118.62847  20877747.876    20877754.875
       244.000         202.000
  22729305.284      649953.14449    314718.56646  22729304.500    22729312.416
       227.000         177.000
  21841518.244    -1641409.99349  -1287240.16147  21841517.972    21841525.533
       234.000         188.000
  22000244.367     6212886.74549   4494897.38147  22000243.778    22000250.948
       238.000         197.000
  23583845.966    -1803259.50449  -1416852.56245  23583844.644    23583855.011
       217.000         148.000
  23060306.144    -8787038.69449  -6847938.71246  23060305.383    23060314.754
       225.000         165.000
 02  7 11 16 23 30.0000000  0 10G 6G 2G18G17G15G29G26G23G22G21
  20836710.631     3359421.40949   2360146.85647  20836710.096    20836717.490
       244.000         206.000
  25087449.869     2903597.99549   2257866.64644  25087448.141    25087460.538
       198.000         131.000
  20753076.914    -6555233.32249  -5110680.04747  20753076.214    20753082.046
       244.000         208.000
  20760493.386    -2395128.24149  -1877366.43347  20760492.750    20760499.499
       243.000         207.000
  20871775.854    -4212337.17749  -3291576.34347  20871774.991    20871782.567
       243.000         203.000
  22735572.585      682887.72149    340381.84646  22735572.501    22735578.646
       229.000         177.000
  21844721.632    -1624576.49049  -1274123.17147  21844721.824    21844729.192
       234.000         188.000
  22013565.157     6282887.91349   4549443.69247  22013564.606    22013571.949
       238.000         196.000
  23586583.121    -1788876.17149  -1405644.88845  23586583.308    23586592.639
       214.000         148.000
  23046819.567    -8857910.93449  -6903163.72746  23046818.350    23046827.813
       226.000         166.000
 02  7 11 16 24  0.0000000  0 10G 6G 2G18G17G15G29G26G23G22G21
  20847196.362     3414524.40149   2403084.18547  20847196.116    20847203.370
       245.000         207.000
  25081094.555     2870200.65149   2231842.70144  25081093.530    25081103.247
       197.000         130.000
  20745570.188    -6594681.36049  -5141418.76847  20745569.591    20745575.228
       244.000         208.000
  20757494.418    -2410888.05749  -1889646.82547  20757493.716    20757500.518
       244.000         207.000
  20865837.792    -4243541.63649  -3315891.50647  20865836.612    20865844.016
       241.000         203.000
  22741939.510      716345.34749    366452.70646  22741938.683    22741946.379
       228.000         177.000
  21848047.817    -1607097.19649  -1260502.95547  21848047.721    21848055.751
       233.000         188.000
  22026922.758     6353082.13049   4604140.43247  22026922.069    22026929.341
       238.000         196.000
  23589413.708    -1774001.86449  -1394054.59745  23589412.210    23589423.100
       211.000         145.000
  23033382.247    -8928524.20349  -6958186.96646  23033381.472    23033390.002
       227.000         167.000
 02  7 11 16 24 30.0000000  0 10G 6G 2G18G17G15G29G26G23G22G21
  20857770.893     3470093.49449   2446384.69747  20857770.906    20857778.007
       243.000         207.000
  25074819.702     2837224.02149   2206146.56444  25074819.144    25074828.452
       203.000         130.000
  20738145.457    -6633698.71449  -5171821.87447  20738144.811    20738150.448
       243.000         208.000
  20754526.389    -2426485.32849  -1901800.56247  20754525.621    20754532.501
       244.000         207.000
  20859934.726    -4274562.12549  -3340063.30847  20859933.549    20859940.980
       242.000         203.000
  22748405.648      750325.47549    392930.71146  22748405.267    22748412.161
       230.000         178.000
  21851496.902    -1588971.88149  -1246379.34547  21851496.714    21851504.793
       234.000         188.000
  22040316.769     6423467.91349   4658986.45347  22040315.957    22040323.108
       239.000         196.000
  23592337.263    -1758637.54949  -1382082.48645  23592335.606    23592346.216
       210.000         144.000
  23019994.427    -8998877.41049  -7013007.57046  23019993.250    23020003.958
       226.000         168.000
 02  7 11 16 25  0.0000000  0 10G 6G 2G18G17G15G29G26G23G22G21
  20868434.344     3526129.68049   2490049.17347  20868434.254    20868440.848
       243.000         206.000
  25068624.885     2804670.57049   2180780.16744  25068625.612    25068634.962
       204.000         130.000
  20730803.074    -6672283.36449  -5201887.81547  20730802.264    20730807.893
       243.000         208.000
  20751589.705    -2441917.78549  -1913825.87647  20751588.974    20751596.113
       244.000         207.000
  20854067.137    -4305396.38249  -3364089.99547  20854066.610    20854073.727
       242.000         204.000
  22754971.605      784829.31049    419816.79846  22754971.021    22754978.091
       228.000         178.000
  21855069.148    -1570199.13649  -1231751.24447  21855068.891    21855077.373
       234.000         188.000
  22053747.148     6494045.09349   4713981.60847  22053746.269    22053753.729
       238.000         196.000
  23595354.443    -1742782.57749  -1369728.02545  23595353.227    23595363.575
       208.000         143.000
  23006656.507    -9068968.05649  -7067623.58846  23006655.214    23006665.702
       225.000         168.000
 02  7 11 16 25 30.0000000  0 10G 6G 2G18G17G15G29G26G23G22G21
  20879186.073     3582629.77449   2534075.15147  20879185.890    20879192.957
       243.000         206.000
  25062510.477     2772538.49749   2155742.12944  25062508.077    25062519.972
       204.000         128.000
  20723542.450    -6710437.73649  -5231618.47247  20723541.741    20723547.389
       243.000         207.000
  20748684.107    -2457186.81949  -1925723.83947  20748683.235    20748690.493
       243.000         207.000
  20848234.765    -4336046.15449  -3387972.93347  20848234.058    20848241.037
       243.000         204.000
  22761636.442      819853.62049    447108.45646  22761635.917    22761643.624
       229.000         178.000
  21858764.362    -1550781.43849  -1216620.58446  21858764.702    21858771.719
       234.000         187.000
  22067213.153     6564809.52849   4769122.67047  22067212.826    22067219.950
       238.000         195.000
  23598464.373    -1726440.51349  -1356994.02445  23598463.154    23598474.548
       208.000         144.000
  22993368.294    -9138797.48949  -7122036.04646  22993367.933    22993377.372
       225.000         169.000
 02  7 11 16 26  0.0000000  0 10G 6G 2G18G17G15G29G26G23G22G21
  20890025.768     3639592.59049   2578461.67847  20890025.157    20890032.870
       241.000         205.000
  25056476.149     2740828.15849   2131032.69844  25056474.574    25056484.850
       199.000         126.000
  20716363.789    -6748161.66849  -5261013.72947  20716362.820    20716368.673
       243.000         208.000
  20745809.575    -2472292.52449  -1937494.53947  20745808.765    20745815.664
       243.000         207.000
  20842437.552    -4366511.21749  -3411711.93647  20842436.971    20842443.791
       243.000         204.000
  22768400.141      855397.02449    474804.59246  22768399.565    22768406.774
       228.000         177.000
  21862582.100    -1530719.46949  -1200987.88547  21862582.439    21862589.411
       235.000         188.000
  22080714.364     6635758.85149   4824407.79247  22080713.950    22080721.052
       238.000         195.000
  23601666.599    -1709612.94349  -1343881.72245  23601665.987    23601675.745
       210.000         145.000
  22980129.744    -9208365.79149  -7176245.03646  22980128.828    22980138.777
       227.000         171.000
 02  7 11 16 26 30.0000000  0 10G 6G 2G18G17G15G29G26G23G22G21
  20900953.674     3697019.14549   2623209.56447  20900953.581    20900961.140
       242.000         205.000
  25050522.832     2709542.14249   2106653.85744  25050524.023    25050534.276
       201.000         127.000
  20709267.420    -6785453.42649  -5290072.23047  20709266.643    20709272.193
       244.000         208.000
  20742966.618    -2487232.33349  -1949135.96447  20742965.864    20742973.091
       243.000         206.000
  20836675.946    -4396789.13349  -3435305.10647  20836674.960    20836682.285
       243.000         205.000
  22775262.751      891460.73049    502906.15546  22775262.624    22775270.503
       228.000         177.000
  21866522.759    -1510011.67349  -1184851.95647  21866522.881    21866529.845
       235.000         188.000
  22094250.756     6706892.81749   4879836.79247  22094250.449    22094257.183
       238.000         195.000
  23604961.487    -1692299.36349  -1330390.68145  23604959.896    23604970.056
       208.000         146.000
  22966941.406    -9277670.37249  -7230248.54046  22966940.508    22966949.707
       226.000         171.000
 02  7 11 16 27  0.0000000  0 10G 6G 2G18G17G15G29G26G23G22G21
  20911969.329     3754906.21949   2668316.30747  20911969.185    20911976.584
       243.000         205.000
  25044649.675     2678678.67848   2082604.34444  25044648.511    25044659.022
       193.000         127.000
  20702252.811    -6822315.33749  -5318795.78247  20702252.129    20702257.822
       244.000         208.000
  20740154.859    -2502008.12649  -1960649.58347  20740154.200    20740161.291
       241.000         206.000
  20830949.568    -4426881.76849  -3458753.90847  20830948.594    20830955.724
       242.000         205.000
  22782223.794      928041.46849    531410.60846  22782222.306    22782230.266
       226.000         176.000
  21870585.868    -1488660.74349  -1168214.86247  21870585.878    21870592.294
       235.000         188.000
  22107821.558     6778207.33549   4935406.49747  22107820.914    22107828.592
       237.000         194.000
  23608347.738    -1674503.46849  -1316523.79645  23608347.221    23608356.141
       212.000         148.000
  22953803.060    -9346712.78449  -7284047.72746  22953802.763    22953811.373
       226.000         170.000
 02  7 11 16 27 30.0000000  0 10G 6G 2G18G17G15G29G26G23G22G21
  20923072.804     3813254.70649   2713782.58247  20923072.688    20923080.149
       243.000         206.000
  25038857.032     2648240.16949   2058885.96144  25038855.321    25038869.869
       199.000         126.000
  20695320.442    -6858745.24949  -5347182.72247  20695319.908    20695325.306
       244.000         209.000
  20737374.883    -2516617.26549  -1972033.34347  20737374.015    20737381.216
       242.000         207.000
  20825258.734    -4456786.77749  -3482056.50247  20825257.874    20825264.647
       242.000         205.000
  22789283.254      965139.98749    560318.50846  22789283.108    22789291.434
       226.000         175.000
  21874771.630    -1466665.13449  -1151075.44246  21874771.041    21874777.896
       234.000         187.000
  22121426.614     6849702.49949   4991116.94847  22121425.496    22121433.430
       236.000         193.000
  23611826.341    -1656224.52049  -1302280.57145  23611826.163    23611835.468
       216.000         151.000
  22940715.028    -9415490.82449  -7337640.89846  22940713.974    22940723.672
       227.000         169.000
 02  7 11 16 28  0.0000000  0 10G 6G 2G18G17G15G29G26G23G22G21
  20934263.650     3872062.28049   2759606.58147  20934263.641    20934270.700
       243.000         206.000
  25033145.513     2618225.81349   2035498.07344  25033142.686    25033158.226
       200.000         127.000
  20688470.101    -6894744.36349  -5375233.96547  20688469.471    20688475.098
       242.000         209.000
  20734626.467    -2531060.56049  -1983287.85947  20734625.577    20734632.628
       242.000         207.000
  20819603.489    -4486505.01049  -3505213.55147  20819602.529    20819609.613
       241.000         204.000
  22796440.943     1002754.08549    589628.17646  22796440.653    22796447.479
       226.000         174.000
  21879079.502    -1444026.82149  -1133435.19946  21879078.609    21879086.375
       233.000         187.000
  22135065.427     6921374.89549   5046965.51347  22135064.374    22135072.358
       237.000         193.000
  23615396.288    -1637465.49749  -1287663.21945  23615395.732    23615404.445
       220.000         154.000
  22927677.106    -9484005.20549  -7391028.63446  22927676.570    22927685.770
       228.000         169.000
 02  7 11 16 28 30.0000000  0 10G 6G 2G18G17G15G29G26G23G22G21
  20945541.225     3931325.91949   2805785.95847  20945540.664    20945547.874
       241.000         205.000
  25027514.326     2588634.20448   2012439.58744  25027512.913    25027524.749
       190.000         127.000
  20681701.251    -6930314.90349  -5402951.26247  20681700.637    20681706.167
       242.000         209.000
  20731909.329    -2545339.46049  -1994414.28147  20731908.438    20731915.650
       242.000         207.000
  20813983.462    -4516037.90749  -3528226.19247  20813982.740    20813989.234
       242.000         204.000
  22803696.346     1040880.65049    619337.14746  22803695.390    22803703.679
       226.000         174.000
  21883509.115    -1420748.09149  -1115295.93046  21883508.402    21883515.302
       233.000         186.000
  22148737.225     6993220.40249   5102948.97047  22148736.049    22148744.059
       236.000         192.000
  23619056.815    -1618229.81349  -1272674.43845  23619054.909    23619065.104
       218.000         155.000
  22914689.182    -9552256.95549  -7444211.73746  22914688.122    22914697.411
       227.000         170.000
 02  7 11 16 29  0.0000000  0 10G 6G 2G18G17G15G29G26G23G22G21
  20956905.883     3991047.97249   2852322.54447  20956905.586    20956912.427
       240.000         203.000
  25021964.305     2559469.08749   1989713.48944  25021964.564    25021975.045
       201.000         128.000
  20675014.594    -6965453.40949  -5430331.91447  20675014.126    20675019.544
       242.000         209.000
  20729224.182    -2559450.06949  -2005409.56947  20729223.437    20729230.487
       242.000         207.000
  20808399.573    -4545381.49049  -3551091.31447  20808398.895    20808405.624
       242.000         204.000
  22811049.616     1079522.21049    649447.43346  22811049.299    22811056.962
       226.000         175.000
  21888061.118    -1396826.28149  -1096655.56846  21888060.391    21888068.130
       233.000         185.000
  22162442.135     7065240.40349   5159068.38747  22162441.121    22162449.267
       236.000         192.000
  23622808.421    -1598515.47049  -1257312.68845  23622807.471    23622816.208
       220.000         156.000
  22901751.876    -9620242.47249  -7497187.38346  22901750.008    22901761.180
       225.000         171.000
 02  7 11 16 29 30.0000000  0 10G 6G 2G18G17G15G29G26G23G22G21
  20968357.411     4051226.36249   2899214.72847  20968357.118    20968364.416
       241.000         202.000
  25016495.609     2530729.55949   1967318.91444  25016495.870    25016503.526
       199.000         127.000
  20668410.003    -7000161.04249  -5457376.81647  20668409.488    20668414.881
       242.000         209.000
  20726570.967    -2573392.94049  -2016274.14647  20726570.334    20726577.565
       243.000         208.000
  20802851.639    -4574536.31349  -3573809.33947  20802850.756    20802857.813
       243.000         205.000
  22818500.392     1118676.42649    679957.15746  22818500.851    22818507.185
       226.000         173.000
  21892735.257    -1372263.09749  -1077515.43146  21892734.845    21892742.188
       233.000         186.000
  22176179.715     7137431.92849   5215321.46347  22176179.770    22176186.823
       236.000         192.000
  23626650.725    -1578325.10349  -1241580.02145  23626649.521    23626659.369
       220.000         158.000
  22888865.124    -9687962.04149  -7549955.81246  22888862.920    22888875.321
       226.000         172.000
 02  7 11 16 30  0.0000000  0 10G 6G 2G18G17G15G29G26G23G22G21
  20979895.567     4111859.26349   2946461.06047  20979895.531    20979902.953
       242.000         203.000
  25011107.554     2502415.60949   1945256.07544  25011110.039    25011119.368
       199.000         128.000
  20661887.224    -7034438.39449  -5484086.43247  20661886.514    20661892.131
       242.000         209.000
  20723949.675    -2587168.10349  -2027008.05247  20723948.919    20723956.005
       242.000         207.000
  20797339.654    -4603502.47049  -3596380.36047  20797338.982    20797345.954
       243.000         205.000
  22826048.562     1158341.65049    710865.09446  22826047.676    22826056.041
       225.000         173.000
  21897531.365    -1347059.66549  -1057876.41346  21897530.655    21897538.706
       233.000         186.000
  22189949.597     7209792.34449   5271706.13747  22189949.358    22189956.638
       236.000         192.000
  23630582.944    -1557660.85049  -1225478.07145  23630581.809    23630590.238
       218.000         157.000
  22876028.918    -9755416.16449  -7602517.38646  22876028.745    22876038.548
       226.000         173.000
 02  7 11 16 30 30.0000000  0 10G 6G 2G18G17G15G29G26G23G22G21
  20991520.184     4172946.40549   2994061.35147  20991520.103    20991527.533
       243.000         205.000
  25005800.968     2474528.31549   1923525.62744  25005799.305    25005811.559
       198.000         128.000
  20655446.454    -7068284.80149  -5510460.23647  20655445.922    20655451.460
       242.000         209.000
  20721360.475    -2600774.35449  -2037610.34047  20721359.671    20721366.396
       242.000         207.000
  20791863.746    -4632278.75949  -3618803.43447  20791863.003    20791869.395
       243.000         205.000
  22833693.824     1198517.37249    742170.81346  22833693.463    22833700.474
       225.000         173.000
  21902449.206    -1321215.87649  -1037738.39347  21902449.230    21902457.342
       235.000         188.000
  22203751.355     7282320.42849   5328221.46847  22203750.663    22203758.392
       235.000         191.000
  23634605.310    -1536523.55749  -1209007.53845  23634604.634    23634615.516
       219.000         156.000
  22863243.625    -9822603.50549  -7654871.09946  22863243.046    22863252.080
       228.000         173.000
 02  7 11 16 31  0.0000000  0 10G 6G 2G18G17G15G29G26G23G22G21
  21003230.858     4234485.77949   3042014.03447  21003230.596    21003238.256
       242.000         205.000
  25000575.244     2447067.11649   1902127.18244  25000576.081    25000586.432
       204.000         130.000
  20649087.543    -7101701.11849  -5536498.90147  20649086.785    20649092.208
       242.000         209.000
  20718803.388    -2614211.72349  -2048081.02947  20718802.921    20718809.896
       242.000         207.000
  20786423.901    -4660865.63649  -3641078.91547  20786423.089    20786429.834
       243.000         205.000
  22841435.841     1239201.62449    773872.80646  22841436.023    22841442.557
       226.000         173.000
  21907488.794    -1294733.33449  -1017102.64447  21907488.291    21907495.958
       234.000         188.000
  22217584.375     7355013.41149   5384865.28647  22217583.837    22217592.000
       235.000         191.000
  23638717.336    -1514915.50549  -1192170.18145  23638716.677    23638726.018
       218.000         154.000
  22850509.004    -9889524.85649  -7707017.51746  22850508.492    22850518.810
       228.000         173.000
 02  7 11 16 31 30.0000000  0 10G 6G 2G18G17G15G29G26G23G22G21
  21015027.363     4296476.42549   3090318.35247  21015026.980    21015034.463
       241.000         204.000
  24995431.272     2420032.53849   1881061.23644  24995431.223    24995443.536
       203.000         130.000
  20642810.435    -7134687.43749  -5562202.49547  20642809.790    20642815.300
       242.000         209.000
  20716278.623    -2627479.63949  -2058419.67147  20716277.829    20716284.938
       242.000         207.000
  20781020.165    -4689262.29449  -3663206.17047  20781019.270    20781026.123
       243.000         205.000
  22849274.377     1280393.56749    805970.40446  22849274.426    22849281.478
       225.000         173.000
  21912649.644    -1267612.55049   -995969.58147  21912649.608    21912657.273
       236.000         188.000
  22231448.476     7427869.40249   5441636.12147  22231447.679    22231456.017
       234.000         192.000
  23642918.567    -1492838.13149  -1174967.12445  23642917.639    23642926.198
       214.000         151.000
  22837825.119    -9956178.83049  -7758955.59046  22837824.303    22837833.670
       228.000         172.000
 02  7 11 16 32  0.0000000  0 10G 6G 2G18G17G15G29G26G23G22G21
  21026909.502     4358917.28849   3138973.49047  21026909.104    21026916.724
       241.000         203.000
  24990368.273     2393424.93849   1860327.91944  24990368.568    24990377.323
       202.000         128.000
  20636615.185    -7167243.73349  -5587571.01647  20636614.759    20636620.083
       243.000         209.000
  20713786.204    -2640577.50549  -2068625.81247  20713785.745    20713792.701
       242.000         207.000
  20775652.704    -4717468.30849  -3685184.89147  20775651.576    20775658.661
       244.000         205.000
  22857209.367     1322092.03149    838462.68146  22857209.093    22857216.323
       226.000         173.000
  21917932.001    -1239854.15749   -974339.65947  21917931.742    21917938.971
       235.000         188.000
  22245343.091     7500886.35949   5498532.39347  22245342.580    22245350.337
       234.000         191.000
  23647208.782    -1470293.06449  -1157399.63745  23647208.418    23647217.806
       213.000         147.000
  22825192.162   -10022565.14349  -7810685.09446  22825191.559    22825200.301
       226.000         172.000
 02  7 11 16 32 30.0000000  0 10G 6G 2G18G17G15G29G26G23G22G21
  21038877.035     4421807.01849   3187978.40847  21038876.519    21038884.416
       240.000         203.000
  24985386.307     2367244.81549   1839927.74744  24985384.968    24985397.915
       202.000         129.000
  20630501.751    -7199370.19849  -5612604.59247  20630501.031    20630506.569
       242.000         209.000
  20711326.262    -2653504.77749  -2078699.01447  20711325.438    20711332.508
       242.000         207.000
  20770321.616    -4745482.93749  -3707014.46847  20770320.756    20770327.596
       244.000         206.000
  22865240.568     1364295.55049    871348.50946  22865240.413    22865248.308
       227.000         174.000
  21923335.435    -1211459.09549   -952213.64147  21923335.231    21923342.684
       235.000         188.000
  22259268.025     7574062.41649   5555552.63347  22259267.400    22259275.343
       234.000         191.000
  23651587.785    -1447282.07449  -1139469.05045  23651587.607    23651595.338
       211.000         145.000
  22812610.073   -10088683.74549  -7862205.99746  22812608.850    22812618.779
       227.000         171.000
 02  7 11 16 33  0.0000000  0 10G 6G 2G18G17G15G29G26G23G22G21
  21050929.859     4485144.79349   3237332.42447  21050929.735    21050937.197
       241.000         202.000
  24980485.789     2341492.47749   1819860.91044  24980484.800    24980497.003
       195.000         129.000
  20624470.032    -7231066.75949  -5637303.18547  20624468.997    20624474.843
       241.000         209.000
  20708898.893    -2666260.69549  -2088638.70047  20708898.048    20708905.158
       242.000         207.000
  20765027.149    -4773305.60249  -3728694.47447  20765026.331    20765033.294
       244.000         206.000
  22873367.642     1407003.20949    904627.18746  22873366.408    22873375.189
       226.000         174.000
  21928859.962    -1182427.94949   -929591.96647  21928860.286    21928866.955
       237.000         188.000
  22273222.891     7647395.71849   5612695.40447  22273222.019    22273230.022
       234.000         190.000
  23656055.083    -1423806.46449  -1121176.47345  23656052.416    23656064.362
       209.000         141.000
  22800079.019   -10154534.10649  -7913517.91046  22800078.304    22800087.996
       227.000         171.000
 02  7 11 16 33 30.0000000  0 10G 6G 2G18G17G15G29G26G23G22G21
  21063067.694     4548928.81449   3287034.17047  21063067.642    21063075.166
       243.000         203.000
  24975666.626     2316167.81549   1800127.34644  24975665.217    24975678.038
       199.000         128.000
  20618519.892    -7262334.30349  -5661667.47047  20618519.226    20618524.832
       242.000         209.000
  20706504.214    -2678845.07249  -2098444.70847  20706503.816    20706510.736
       243.000         207.000
  20759769.163    -4800936.34649  -3750224.92947  20759768.242    20759775.330
       244.000         206.000
  22881590.152     1450213.08049    938297.17546  22881589.445    22881597.026
       224.000         173.000
  21934505.355    -1152761.92149   -906475.58346  21934505.048    21934512.059
       235.000         187.000
  22287207.334     7720883.93549   5669958.88847  22287206.708    22287214.402
       234.000         189.000
  23660610.175    -1399868.29049  -1102523.46245  23660608.152    23660617.574
       210.000         139.000
  22787599.166   -10220116.24549  -7964620.81746  22787598.993    22787608.343
       228.000         173.000
 02  7 11 16 34  0.0000000  0 10G 6G 2G18G17G15G29G26G23G22G21
  21075290.413     4613158.66449   3337083.31947  21075290.240    21075297.739
       242.000         204.000
  24970929.238     2291272.12349   1780727.99844  24970931.704    24970939.459
       201.000         127.000
  20612651.710    -7293171.90849  -5685696.75247  20612651.029    20612656.582
       241.000         209.000
  20704142.515    -2691256.39549  -2108115.87447  20704141.811    20704148.574
       242.000         207.000
  20754547.985    -4828373.64049  -3771604.64447  20754547.296    20754554.209
       244.000         206.000
  22889908.192     1493925.21249    972358.54846  22889907.757    22889915.948
       224.000         172.000
  21940271.317    -1122461.03849   -882864.51346  21940271.076    21940278.754
       233.000         186.000
  22301221.106     7794525.98249   5727342.24047  22301221.076    22301227.897
       234.000         189.000
  23665253.489    -1375468.51549  -1083510.74345  23665250.738    23665262.372
       211.000         140.000
  22775170.701   -10285428.52249  -8015513.42346  22775170.138    22775179.809
       230.000         176.000
 02  7 11 16 34 30.0000000  0 10G 6G 2G18G17G15G29G26G23G22G21
  21087597.460     4677832.21349   3387478.21247  21087597.110    21087604.850
       240.000         204.000
  24966273.568     2266804.56749   1761662.33844  24966272.569    24966286.556
       200.000         128.000
  20606865.066    -7323580.73849  -5709391.91347  20606864.255    20606869.764
       242.000         209.000
  20701813.604    -2703495.09649  -2117652.52547  20701812.963    20701819.590
       242.000         207.000
  20749363.700    -4855617.98149  -3792834.00147  20749362.775    20749369.922
       243.000         206.000
  22898321.482     1538137.16849   1006809.38446  22898321.282    22898328.927
       226.000         172.000
  21946157.815    -1091527.09449   -858760.14346  21946156.992    21946165.076
       234.000         185.000
  22315263.544     7868319.05349   5784843.27047  22315262.815    22315270.913
       234.000         188.000
  23669984.046    -1350609.61949  -1064140.25545  23669981.913    23669991.890
       213.000         140.000
  22762793.490   -10350471.30049  -8066196.02546  22762792.337    22762801.869
       230.000         177.000
 02  7 11 16 35  0.0000000  0 10G 6G 2G18G17G15G29G26G23G22G21
  21099988.549     4742947.78849   3438217.54847  21099988.162    21099995.909
       240.000         203.000
  24961698.801     2242764.89949   1742930.02344  24961697.287    24961707.483
       201.000         127.000
  20601159.911    -7353561.49549  -5732753.51947  20601159.294    20601165.117
       241.000         210.000
  20699517.564    -2715560.94349  -2127054.48547  20699516.703    20699523.498
       242.000         207.000
  20744216.070    -4882669.08049  -3813912.78347  20744215.309    20744222.221
       244.000         206.000
  22906829.656     1582847.13449   1041648.28446  22906829.422    22906837.198
       227.000         173.000
  21952164.494    -1059961.44549   -834163.55046  21952164.173    21952171.442
       233.000         184.000
  22329334.226     7942260.60849   5842460.00447  22329333.424    22329341.829
       234.000         188.000
  23674801.310    -1325293.70049  -1044413.72445  23674802.006    23674810.991
       214.000         144.000
  22750467.430   -10415244.99749  -8116668.96546  22750466.670    22750475.201
       228.000         175.000
 02  7 11 16 35 30.0000000  0 10G 6G 2G18G17G15G29G26G23G22G21
  21112463.343     4808502.89749   3489299.37447  21112463.246    21112470.717
       241.000         202.000
  24957205.493     2219151.91949   1724530.21544  24957204.537    24957215.940
       200.000         128.000
  20595535.934    -7383115.75849  -5755782.79347  20595535.248    20595540.850
       241.000         210.000
  20697254.248    -2727454.75449  -2136322.38847  20697253.510    20697260.153
       242.000         206.000
  20739105.133    -4909527.62549  -3834841.51447  20739104.297    20739111.222
       244.000         206.000
  22915432.084     1628052.51649   1076873.24146  22915431.427    22915439.296
       226.000         173.000
  21958290.997    -1027766.36549   -809076.49346  21958290.522    21958298.080
       233.000         184.000
  22343432.560     8016347.52149   5900190.01647  22343431.794    22343439.496
       235.000         188.000
  23679705.430    -1299524.00849  -1024333.51545  23679703.822    23679714.987
       215.000         148.000
  22738192.326   -10479750.06349  -8166932.57646  22738191.368    22738200.961
       228.000         172.000
 02  7 11 16 36  0.0000000  0 10G 6G 2G18G17G15G29G26G23G22G21
  21125021.913     4874498.26849   3540724.25447  21125021.882    21125029.114
       242.000         202.000
  24952794.024     2195967.95349   1706464.70244  24952795.429    24952805.921
       207.000         129.000
  20589993.454    -7412241.48149  -5778478.13947  20589992.535    20589998.460
       242.000         210.000
  20695024.196    -2739173.56749  -2145453.92647  20695023.383    20695030.121
       243.000         206.000
  20734031.254    -4936191.08349  -3855618.22347  20734030.310    20734037.477
       244.000         207.000
  22924128.706     1673754.08849   1112484.81046  22924127.627    22924135.198
       224.000         172.000
  21964537.553     -994940.81549   -783498.15146  21964537.447    21964545.388
       233.000         185.000
  22357558.740     8090580.03449   5958033.48547  22357558.314    22357566.015
       235.000         188.000
  23684695.866    -1273300.08749  -1003899.39145  23684694.197    23684703.651
       217.000         151.000
  22725968.784   -10543984.47549  -8216985.26946  22725966.731    22725977.403
       227.000         171.000
 02  7 11 16 36 30.0000000  0 10G 6G 2G18G17G15G29G26G23G22G21
  21137664.250     4940933.57349   3592491.92847  21137664.459    21137671.359
       242.000         202.000
  24948464.081     2173214.22249   1688734.42044  24948462.859    24948474.969
       201.000         127.000
  20584532.596    -7440938.23349  -5800839.21947  20584531.965    20584537.664
       242.000         210.000
  20692827.695    -2750716.05849  -2154448.07747  20692826.624    20692833.874
       242.000         206.000
  20728994.756    -4962657.93349  -3876241.72847  20728993.556    20729000.853
       243.000         207.000
  22932919.555     1719951.28149   1148482.59446  22932918.471    22932928.967
       224.000         171.000
  21970903.979     -961484.79849   -757428.54946  21970903.960    21970912.047
       234.000         185.000
  22371712.411     8164957.11949   6015989.60547  22371711.726    22371720.138
       234.000         189.000
  23689772.343    -1246622.73549   -983111.95745  23689771.932    23689781.922
       220.000         155.000
  22713797.032   -10607947.00949  -8266826.11646  22713796.236    22713804.878
       228.000         172.000
 02  7 11 16 37  0.0000000  0 10G 6G 2G18G17G15G29G26G23G22G21
  21150389.819     5007806.25749   3644600.42147  21150389.660    21150397.104
       241.000         202.000
  24944216.076     2150889.68449   1671338.57344  24944214.650    24944226.599
       203.000         129.000
  20579153.229    -7469207.32749  -5822867.05547  20579152.459    20579158.042
       242.000         210.000
  20690664.636    -2762082.68449  -2163305.19247  20690663.861    20690670.917
       242.000         207.000
  20723995.552    -4988928.72849  -3896712.46347  20723994.637    20724001.439
       243.000         207.000
  22941804.632     1766641.95049   1184864.89946  22941803.840    22941812.206
       225.000         171.000
  21977390.081     -927400.38149   -730869.27846  21977390.299    21977397.937
       234.000         185.000
  22385892.926     8239475.77649   6074056.04347  22385892.029    22385899.974
       234.000         189.000
  23694934.829    -1219494.82649   -961973.43045  23694934.328    23694943.498
       219.000         156.000
  22701676.924   -10671638.31049  -8316455.60746  22701675.837    22701686.037
       231.000         175.000
 02  7 11 16 37 30.0000000  0 10G 6G 2G18G17G15G29G26G23G22G21
  21163198.241     5075114.69749   3697048.46447  21163197.693    21163205.800
       240.000         201.000
  24940049.670     2128994.05349   1654276.96044  24940048.404    24940057.054
       206.000         130.000
  20573854.966    -7497049.38649  -5844562.13547  20573854.227    20573860.007
       242.000         210.000
  20688535.179    -2773272.90249  -2172024.84647  20688534.496    20688541.542
       242.000         207.000
  20719033.753    -5015003.19349  -3917030.22047  20719032.712    20719039.807
       244.000         207.000
  22950783.062     1813824.06049   1221630.14646  22950782.144    22950790.337
       224.000         170.000
  21983995.604     -892689.13449   -703821.57646  21983995.627    21984003.031
       233.000         185.000
  22400099.887     8314133.73449   6132231.02747  22400098.714    22400107.543
       233.000         188.000
  23700182.472    -1191918.61249   -940485.57645  23700181.116    23700191.754
       216.000         158.000
  22689608.454   -10735058.54549  -8365873.89146  22689607.781    22689617.183
       231.000         178.000
 02  7 11 16 38  0.0000000  0 10G 6G 2G18G17G15G29G26G23G22G21
  21176089.388     5142858.34249   3749835.64247  21176088.949    21176097.004
       239.000         201.000
  24935964.966     2107528.41949   1637550.36045  24935964.871    24935976.618
       209.000         134.000
  20568638.202    -7524463.88049  -5865924.05747  20568637.569    20568643.045
       242.000         210.000
  20686439.552    -2784285.50549  -2180606.10247  20686438.976    20686445.931
       242.000         207.000
  20714109.484    -5040879.92949  -3937193.90447  20714108.411    20714115.513
       244.000         207.000
  22959855.048     1861497.03549   1258777.88346  22959854.973    22959863.134
       227.000         171.000
  21990720.191     -857351.15949   -676285.50046  21990719.612    21990727.767
       233.000         185.000
  22414333.073     8388929.86149   6190513.66947  22414332.381    22414339.944
       233.000         188.000
  23705515.223    -1163895.02549   -918649.10645  23705514.694    23705523.865
       220.000         157.000
  22677591.909   -10798206.02849  -8415079.64546  22677591.500    22677600.320
       229.000         179.000
 02  7 11 16 38 30.0000000  0 10G 6G 2G18G17G15G29G26G23G22G21
  21189062.856     5211034.55249   3802959.88147  21189062.527    21189070.843
       239.000         200.000
  24931961.774     2086491.47649   1621157.85745  24931961.532    24931971.063
       211.000         136.000
  20563502.492    -7551452.34949  -5886954.01347  20563501.644    20563507.307
       241.000         210.000
  20684377.633    -2795121.12549  -2189049.45547  20684377.004    20684383.897
       242.000         207.000
  20709222.742    -5066559.81149  -3957204.19347  20709221.674    20709228.515
       243.000         207.000
  22969019.938     1909658.14549   1296305.98946  22969019.898    22969027.140
       225.000         171.000
  21997563.531     -821388.95149   -648263.02946  21997563.244    21997571.106
       231.000         185.000
  22428591.980     8463860.94349   6248901.48846  22428591.499    22428599.072
       234.000         187.000
  23710932.601    -1135427.36449   -896466.61845  23710931.434    23710941.785
       214.000         155.000
  22665626.952   -10861082.06649  -8464073.88946  22665626.363    22665635.993
       228.000         178.000
 02  7 11 16 39  0.0000000  0 10G 6G 2G18G17G15G29G26G23G22G21
  21202118.790     5279643.52949   3856421.33547  21202118.789    21202126.638
       240.000         201.000
  24928040.643     2065884.88849   1605100.70645  24928040.427    24928052.466
       213.000         138.000
  20558448.024    -7578013.50549  -5907651.00147  20558447.203    20558453.011
       240.000         210.000
  20682349.859    -2805777.56649  -2197353.17847  20682349.417    20682356.028
       241.000         207.000
  20704373.853    -5092040.44049  -3977059.21847  20704372.981    20704380.017
       244.000         207.000
  22978277.591     1958307.64749   1334214.66146  22978277.040    22978285.586
       226.000         171.000
  22004525.699     -784802.07149   -619753.79246  22004525.594    22004532.799
       232.000         184.000
  22442876.491     8538926.88949   6307394.37246  22442875.591    22442884.809
       232.000         187.000
  23716434.183    -1106515.80949   -873938.23845  23716432.535    23716444.101
       213.000         153.000
  22653713.921   -10923684.91049  -8512855.25646  22653712.701    22653723.162
       229.000         177.000
 02  7 11 16 39 30.0000000  0 10G 6G 2G18G17G15G29G26G23G22G21
  21215256.542     5348682.25749   3910217.64447  21215256.803    21215264.094
       241.000         201.000
  24924201.135     2045707.22549   1589377.78345  24924200.085    24924213.084
       212.000         140.000
  20553474.526    -7604149.39749  -5928016.62247  20553474.066    20553479.403
       242.000         210.000
  20680355.991    -2816255.58549  -2205517.87347  20680355.408    20680362.190
       242.000         206.000
  20699562.742    -5117322.79349  -3996759.74847  20699561.612    20699568.991
       244.000         208.000
  22987627.628     2007442.27649   1372501.35846  22987627.027    22987634.760
       226.000         171.000
  22011606.303     -747593.27849   -590759.96846  22011605.972    22011613.341
       231.000         184.000
  22457185.966     8614124.14449   6365989.57846  22457185.224    22457193.264
       232.000         186.000
  23722019.810    -1077163.76549   -851066.60745  23722018.568    23722030.082
       214.000         150.000
  22641852.755   -10986015.91449  -8561424.78946  22641851.802    22641861.814
       229.000         176.000
 02  7 11 16 40  0.0000000  0 10G 6G 2G18G17G15G29G26G23G22G21
  21228475.731     5418148.45049   3964347.04847  21228475.612    21228483.002
       240.000         200.000
  24920442.959     2025957.63249   1573988.42545  24920442.307    24920453.904
       213.000         141.000
  20548581.839    -7629861.00949  -5948051.63547  20548581.183    20548586.665
       242.000         211.000
  20678396.040    -2826555.46549  -2213543.74747  20678395.365    20678402.066
       242.000         206.000
  20694789.279    -5142407.52249  -4016306.28547  20694788.646    20694795.483
       244.000         208.000
  22997069.724     2057059.77649   1411164.30546  22997069.470    22997075.959
       227.000         171.000
  22018804.770     -709764.57749   -561283.08346  22018804.469    22018812.740
       232.000         184.000
  22471519.980     8689449.90549   6424684.92546  22471518.931    22471527.408
       231.000         185.000
  23727688.846    -1047373.86949   -827853.78245  23727688.123    23727696.909
       208.000         148.000
  22630043.251   -11048075.16849  -8609782.53946  22630042.588    22630051.259
       230.000         176.000
 02  7 11 16 40 30.0000000  0 11G 6G 2G18G17G15G29G26G23G 3G22G21
  21241775.841     5488041.14249   4018808.78847  21241775.425    21241783.406
       239.000         199.000
  24916766.286     2006636.61649   1558933.00545  24916764.363    24916777.763
       212.000         141.000
  20543769.795    -7655148.25149  -5967755.95747  20543768.975    20543774.798
       242.000         211.000
  20676470.201    -2836675.98449  -2221429.86547  20676469.378    20676476.248
       242.000         206.000
  20690053.673    -5167293.39949  -4035697.86947  20690052.735    20690059.621
       244.000         208.000
  23006603.405     2107159.16749   1450202.75146  23006602.151    23006610.277
       224.000         171.000
  22026121.080     -671316.72849   -531323.74146  22026120.364    22026128.167
       231.000         184.000
  22485878.202     8764902.75249   6483479.30646  22485876.771    22485885.493
       231.000         184.000
  24623916.735     -956609.68949   -746832.59244  24623916.477    24623926.686
       202.000         123.000
  23733440.446    -1017147.57949   -804300.94445  23733441.081    23733450.605
       213.000         145.000
  22618285.634   -11109862.05349  -8657928.06546  22618285.057    22618293.660
       233.000         176.000
 02  7 11 16 41  0.0000000  0 11G 6G 2G18G17G15G29G26G23G 3G22G21
  21255157.010     5558359.71249   4073602.38747  21255156.721    21255164.763
       238.000         198.000
  24913171.404     1987744.92549   1544212.14545  24913170.241    24913181.407
       214.000         142.000
  20539038.599    -7680010.73449  -5987129.31447  20539038.130    20539043.444
       243.000         211.000
  20674578.772    -2846615.56649  -2229174.99647  20674577.987    20674584.816
       242.000         206.000
  20685356.219    -5191978.65549  -4054933.12047  20685355.406    20685362.592
       244.000         207.000
  23016228.424     2157739.90749   1489616.26346  23016227.347    23016235.221
       222.000         170.000
  22033555.263     -632250.00249   -500882.16646  22033555.277    22033562.280
       233.000         184.000
  22500260.301     8840481.83949   6542372.04546  22500260.064    22500267.683
       231.000         184.000
  24604753.887    -1057311.45649   -825301.44344  24604751.735    24604762.920
       206.000         126.000
  23739275.272     -986485.96649   -780408.89745  23739274.172    23739283.828
       209.000         143.000
  22606580.058   -11171375.16549  -8705860.26946  22606579.301    22606588.495
       231.000         177.000
 02  7 11 16 41 30.0000000  0 11G 6G 2G18G17G15G29G26G23G 3G22G21
  21268618.900     5629102.53949   4128726.58447  21268618.902    21268626.921
       239.000         199.000
  24909658.072     1969282.34649   1529825.61745  24909657.423    24909669.684
       216.000         144.000
  20534388.134    -7704449.13049  -6006172.21247  20534387.419    20534393.125
       242.000         212.000
  20672721.741    -2856373.77249  -2236778.80047  20672720.833    20672727.915
       241.000         206.000
  20680697.111    -5216462.86849  -4074011.71347  20680696.452    20680702.927
       244.000         207.000
  23025944.669     2208800.15249   1529403.42946  23025943.831    23025952.788
       224.000         170.000
  22041106.853     -592566.07749   -469959.65346  22041106.959    22041114.466
       232.000         184.000
  22514666.293     8916185.02049   6601361.49946  22514665.811    22514673.849
       231.000         184.000
  24585615.802    -1157883.02649   -903668.87644  24585613.464    24585625.865
       210.000         128.000
  23745192.519     -955391.25149   -756179.34545  23745189.977    23745202.087
       209.000         142.000
  22594926.330   -11232615.37449  -8753579.81646  22594924.359    22594935.007
       228.000         178.000
 02  7 11 16 42  0.0000000  0 11G 6G 2G18G17G15G29G26G23G 3G22G21
  21282161.295     5700267.88349   4184180.01047  21282161.516    21282169.232
       239.000         200.000
  24906226.653     1951248.54149   1515773.18045  24906226.328    24906235.389
       215.000         146.000
  20529818.229    -7728464.13449  -6024885.19647  20529817.503    20529823.331
       241.000         212.000
  20670899.279    -2865950.49749  -2244241.21047  20670898.605    20670905.594
       241.000         206.000
  20676076.212    -5240745.90349  -4092933.55347  20676075.481    20676082.114
       244.000         207.000
  23035751.971     2260337.85349   1569562.63746  23035752.111    23035759.706
       226.000         170.000
  22048775.683     -552266.49049   -438557.41046  22048776.370    22048782.843
       234.000         184.000
  22529095.419     8992010.04749   6660445.88346  22529095.152    22529103.284
       233.000         185.000
  24566502.940    -1258322.41549   -981933.34344  24566500.616    24566512.778
       209.000         128.000
  23751191.577     -923865.76349   -731614.19745  23751192.092    23751201.489
       213.000         143.000
  22583324.521   -11293582.14749  -8801086.32246  22583323.530    22583333.482
       229.000         178.000
 02  7 11 16 42 30.0000000  0 11G 6G 2G18G17G15G29G26G23G 3G22G21
  21295783.957     5771854.55449   4239961.73647  21295784.205    21295792.228
       241.000         200.000
  24902876.636     1933643.67049   1502054.99945  24902876.238    24902887.355
       216.000         148.000
  20525328.846    -7752055.85649  -6043268.35047  20525328.201    20525333.714
       242.000         212.000
  20669111.679    -2875344.36849  -2251561.13047  20669110.972    20669117.964
       242.000         206.000
  20671493.822    -5264826.68449  -4111697.80247  20671493.003    20671499.964
       244.000         207.000
  23045649.977     2312352.00149   1610093.10046  23045650.448    23045657.499
       225.000         170.000
  22056561.739     -511352.25749   -406676.22346  22056561.500    22056569.023
       233.000         185.000
  22543547.502     9067955.46649   6719624.07246  22543546.797    22543555.121
       232.000         185.000
  24547415.388    -1358626.85649  -1060092.57044  24547414.359    24547424.030
       210.000         130.000
  23757272.519     -891911.08049   -706714.54245  23757270.924    23757282.485
       214.000         144.000
  22571774.892   -11354275.06349  -8848379.44546  22571774.086    22571783.693
       229.000         178.000
 02  7 11 16 43  0.0000000  0 11G 6G 2G18G17G15G29G26G23G 3G22G21
  21309486.116     5843858.87149   4296068.89747  21309486.100    21309493.929
       241.000         200.000
  24899608.083     1916465.72149   1488669.49645  24899605.622    24899617.271
       212.000         149.000
  20520919.529    -7775226.91649  -6061323.72347  20520918.853    20520924.467
       242.000         211.000
  20667358.559    -2884556.99049  -2258739.81047  20667358.056    20667365.028
       242.000         206.000
  20666949.592    -5288706.71849  -4130305.63447  20666948.779    20666955.563
       244.000         207.000
  23055638.010     2364838.80449   1650991.87146  23055638.364    23055645.683
       227.000         170.000
  22064463.833     -469826.81549   -374318.77346  22064464.869    22064470.865
       236.000         185.000
  22558021.799     9144017.43849   6778893.08946  22558021.377    22558029.512
       233.000         185.000
  24528353.763    -1458796.10449  -1138146.52545  24528352.625    24528364.342
       208.000         132.000
  23763434.219     -859531.21049   -681483.64845  23763433.697    23763444.430
       215.000         145.000
  22560277.121   -11414695.93849  -8895460.57146  22560277.255    22560285.379
       230.000         179.000
 02  7 11 16 43 30.0000000  0 11G 6G 2G18G17G15G29G26G23G 3G22G21
  21323267.632     5916280.80749   4352501.48947  21323267.409    21323275.438
       239.000         198.000
  24896420.483     1899716.19849   1475617.81345  24896421.886    24896431.739
       216.000         150.000
  20516590.502    -7797976.10749  -6079050.35147  20516589.820    20516595.317
       241.000         211.000
  20665640.505    -2893586.09449  -2265775.47247  20665639.975    20665646.768
       242.000         206.000
  20662444.019    -5312384.10549  -4148755.54947  20662443.258    20662450.122
       244.000         208.000
  23065715.957     2417798.04349   1692258.75046  23065715.527    23065724.005
       225.000         171.000
  22072482.442     -427689.99649   -341484.91646  22072482.428    22072489.545
       234.000         186.000
  22572518.220     9220195.61449   6838252.65146  22572517.481    22572525.272
       233.000         185.000
  24509318.869    -1558826.13649  -1216091.93945  24509318.862    24509327.196
       205.000         132.000
  23769676.787     -826726.73249   -655921.83045  23769676.455    23769686.251
       219.000         148.000
  22548831.571   -11474843.08949  -8942328.37146  22548830.849    22548839.625
       231.000         178.000
 02  7 11 16 44  0.0000000  0 11G 6G 2G18G17G15G29G26G23G 3G22G21
  21337128.591     5989120.52949   4409259.62047  21337128.194    21337136.031
       239.000         197.000
  24893315.132     1883396.46649   1462901.05045  24893313.308    24893325.218
       214.000         149.000
  20512342.011    -7820302.10949  -6096447.23247  20512341.581    20512346.970
       242.000         211.000
  20663957.845    -2902429.16649  -2272666.18447  20663957.150    20663964.108
       242.000         206.000
  20657977.401    -5335856.36249  -4167045.61947  20657976.590    20657983.371
       244.000         208.000
  23075883.916     2471230.05049   1733894.02246  23075883.109    23075892.700
       222.000         171.000
  22080617.154     -384941.65149   -308174.54946  22080616.667    22080624.169
       233.000         185.000
  22587036.634     9296489.87249   6897702.66646  22587036.370    22587043.557
       231.000         183.000
  24490311.138    -1658712.81649  -1293925.64845  24490311.030    24490320.847
       207.000         134.000
  23776000.261     -793498.00149   -630029.44845  23776000.068    23776009.092
       218.000         150.000
  22537438.336   -11534714.61149  -8988981.41046  22537437.297    22537445.860
       231.000         177.000
 02  7 11 16 44 30.0000000  0 11G 6G 2G18G17G15G29G26G23G 3G22G21
  21351068.614     6062375.56749   4466341.36847  21351068.303    21351076.661
       240.000         197.000
  24890291.232     1867505.54049   1450518.42545  24890290.201    24890302.003
       213.000         150.000
  20508173.816    -7842206.35049  -6113515.46747  20508173.057    20508178.716
       242.000         211.000
  20662310.363    -2911086.58149  -2279412.23947  20662309.761    20662316.511
       242.000         206.000
  20653549.796    -5359123.77249  -4185176.07447  20653549.046    20653555.759
       246.000         209.000
  23086141.016     2525132.10049   1775895.57446  23086140.567    23086149.718
       223.000         171.000
  22088867.912     -341584.05749   -274389.44346  22088867.645    22088875.307
       234.000         185.000
  22601576.589     9372897.56349   6957241.07446  22601575.765    22601583.061
       232.000         182.000
  24471330.681    -1758454.90549  -1371646.71845  24471329.551    24471339.322
       213.000         135.000
  23782403.833     -759847.88149   -603808.72845  23782403.215    23782413.035
       215.000         151.000
  22526097.455   -11594310.95549  -9035420.02146  22526096.238    22526105.685
       229.000         175.000
 02  7 11 16 45  0.0000000  0 11G 6G 2G18G17G15G29G26G23G 3G22G21
  21365087.162     6136042.82049   4523744.31547  21365087.138    21365095.008
       241.000         198.000
  24887348.453     1852041.79349   1438468.64945  24887347.618    24887358.547
       213.000         149.000
  20504085.364    -7863690.95749  -6130256.70947  20504084.728    20504090.051
       241.000         211.000
  20660698.106    -2919559.07649  -2286014.19247  20660697.417    20660704.029
       242.000         206.000
  20649160.991    -5382187.25749  -4203147.63447  20649160.024    20649166.723
       245.000         209.000
  23096487.085     2579500.96949   1818260.86446  23096486.825    23096494.902
       224.000         170.000
  22097233.905     -297620.22049   -240131.94346  22097233.773    22097241.417
       233.000         185.000
  22616137.471     9449415.25649   7016865.18846  22616136.654    22616143.595
       230.000         181.000
  24452378.126    -1858051.35049  -1449254.35545  24452377.541    24452386.326
       212.000         134.000
  23788886.978     -725779.99649   -577262.43045  23788886.527    23788897.154
       215.000         152.000
  22514808.522   -11653633.99849  -9081645.65946  22514807.133    22514816.199
       229.000         175.000
 02  7 11 16 45 30.0000000  0 11G 6G 2G18G17G15G29G26G23G 3G22G21
  21379184.228     6210122.41149   4581468.57147  21379184.099    21379192.617
       241.000         199.000
  24884487.550     1837006.73749   1426752.91545  24884487.778    24884498.235
       214.000         150.000
  20500077.102    -7884754.70349  -6146670.00847  20500076.772    20500081.894
       243.000         211.000
  20659121.463    -2927844.29249  -2292470.20447  20659120.688    20659127.727
       242.000         206.000
  20644811.408    -5405044.30849  -4220958.33147  20644810.695    20644817.428
       246.000         209.000
  23106922.185     2634336.83949   1860990.04246  23106922.750    23106929.930
       225.000         169.000
  22105715.313     -253049.92349   -205401.87946  22105714.962    22105723.272
       232.000         184.000
  22630719.292     9526042.94549   7076575.02046  22630718.889    22630726.102
       231.000         181.000
  24433454.314    -1957497.78249  -1526745.02245  24433452.213    24433463.313
       208.000         134.000
  23795449.383     -691294.80449   -550390.94745  23795448.564    23795460.534
       211.000         152.000
  22503572.108   -11712681.40749  -9127656.55146  22503571.422    22503579.697
       231.000         177.000
 02  7 11 16 46  0.0000000  0 11G 6G 2G18G17G15G29G26G23G 3G22G21
  21393358.887     6284610.32949   4639511.00847  21393358.646    21393366.823
       239.000         198.000
  24881707.669     1822398.03749   1415369.42345  24881706.813    24881718.418
       213.000         148.000
  20496148.457    -7905400.26649  -6162757.45447  20496147.902    20496153.292
       242.000         211.000
  20657580.214    -2935943.60349  -2298781.37047  20657579.905    20657586.526
       241.000         206.000
  20640500.869    -5427696.52849  -4238609.42047  20640499.979    20640506.837
       244.000         209.000
  23117445.280     2689635.57949   1904079.92746  23117444.386    23117453.269
       223.000         169.000
  22114311.369     -207876.92449   -170202.17546  22114311.091    22114319.447
       232.000         185.000
  22645321.369     9602776.62549   7136367.44046  22645321.060    22645328.510
       233.000         183.000
  24414558.830    -2056794.29649  -1604118.87245  24414558.753    24414566.460
       208.000         132.000
  23802090.384     -656396.45049   -523197.57045  23802090.256    23802100.782
       209.000         150.000
  22492387.732   -11771455.49549  -9173454.47646  22492386.705    22492396.314
       230.000         180.000
 02  7 11 16 46 30.0000000  0 11G 6G 2G18G17G15G29G26G23G 3G22G21
  21407611.587     6359508.67749   4697873.26547  21407611.079    21407619.365
       238.000         197.000
  24879009.460     1808218.96949   1404320.72445  24879007.841    24879020.289
       207.000         147.000
  20492299.896    -7925624.53249  -6178516.61247  20492299.256    20492304.521
       241.000         211.000
  20656075.270    -2943852.67049  -2304944.28247  20656074.737    20656081.547
       242.000         206.000
  20636230.083    -5450139.69949  -4256097.61747  20636229.346    20636236.059
       245.000         209.000
  23128056.767     2745399.31849   1947532.12346  23128056.919    23128065.492
       224.000         169.000
  22123022.596     -162099.10749   -134531.20146  22123022.550    22123030.355
       232.000         185.000
  22659944.032     9679618.05749   7196243.81546  22659942.928    22659951.320
       232.000         184.000
  24395692.991    -2155934.42949  -1681370.88944  24395691.314    24395703.773
       207.000         131.000
  23808810.383     -621083.53649   -495681.11645  23808809.714    23808820.583
       209.000         151.000
  22481256.121   -11829952.36949  -9219036.37346  22481255.231    22481264.397
       232.000         181.000
 02  7 11 16 47  0.0000000  0 11G 6G 2G18G17G15G29G26G23G 3G22G21
  21421941.618     6434813.26049   4756552.06547  21421941.399    21421949.541
       238.000         196.000
  24876392.356     1794466.61049   1393604.51845  24876392.212    24876403.597
       209.000         146.000
  20488530.895    -7945430.78249  -6193950.03747  20488530.266    20488535.847
       242.000         211.000
  20654606.163    -2951573.45449  -2310960.47947  20654605.574    20654612.599
       242.000         206.000
  20631998.681    -5472375.86749  -4273424.51447  20631997.655    20632004.553
       245.000         209.000
  23138756.018     2801623.34149   1991342.98846  23138755.193    23138762.890
       222.000         169.000
  22131848.079     -115720.81749    -98392.31246  22131848.530    22131856.296
       233.000         185.000
  22674586.112     9756562.75549   7256200.66746  22674585.151    22674592.923
       231.000         183.000
  24376856.837    -2254918.87349  -1758501.56044  24376856.523    24376867.915
       207.000         131.000
  23815608.079     -585360.71749   -467845.25245  23815607.598    23815617.161
       209.000         148.000
  22470176.791   -11888174.49949  -9264404.20646  22470176.011    22470185.292
       232.000         183.000
 02  7 11 16 47 30.0000000  0 11G 6G 2G18G17G15G29G26G23G 3G22G21
  21436348.669     6510522.43449   4815546.11147  21436348.854    21436356.543
       239.000         195.000
  24873856.649     1781141.01949   1383220.84945  24873857.017    24873868.313
       209.000         144.000
  20484841.318    -7964819.49649  -6209058.11347  20484840.810    20484846.341
       242.000         212.000
  20653172.887    -2959105.25849  -2316829.42447  20653171.967    20653178.966
       242.000         206.000
  20627806.843    -5494404.03749  -4290589.32547  20627805.927    20627812.882
       245.000         209.000
  23149542.351     2858306.27549   2035511.44546  23149542.535    23149549.043
       223.000         167.000
  22140787.791      -68743.50049    -61786.66546  22140787.772    22140794.983
       233.000         185.000
  22689247.462     9833608.95949   7316236.61346  22689246.382    22689253.258
       231.000         182.000
  24358050.913    -2353745.07149  -1835508.96344  24358050.093    24358056.937
       205.000         127.000
  23822483.625     -549230.18149   -439691.68445  23822483.818    23822493.122
       210.000         148.000
  22459149.736   -11946121.93649  -9309557.97446  22459149.015    22459157.503
       230.000         181.000
 02  7 11 16 48  0.0000000  0 11G 6G 2G18G17G15G29G26G23G 3G22G21
  21450832.566     6586635.22849   4874854.66847  21450832.757    21450840.226
       239.000         195.000
  24871402.148     1768242.37849   1373169.85345  24871402.526    24871412.965
       208.000         142.000
  20481231.219    -7983790.78049  -6223840.91447  20481230.439    20481235.909
       241.000         212.000
  20651775.884    -2966446.42849  -2322549.82747  20651775.114    20651782.024
       242.000         206.000
  20623654.842    -5516222.91949  -4307591.05847  20623654.011    20623661.086
       245.000         209.000
  23160415.783     2915446.99449   2080036.61246  23160415.078    23160423.330
       222.000         166.000
  22149841.045      -21168.05249    -24714.93246  22149840.754    22149848.753
       233.000         184.000
  22703927.927     9910755.66249   7376350.86946  22703927.608    22703934.461
       232.000         181.000
  24339275.564    -2452409.95649  -1912390.63944  24339273.731    24339282.727
       207.000         125.000
  23829436.598     -512693.30249   -411221.50945  23829436.065    23829445.791
       212.000         149.000
  22448175.003   -12003793.90649  -9354497.09546  22448174.422    22448183.243
       233.000         179.000
 02  7 11 16 48 30.0000000  0 11G 6G 2G18G17G15G29G26G23G 3G22G21
  21465392.676     6663148.54249   4934475.31547  21465392.688    21465400.682
       237.000         195.000
  24869028.765     1755769.13049   1363450.35245  24869028.110    24869038.820
       205.000         142.000
  20477700.178    -8002346.31849  -6238299.75847  20477699.723    20477704.973
       242.000         212.000
  20650415.012    -2973597.94049  -2328122.44347  20650414.296    20650421.174
       242.000         206.000
  20619542.552    -5537833.43949  -4324430.42947  20619541.848    20619548.534
       245.000         209.000
  23171375.856     2973042.35449   2124916.05546  23171376.000    23171382.623
       223.000         166.000
  22159007.574       27002.43749     12820.46446  22159006.759    22159015.281
       233.000         184.000
  22718626.974     9987999.86649   7436541.11246  22718625.473    22718633.590
       229.000         180.000
  24320531.089    -2550912.27449  -1989145.67044  24320529.328    24320539.902
       208.000         128.000
  23836466.114     -475753.76349   -382437.56245  23836465.328    23836477.074
       212.000         149.000
  22437252.546   -12061191.46649  -9399222.39646  22437251.094    22437259.871
       231.000         178.000
 02  7 11 16 49  0.0000000  0 11G 6G 2G18G17G15G29G26G23G 3G22G21
  21480028.750     6740061.34349   4994407.26747  21480028.286    21480037.077
       237.000         195.000
  24866736.153     1743721.64449   1354062.62145  24866737.516    24866747.791
       209.000         141.000
  20474248.357    -8020485.96249  -6252434.52847  20474247.703    20474253.064
       242.000         212.000
  20649090.515    -2980558.21749  -2333546.03747  20649089.663    20649096.742
       241.000         206.000
  20615470.146    -5559234.10349  -4341106.26847  20615469.408    20615476.175
       245.000         209.000
  23182422.296     3031091.31249   2170148.93546  23182422.153    23182429.466
       220.000         166.000
  22168287.276       75766.98649     50818.77246  22168287.554    22168294.424
       234.000         183.000
  22733344.345    10065340.45349   7496806.44046  22733343.364    22733351.306
       231.000         179.000
  24301818.280    -2649249.13049  -2065771.78344  24301816.912    24301827.931
       209.000         130.000
  23843571.758     -438412.85049   -353340.92345  23843571.399    23843581.900
       214.000         149.000
  22426382.436   -12118313.97749  -9443733.35346  22426382.119    22426389.942
       232.000         177.000
 02  7 11 16 49 30.0000000  0 11G 6G 2G18G17G15G29G26G23G 3G22G21
  21494740.557     6817372.13449   5054649.35447  21494739.881    21494749.147
       236.000         194.000
  24864524.723     1732099.90749   1345006.62545  24864523.758    24864534.659
       202.000         139.000
  20470875.534    -8038210.16249  -6266245.57547  20470875.008    20470880.278
       242.000         212.000
  20647802.646    -2987325.93449  -2338819.59647  20647801.874    20647808.711
       242.000         206.000
  20611437.896    -5580423.82549  -4357617.74647  20611436.989    20611443.803
       245.000         209.000
  23193554.599     3089592.20349   2215733.97046  23193554.137    23193563.458
       219.000         166.000
  22177679.673      125124.29649     89278.96446  22177679.962    22177687.451
       234.000         183.000
  22748079.888    10142775.98049   7557145.73846  22748079.632    22748086.890
       231.000         179.000
  24283137.238    -2747417.74449  -2142266.78345  24283135.705    24283147.630
       206.000         132.000
  23850753.758     -400672.52749   -323932.97845  23850752.867    23850762.317
       215.000         149.000
  22415564.864   -12175160.84249  -9488029.53746  22415564.228    22415573.078
       234.000         180.000
 02  7 11 16 50  0.0000000  0 11G 6G 2G18G17G15G29G26G23G 3G22G21
  21509527.696     6895079.16649   5115200.19047  21509527.354    21509536.456
       236.000         194.000
  24862394.024     1720903.40749   1336282.01045  24862394.063    24862405.923
       203.000         139.000
  20467581.666    -8055519.59749  -6279733.42947  20467580.919    20467586.508
       242.000         212.000
  20646551.475    -2993900.75149  -2343942.83547  20646550.780    20646557.662
       241.000         205.000
  20607445.908    -5601402.02949  -4373964.40547  20607445.013    20607451.705
       245.000         210.000
  23204772.440     3148542.95549   2261669.55346  23204772.250    23204780.232
       222.000         166.000
  22187184.592      175072.42349    128199.54446  22187184.822    22187192.032
       234.000         183.000
  22762833.113    10220304.65749   7617557.62846  22762832.869    22762839.897
       233.000         179.000
  24264488.569    -2845415.53149  -2218628.63845  24264487.055    24264497.263
       207.000         136.000
  23858011.015     -362535.10649   -294215.67045  23858011.053    23858021.078
       216.000         150.000
  22404799.655   -12231732.50149  -9532111.27846  22404798.651    22404807.933
       232.000         182.000
 02  7 11 16 50 30.0000000  0 11G 6G 2G18G17G15G29G26G23G 3G22G21
  21524389.576     6973178.36349   5176056.60747  21524389.685    21524397.872
       237.000         194.000
  24860344.069     1710129.44549   1327886.62445  24860344.921    24860354.314
       203.000         136.000
  20464366.075    -8072417.63749  -6292900.71847  20464365.405    20464370.795
       242.000         211.000
  20645336.693    -3000284.26349  -2348917.01247  20645335.781    20645342.882
       241.000         205.000
  20603493.794    -5622170.52449  -4390147.64947  20603493.089    20603499.665
       245.000         210.000
  23216075.236     3207939.60049   2307952.58246  23216075.056    23216083.568
       222.000         165.000
  22196801.192      225607.20649    167577.24146  22196800.904    22196807.951
       232.000         182.000
  22777603.502    10297922.28349   7678038.83746  22777603.343    22777610.260
       231.000         180.000
  24245872.592    -2943242.54649  -2294857.43745  24245873.691    24245880.514
       205.000         135.000
  23865343.053     -324005.41149   -264192.67345  23865343.467    23865351.016
       216.000         149.000
  22394086.300   -12288030.99449  -9575980.18046  22394084.998    22394094.291
       233.000         183.000
 02  7 11 16 51  0.0000000  0 11G 6G 2G18G17G15G29G26G23G 3G22G21
  21539326.485     7051671.54149   5237220.00647  21539326.335    21539334.568
       238.000         194.000
  24858374.851     1699780.98849   1319822.84245  24858375.944    24858388.655
       204.000         134.000
  20461229.400    -8088900.96849  -6305744.86247  20461228.676    20461233.895
       241.000         211.000
  20644159.248    -3006472.00449  -2353738.64447  20644158.796    20644165.231
       242.000         205.000
  20599582.331    -5642725.12549  -4406164.22247  20599581.367    20599588.380
       245.000         210.000
  23227463.298     3267783.99349   2354584.51246  23227463.302    23227471.967
       224.000         166.000
  22206529.579      276730.50849    207413.53346  22206529.290    22206536.899
       231.000         181.000
  22792391.189    10375630.73049   7738590.81946  22792390.726    22792398.123
       231.000         180.000
  24227290.743    -3040892.57249  -2370948.30245  24227289.467    24227300.249
       208.000         133.000
  23872750.154     -285081.95349   -233862.82745  23872749.330    23872761.371
       214.000         149.000
  22383425.734   -12344052.42549  -9619633.19246  22383424.438    22383434.097
       233.000         183.000
 02  7 11 16 51 30.0000000  0 11G 6G 2G18G17G15G29G26G23G 3G22G21
  21554337.840     7130556.09449   5298688.37247  21554337.812    21554345.422
       236.000         193.000
  24856486.417     1689856.76449   1312089.56545  24856485.993    24856494.816
       199.000         133.000
  20458171.291    -8104971.20249  -6318267.10647  20458170.523    20458176.211
       241.000         211.000
  20643019.079    -3012464.11349  -2358407.83647  20643018.326    20643025.135
       242.000         206.000
  20595711.736    -5663065.78149  -4422014.09547  20595711.046    20595717.550
       245.000         210.000
  23238936.186     3328073.35549   2401563.16246  23238936.479    23238944.367
       222.000         166.000
  22216369.533      328439.92849    247706.52446  22216369.228    22216375.675
       231.000         180.000
  22807195.457    10453427.51149   7799211.62246  22807194.598    22807201.869
       231.000         180.000
  24208742.504    -3138364.05149  -2446900.08344  24208740.768    24208752.453
       201.000         131.000
  23880231.415     -245767.62949   -203228.46745  23880230.770    23880242.211
       212.000         149.000
  22372817.575   -12399797.77349  -9663071.08346  22372816.851    22372825.603
       233.000         183.000
 02  7 11 16 52  0.0000000  0 11G 6G 2G18G17G15G29G26G23G 3G22G21
  21569423.071     7209829.24749   5360459.55647  21569422.829    21569431.517
       235.000         192.000
  24854678.551     1680355.72149   1304686.08445  24854678.574    24854691.257
       199.000         132.000
  20455191.505    -8120629.80049  -6330468.59447  20455191.036    20455196.396
       241.000         211.000
  20641916.046    -3018260.65749  -2362924.63347  20641915.239    20641922.271
       242.000         206.000
  20591881.711    -5683192.62649  -4437697.35447  20591880.718    20591887.706
       245.000         210.000
  23250493.010     3388804.66249   2448886.21246  23250493.268    23250501.829
       224.000         166.000
  22226320.502      380732.38449    288453.84446  22226320.269    22226327.955
       231.000         180.000
  22822016.025    10531309.95449   7859899.18546  22822015.048    22822022.981
       229.000         179.000
  24190228.596    -3235655.50349  -2522711.50645  24190228.463    24190235.607
       206.000         132.000
  23887786.482     -206065.76849   -172292.06645  23887785.570    23887797.220
       213.000         149.000
  22362261.952   -12455268.03949  -9706294.61246  22362261.518    22362269.527
       233.000         182.000
 02  7 11 16 52 30.0000000  0 11G 6G 2G18G17G15G29G26G23G 3G22G21
  21584582.001     7289489.87849   5422532.67747  21584581.835    21584590.330
       235.000         192.000
  24852950.953     1671277.96949   1297612.38045  24852949.611    24852959.681
       201.000         132.000
  20452290.113    -8135876.86849  -6342349.41047  20452289.435    20452294.722
       241.000         211.000
  20640850.534    -3023860.20449  -2367287.93147  20640849.837    20640856.697
       242.000         206.000
  20588092.684    -5703104.28949  -4453212.94147  20588091.851    20588098.576
       245.000         209.000
  23262133.985     3449976.84149   2496552.78746  23262133.940    23262140.252
       223.000         165.000
  22236382.248      433606.85849    329654.68146  22236381.903    22236389.826
       231.000         181.000
  22836852.540    10609277.04549   7920652.70646  22836851.567    22836859.460
       228.000         177.000
  24171749.425    -3332763.89349  -2598380.38345  24171748.597    24171759.145
       205.000         132.000
  23895415.001     -165978.07449   -141055.02445  23895414.029    23895426.416
       211.000         149.000
  22351758.794   -12510462.54449  -9749303.25046  22351758.110    22351766.889
       234.000         181.000
 02  7 11 16 53  0.0000000  0 11G 6G 2G18G17G15G29G26G23G 3G22G21
  21599814.167     7369535.25549   5484905.59847  21599814.230    21599822.973
       236.000         192.000
  24851304.235     1662622.13349   1290867.51344  24851303.361    24851315.485
       199.000         131.000
  20449466.649    -8150714.10949  -6353910.88147  20449466.079    20449471.638
       241.000         211.000
  20639822.405    -3029262.95249  -2371497.87547  20639821.909    20639828.554
       242.000         206.000
  20584344.514    -5722801.11749  -4468561.12047  20584343.575    20584350.570
       245.000         209.000
  23273858.170     3511587.17649   2544560.79246  23273857.804    23273865.604
       222.000         166.000
  22246554.154      487060.55549    371306.85746  22246553.951    22246561.757
       231.000         181.000
  22851704.739    10687326.24149   7981470.20346  22851704.304    22851711.839
       229.000         177.000
  24153305.706    -3429687.60349  -2673905.29445  24153304.555    24153313.110
       208.000         135.000
  23903116.315     -125507.73249   -109519.80645  23903116.926    23903125.391
       213.000         148.000
  22341307.951   -12565382.08549  -9792097.62746  22341307.165    22341315.785
       235.000         181.000
 02  7 11 16 53 30.0000000  0 11G 6G 2G18G17G15G29G26G23G 3G22G21
  21615119.490     7449964.32649   5547577.49547  21615119.564    21615128.167
       237.000         194.000
  24849737.461     1654388.32749   1284451.47044  24849736.855    24849747.412
       202.000         131.000
  20446721.173    -8165141.79649  -6365153.22347  20446720.310    20446725.718
       241.000         211.000
  20638832.056    -3034467.60849  -2375553.45847  20638831.035    20638838.144
       242.000         206.000
  20580637.479    -5742281.66249  -4483740.76447  20580636.552    20580643.446
       245.000         209.000
  23285665.312     3573634.15849   2592909.02846  23285666.179    23285672.404
       223.000         167.000
  22256836.031      541092.22549    413409.42346  22256836.203    22256844.358
       230.000         181.000
  22866572.376    10765456.40149   8042350.78246  22866572.032    22866580.362
       229.000         178.000
  24134897.391    -3526423.28449  -2749283.74845  24134894.900    24134905.667
       204.000         133.000
  23910890.125      -84656.29749    -77687.64045  23910889.616    23910900.539
       211.000         149.000
  22330909.641   -12620025.77849  -9834677.06046  22330908.534    22330917.235
       233.000         181.000
 02  7 11 16 54  0.0000000  0 11G 6G 2G18G17G15G29G26G23G 3G22G21
  21630497.447     7530775.15049   5610546.86147  21630497.568    21630505.836
       237.000         194.000
  24848250.706     1646576.12649   1278363.93144  24848250.214    24848263.201
       206.000         131.000
  20444053.519    -8179160.34249  -6376076.76547  20444053.117    20444058.290
       241.000         211.000
  20637879.492    -3039473.02249  -2379453.79847  20637878.474    20637885.641
       241.000         205.000
  20576971.703    -5761545.36249  -4498751.44647  20576970.690    20576977.828
       245.000         210.000
  23297555.227     3636115.98349   2641596.12646  23297554.269    23297563.794
       221.000         167.000
  22267227.518      595699.95549    455960.85746  22267227.309    22267234.773
       230.000         181.000
  22881455.204    10843665.91749   8103293.18346  22881455.438    22881462.660
       230.000         178.000
  24116524.669    -3622968.78349  -2824513.93544  24116524.218    24116535.426
       205.000         130.000
  23918736.053      -43426.21449    -45560.42245  23918734.165    23918745.808
       211.000         149.000
  22320563.592   -12674393.87449  -9877041.75046  22320562.276    22320571.672
       234.000         181.000
 02  7 11 16 54 30.0000000  0 11G 6G 2G18G17G15G29G26G23G 3G22G21
  21645947.561     7611965.57749   5673812.01847  21645947.163    21645955.407
       235.000         192.000
  24846844.595     1639184.85449   1272604.41444  24846842.869    24846855.349
       200.000         131.000
  20441463.523    -8192770.68349  -6386682.22147  20441462.670    20441468.416
       240.000         211.000
  20636964.949    -3044278.82949  -2383198.60147  20636964.287    20636971.436
       242.000         205.000
  20573347.278    -5780591.54649  -4513592.64947  20573346.469    20573353.243
       245.000         210.000
  23309527.521     3699030.41749   2690620.33146  23309528.369    23309535.983
       224.000         168.000
  22277728.245      650881.64549    498959.52146  22277728.709    22277736.757
       231.000         180.000
  22896352.896    10921952.84949   8164295.91846  22896352.005    22896359.736
       229.000         177.000
  24098189.288    -3719321.89849  -2899594.23545  24098187.952    24098199.842
       205.000         132.000
  23926653.597       -1819.88149    -13140.04645  23926652.433    23926664.068
       214.000         151.000
  22310269.929   -12728486.94549  -9919192.15046  22310268.842    22310278.029
       233.000         182.000
 02  7 11 16 55  0.0000000  0 11G 6G 2G18G17G15G29G26G23G 3G22G21
  21661469.274     7693533.14549   5737371.04247  21661468.797    21661477.314
       234.000         189.000
  24845517.817     1632213.19549   1267171.84045  24845516.077    24845529.362
       203.000         133.000
  20438950.927    -8205974.32849  -6396970.78447  20438950.259    20438955.553
       241.000         211.000
  20636088.469    -3048884.88949  -2386787.75847  20636088.024    20636094.997
       242.000         206.000
  20569764.295    -5799420.15349  -4528264.31047  20569763.469    20569770.545
       245.000         210.000
  23321581.907     3762375.11749   2739979.79846  23321581.825    23321589.401
       223.000         168.000
  22288337.832      706634.66649    542403.40046  22288337.855    22288345.556
       230.000         180.000
  22911264.719    11000314.90349   8225357.17646  22911263.832    22911271.635
       230.000         177.000
  24079891.082    -3815480.64649  -2974523.05945  24079892.307    24079900.053
       210.000         135.000
  23934642.182       40159.64849     19571.14045  23934642.592    23934652.865
       216.000         152.000
  22300028.538   -12782305.58649  -9961128.70546  22300027.812    22300036.433
       234.000         183.000
 02  7 11 16 55 30.0000000  0 11G 6G 2G18G17G15G29G26G23G 3G22G21
  21677062.695     7775477.42549   5801223.61347  21677062.352    21677071.289
       233.000         188.000
  24844271.023     1625662.09849   1262067.00845  24844269.720    24844280.912
       205.000         133.000
  20436515.842    -8218770.75549  -6406942.02647  20436515.165    20436520.690
       240.000         211.000
  20635250.478    -3053288.94449  -2390219.50247  20635249.684    20635256.869
       243.000         206.000
  20566223.141    -5818029.12149  -4542764.81047  20566222.261    20566229.447
       245.000         210.000
  23333717.723     3826149.22149   2789673.85746  23333716.884    23333725.511
       222.000         168.000
  22299056.001      762958.40849    586291.99146  22299056.335    22299063.710
       232.000         180.000
  22926190.953    11078751.86349   8286476.82946  22926190.768    22926197.815
       229.000         178.000
  24061630.474    -3911441.04749  -3049297.34245  24061629.341    24061640.366
       206.000         136.000
  23942701.745       82511.42349     52572.38345  23942701.043    23942712.843
       216.000         153.000
  22289839.668   -12835848.27649 -10002850.24346  22289839.275    22289847.467
       235.000         184.000
 02  7 11 16 56  0.0000000  0 11G 6G 2G18G17G15G29G26G23G 3G22G21
  21692727.339     7857794.98649   5865367.05947  21692727.617    21692736.044
       236.000         190.000
  24843104.349     1619529.47349   1257288.21645  24843104.577    24843116.058
       212.000         136.000
  20434157.800    -8231162.04749  -6416597.57447  20434157.357    20434162.654
       241.000         211.000
  20634450.747    -3057491.74549  -2393494.42247  20634449.898    20634457.093
       241.000         206.000
  20562723.628    -5836419.08449  -4557094.65147  20562722.993    20562729.912
       245.000         210.000
  23345934.427     3890349.29849   2839699.87146  23345934.086    23345943.124
       220.000         167.000
  22309882.110      819849.47049    630622.66346  22309881.630    22309890.337
       230.000         179.000
  22941130.796    11157260.67349   8347652.47246  22941129.966    22941138.499
       229.000         178.000
  24043407.403    -4007202.12549  -3123916.27945  24043406.096    24043417.164
       207.000         134.000
  23950831.206      125231.55149     85860.64745  23950830.305    23950841.037
       215.000         149.000
  22279703.120   -12889116.25249 -10044357.69246  22279702.393    22279710.939
       236.000         185.000
 02  7 11 16 56 30.0000000  0 11G 6G 2G18G17G15G29G26G23G 3G22G21
  21708462.981     7940484.91749   5929800.65647  21708463.244    21708472.002
       237.000         192.000
  24842017.226     1613815.83449   1252835.93545  24842017.529    24842028.591
       209.000         134.000
  20431876.998    -8243148.03349  -6425937.31347  20431876.506    20431882.081
       241.000         211.000
  20633689.563    -3061491.36349  -2396611.02347  20633688.934    20633695.794
       242.000         206.000
  20559266.203    -5854588.36749  -4571252.53547  20559265.517    20559272.468
       245.000         210.000
  23358232.076     3954974.45349   2890057.10746  23358231.693    23358241.152
       224.000         166.000
  22320815.891      877306.78849    675394.57046  22320816.141    22320823.482
       231.000         178.000
  22956084.128    11235840.67049   8408883.57846  22956083.464    22956091.722
       228.000         178.000
  24025223.293    -4102760.41049  -3198377.23844  24025223.294    24025232.388
       204.000         131.000
  23959030.483      168318.63149    119434.85845  23959030.258    23959041.467
       213.000         147.000
  22269619.016   -12942108.64349 -10085650.40546  22269618.364    22269626.487
       236.000         185.000
 02  7 11 16 57  0.0000000  0 11G 6G 2G18G17G15G29G26G23G 3G22G21
  21724268.766     8023543.75349   5994521.71147  21724269.051    21724277.696
       236.000         191.000
  24841009.102     1608518.88549   1248708.33845  24841007.259    24841020.517
       210.000         133.000
  20429672.823    -8254731.08849  -6434963.07247  20429672.192    20429677.762
       241.000         212.000
  20632966.995    -3065288.53049  -2399569.86447  20632966.674    20632973.208
       243.000         206.000
  20555850.513    -5872537.75649  -4585239.07247  20555849.561    20555856.924
       244.000         210.000
  23370610.300     4020021.11849   2940742.78546  23370610.093    23370618.110
       223.000         167.000
  22331856.756      935326.74749    720604.90446  22331856.447    22331865.344
       230.000         179.000
  22971050.318    11314488.52849   8470167.59046  22971049.613    22971057.599
       228.000         177.000
  24007078.107    -4198115.14849  -3272679.55544  24007079.345    24007086.291
       208.000         130.000
  23967298.754      211768.81249    153291.97545  23967298.984    23967308.459
       212.000         144.000
  22259587.030   -12994827.11449 -10126729.67146  22259586.169    22259594.426
       236.000         184.000
 02  7 11 16 57 30.0000000  0 11G 6G 2G18G17G15G29G26G23G 3G22G21
  21740144.727     8106971.88249   6059530.53347  21740144.741    21740153.488
       236.000         190.000
  24840080.897     1603640.25449   1244906.70045  24840081.769    24840093.375
       211.000         133.000
  20427545.637    -8265909.81649  -6443673.77847  20427545.285    20427550.462
       242.000         212.000
  20632283.626    -3068880.20149  -2402368.58447  20632282.998    20632289.989
       242.000         206.000
  20552477.309    -5890264.22849  -4599051.91147  20552476.597    20552483.473
       244.000         210.000
  23383068.524     4085489.50449   2991757.11746  23383067.549    23383075.297
       223.000         166.000
  22343004.788      993909.58049    766253.84646  22343004.980    22343012.896
       232.000         179.000
  22986029.468    11393204.95649   8531505.00246  22986029.043    22986037.300
       227.000         176.000
  23988972.540    -4293261.56049  -3346819.57944  23988972.330    23988981.347
       208.000         129.000
  23975636.104      255581.91449    187431.93245  23975635.313    23975646.911
       209.000         141.000
  22249607.493   -13047269.89749 -10167594.12046  22249606.678    22249614.908
       234.000         183.000
 02  7 11 16 58  0.0000000  0 11G 6G 2G18G17G15G29G26G23G 3G22G21
  21756089.839     8190763.80949   6124822.84247  21756089.772    21756097.986
       235.000         189.000
  24839231.465     1599175.72749   1241427.72445  24839229.639    24839240.353
       211.000         133.000
  20425494.603    -8276688.32949  -6452072.62647  20425493.985    20425499.320
       242.000         212.000
  20631638.817    -3072269.00949  -2405009.23147  20631638.204    20631645.289
       242.000         206.000
  20549146.027    -5907770.48449  -4612693.15147  20549145.123    20549152.164
       245.000         210.000
  23395605.811     4151374.12449   3043095.74646  23395605.679    23395613.378
       221.000         166.000
  22354258.951     1053049.69149    812337.02146  22354258.829    22354266.163
       231.000         179.000
  23001020.831    11471984.86949   8592891.90346  23001020.615    23001028.539
       229.000         177.000
  23970906.572    -4388200.54749  -3420797.94045  23970906.027    23970915.771
       207.000         132.000
  23984041.518      299752.01149    221850.02245  23984040.684    23984052.294
       206.000         140.000
  22239679.740   -13099440.06049 -10208246.14846  22239678.691    22239686.906
       234.000         182.000
 02  7 11 16 58 30.0000000  0 11G 6G 2G18G17G15G29G26G23G 3G22G21
  21772104.674     8274922.08449   6190400.60247  21772104.746    21772113.173
       235.000         188.000
  24838461.487     1595129.21649   1238274.50945  24838461.511    24838474.264
       209.000         134.000
  20423520.298    -8287063.34149  -6460157.05947  20423519.941    20423525.011
       242.000         212.000
  20631033.500    -3075449.85649  -2407487.82947  20631032.893    20631039.789
       243.000         206.000
  20545857.589    -5925051.63049  -4626158.97247  20545856.819    20545863.844
       245.000         210.000
  23408222.800     4217677.17449   3094760.46046  23408222.265    23408230.981
       221.000         167.000
  22365619.385     1112749.29949    858856.19146  22365618.774    22365627.080
       230.000         179.000
  23016025.036    11550831.07849   8654330.45746  23016024.928    23016033.615
       230.000         178.000
  23952881.209    -4482925.18849  -3494609.28345  23952881.545    23952889.482
       209.000         132.000
  23992515.100      344281.05849    256547.84545  23992515.097    23992525.543
       209.000         138.000
  22229804.732   -13151333.43549 -10248682.49546  22229803.827    22229812.313
       234.000         183.000
 02  7 11 16 59  0.0000000  0 11G 6G 2G18G17G15G29G26G23G 3G22G21
  21788188.462     8359442.26249   6256260.34946  21788188.551    21788196.131
       236.000         187.000
  24837770.376     1591497.64749   1235444.60745  24837770.189    24837782.034
       211.000         133.000
  20421622.252    -8297037.68349  -6467929.27547  20421621.536    20421627.145
       241.000         212.000
  20630467.588    -3078424.25249  -2409805.55147  20630467.005    20630473.897
       244.000         206.000
  20542611.625    -5942109.07949  -4639450.48047  20542610.816    20542617.850
       245.000         210.000
  23420918.581     4284394.16249   3146747.70846  23420917.876    23420927.581
       221.000         166.000
  22377085.466     1173003.98749    905807.88746  22377085.716    22377092.104
       230.000         178.000
  23031041.092    11629739.60649   8715817.56646  23031040.872    23031047.998
       230.000         177.000
  23934896.496    -4577435.12849  -3568253.30145  23934895.856    23934902.793
       206.000         134.000
  24001056.275      389164.25149    291521.62145  24001056.185    24001067.337
       209.000         141.000
  22219981.795   -13202952.76549 -10288905.30846  22219980.857    22219989.139
       235.000         185.000
 02  7 11 16 59 30.0000000  0 11G 6G 2G18G17G15G29G26G23G 3G22G21
  21804340.897     8444323.10349   6322401.13647  21804340.949    21804348.963
       235.000         188.000
  24837158.545     1588280.80149   1232937.85645  24837156.844    24837169.149
       209.000         135.000
  20419800.342    -8306611.64749  -6475389.50947  20419799.577    20419805.327
       241.000         211.000
  20629941.226    -3081190.65349  -2411961.20747  20629940.479    20629947.548
       244.000         206.000
  20539408.552    -5958941.40049  -4652566.56147  20539407.774    20539415.028
       245.000         211.000
  23433693.014     4351524.04349   3199056.67346  23433693.052    23433701.007
       221.000         167.000
  22388656.913     1233812.29449    953190.96346  22388656.296    22388664.870
       230.000         177.000
  23046068.627    11708709.59149   8777352.56446  23046068.329    23046075.692
       229.000         176.000
  23916953.122    -4671727.48049  -3641727.80745  23916952.678    23916960.963
       208.000         135.000
  24009664.470      434399.85149    326769.97345  24009663.496    24009675.800
       209.000         144.000
  22210211.199   -13254297.47449 -10328914.14046  22210210.861    22210218.937
       236.000         187.000
 02  7 11 17  0  0.0000000  0 11G 6G 2G18G17G15G29G26G23G 3G22G21
  21820561.447     8529562.16849   6388821.06147  21820561.160    21820569.843
       234.000         188.000
  24836625.214     1585477.67349   1230753.49445  24836623.693    24836638.945
       207.000         133.000
  20418054.406    -8315786.63449  -6482538.85747  20418053.975    20418059.207
       241.000         211.000
  20629454.424    -3083748.49549  -2413954.34547  20629453.766    20629460.488
       244.000         206.000
  20536248.371    -5975548.25249  -4665506.96147  20536247.632    20536254.308
       245.000         210.000
  23446545.511     4419064.15049   3251685.31846  23446545.274    23446553.917
       221.000         167.000
  22400333.262     1295171.68449   1001003.44546  22400333.272    22400340.444
       229.000         176.000
  23061107.321    11787738.99749   8838933.83446  23061106.338    23061115.745
       228.000         175.000
  23899051.609    -4765800.06549  -3715031.03745  23899049.942    23899060.454
       205.000         137.000
  24018339.144      479984.89049    362290.64645  24018338.710    24018349.490
       213.000         146.000
  22200492.927   -13305367.52049 -10368708.92747  22200492.669    22200500.817
       237.000         188.000
 02  7 11 17  0 30.0000000  0 11G 6G 2G18G17G15G29G26G23G 3G22G21
  21836849.858     8615158.31249   6455519.23947  21836849.604    21836858.025
       233.000         188.000
  24836170.600     1583088.38049   1228891.60445  24836168.368    24836182.559
       210.000         135.000
  20416384.393    -8324562.37749  -6489377.09447  20416383.922    20416389.454
       241.000         211.000
  20629007.738    -3086096.29949  -2415783.81547  20629007.285    20629013.852
       245.000         207.000
  20533131.462    -5991927.83049  -4678270.26847  20533130.599    20533137.548
       245.000         210.000
  23459475.720     4487013.23649   3304632.63746  23459475.623    23459483.517
       223.000         166.000
  22412114.062     1357080.83949   1049244.32946  22412113.737    22412121.889
       227.000         176.000
  23076157.359    11866827.10749   8900560.88046  23076157.359    23076165.560
       227.000         175.000
  23881192.175    -4859649.57849  -3788160.47445  23881189.297    23881200.069
       206.000         136.000
  24027079.899      525917.86549    398082.42445  24027079.039    24027091.683
       212.000         148.000
  22190826.986   -13356162.74449 -10408289.57247  22190825.951    22190835.140
       236.000         188.000
 02  7 11 17  1  0.0000000  0 11G 6G 2G18G17G15G29G26G23G 3G22G21
  21853205.520     8701107.99749   6522492.91246  21853205.111    21853215.341
       233.000         187.000
  24835794.272     1581110.62049   1227350.33745  24835793.298    24835805.606
       212.000         135.000
  20414789.953    -8332941.65649  -6495906.40047  20414789.595    20414794.928
       241.000         211.000
  20628600.912    -3088234.55549  -2417449.99947  20628600.167    20628607.127
       244.000         207.000
  20530057.637    -6008081.00249  -4690857.16147  20530056.737    20530063.441
       245.000         210.000
  23472483.375     4555367.66349   3357895.81346  23472484.067    23472492.626
       223.000         168.000
  22423998.699     1419535.95949   1097910.65846  22423998.739    22424006.970
       227.000         176.000
  23091217.949    11945970.88149   8962231.30746  23091217.793    23091225.416
       227.000         175.000
  23863375.543    -4953274.98049  -3861115.28445  23863375.569    23863384.442
       209.000         138.000
  24035886.347      572194.73749    434142.20245  24035886.522    24035897.150
       215.000         150.000
  22181212.922   -13406684.63149 -10447657.23246  22181212.206    22181220.692
       236.000         187.000
 02  7 11 17  1 30.0000000  0 11G 6G 2G18G17G15G29G26G23G 3G22G21
  21869628.431     8787410.49149   6589741.48446  21869628.731    21869637.026
       233.000         186.000
  24835496.626     1579544.76249   1226130.09545  24835497.853    24835508.175
       212.000         138.000
  20413270.938    -8340924.08449  -6502126.47447  20413270.217    20413275.746
       241.000         211.000
  20628234.184    -3090161.28649  -2418951.36847  20628233.341    20628240.515
       245.000         207.000
  20527027.328    -6024005.60149  -4703265.94047  20527026.495    20527033.073
       247.000         209.000
  23485567.843     4624126.52749   3411474.13646  23485567.040    23485576.068
       225.000         167.000
  22435987.209     1482536.14149   1147001.69346  22435987.109    22435995.118
       227.000         176.000
  23106288.923    12025169.85249   9023944.72646  23106288.569    23106296.168
       226.000         174.000
  23845602.433    -5046672.58249  -3933892.58445  23845601.803    23845611.820
       207.000         141.000
  24044757.921      618814.27849    470468.97945  24044757.111    24044768.983
       213.000         149.000
  22171651.160   -13456931.83549 -10486810.86646  22171649.966    22171659.367
       235.000         186.000
 02  7 11 17  2  0.0000000  0 11G 6G 2G18G17G15G29G26G23G 3G22G21
  21886117.988     8874063.28449   6657263.01646  21886117.946    21886126.585
       235.000         186.000
  24835277.070     1578389.56649   1225229.85145  24835274.597    24835288.354
       208.000         137.000
  20411827.210    -8348510.90649  -6508038.28647  20411826.746    20411832.196
       242.000         212.000
  20627907.852    -3091876.19549  -2420287.67847  20627907.107    20627914.285
       245.000         207.000
  20524040.519    -6039701.42849  -4715496.44747  20524039.933    20524046.236
       247.000         209.000
  23498728.888     4693287.29049   3465365.64046  23498728.169    23498736.816
       221.000         166.000
  22448078.920     1546078.54749   1196515.25046  22448078.998    22448086.524
       227.000         175.000
  23121370.190    12104422.10949   9085699.67746  23121369.629    23121377.715
       228.000         174.000
  23827872.699    -5139840.31749  -4006490.78945  23827872.077    23827882.755
       202.000         140.000
  24053694.172      665773.48949    507060.44145  24053693.924    24053705.536
       216.000         151.000
  22162141.474   -13506905.19749 -10525751.10146  22162140.429    22162149.169
       235.000         185.000
 02  7 11 17  2 30.0000000  0 11G 6G 2G18G17G15G29G26G23G 3G22G21
  21902673.865     8961064.00849   6725055.63246  21902674.104    21902682.540
       233.000         186.000
  24835135.216     1577643.67449   1224648.54445  24835135.344    24835145.544
       207.000         138.000
  20410458.598    -8355703.41949  -6513642.84447  20410458.074    20410463.579
       242.000         212.000
  20627621.978    -3093378.46849  -2421458.29647  20627621.315    20627628.259
       244.000         207.000
  20521097.293    -6055168.16349  -4727548.43947  20521096.451    20521103.223
       246.000         209.000
  23511965.623     4762847.48849   3519568.35146  23511964.815    23511973.564
       221.000         165.000
  22460273.298     1610160.62949   1246449.32746  22460273.296    22460280.248
       228.000         175.000
  23136461.290    12183725.91249   9147494.79346  23136460.252    23136468.777
       228.000         175.000
  23810187.319    -5232775.98049  -4078908.13245  23810187.260    23810197.492
       201.000         140.000
  24062694.372      713069.57449    543914.39045  24062694.233    24062705.503
       212.000         148.000
  22152683.836   -13556605.08649 -10564478.24046  22152683.237    22152691.623
       235.000         185.000
 02  7 11 17  3  0.0000000  0 11G 6G 2G18G17G15G29G26G23G 3G22G21
  21919295.505     9048410.72649   6793117.86546  21919295.617    21919304.048
       233.000         185.000
  24835070.953     1577306.62149   1224385.79445  24835071.997    24835082.071
       209.000         135.000
  20409164.856    -8362502.10049  -6518940.51647  20409164.380    20409169.655
       241.000         212.000
  20627376.767    -3094667.13849  -2422462.47347  20627375.815    20627383.034
       244.000         206.000
  20518197.859    -6070404.64449  -4739421.02647  20518196.978    20518203.940
       247.000         210.000
  23525278.238     4832805.20349   3574080.86646  23525278.419    23525285.368
       222.000         165.000
  22472570.190     1674780.47249   1296802.43246  22472569.464    22472578.779
       228.000         175.000
  23151561.830    12263079.93849   9209329.02246  23151561.368    23151568.929
       227.000         175.000
  23792546.763    -5325477.00049  -4151142.64645  23792548.042    23792557.404
       206.000         138.000
  24071758.296      760700.14949    581028.98145  24071758.069    24071768.872
       213.000         148.000
  22143278.230   -13606031.39949 -10602992.19946  22143277.608    22143286.040
       238.000         186.000
 02  7 11 17  3 30.0000000  0 11G 6G 2G18G17G15G29G26G23G 3G22G21
  21935982.460     9136101.08449   6861447.87146  21935982.096    21935990.960
       231.000         185.000
  24835084.588     1577377.29049   1224440.76345  24835083.689    24835097.616
       205.000         137.000
  20407945.757    -8368908.61449  -6523932.60847  20407945.064    20407950.792
       241.000         212.000
  20627172.206    -3095741.82249  -2423299.90847  20627171.596    20627178.726
       244.000         206.000
  20515342.292    -6085410.47449  -4751113.88547  20515341.455    20515348.499
       246.000         210.000
  23538666.035     4903157.85349   3628901.09246  23538666.131    23538673.802
       223.000         164.000
  22484968.714     1739935.31349   1347572.44646  22484969.360    22484977.094
       228.000         176.000
  23166671.576    12342482.12249   9271200.78746  23166670.578    23166679.544
       228.000         174.000
  23774951.631    -5417941.16549  -4223192.57445  23774951.064    23774961.181
       205.000         137.000
  24080885.400      808662.38749    618402.02945  24080884.231    24080896.380
       211.000         145.000
  22133924.582   -13655185.25849 -10641293.86647  22133923.903    22133932.612
       237.000         188.000
 02  7 11 17  4  0.0000000  0 11G 6G 2G18G17G15G29G26G23G 3G22G21
  21952734.299     9224132.82949   6930043.91246  21952734.018    21952743.995
       232.000         184.000
  24835175.576     1577854.67849   1224812.68545  24835173.747    24835185.065
       203.000         137.000
  20406801.086    -8374923.88149  -6528619.82647  20406800.306    20406805.853
       241.000         212.000
  20627008.493    -3096601.80349  -2423970.03547  20627007.940    20627015.050
       245.000         207.000
  20512530.758    -6100185.17849  -4762626.63647  20512529.761    20512537.037
       247.000         210.000
  23552128.641     4973903.13049   3684027.24946  23552128.101    23552136.036
       222.000         166.000
  22497468.800     1805622.60949   1398757.33446  22497469.146    22497477.035
       229.000         177.000
  23181790.305    12421930.73349   9333108.73546  23181789.831    23181798.140
       228.000         173.000
  23757402.157    -5510165.86949  -4295055.96045  23757403.762    23757411.346
       209.000         137.000
  24090074.981      856953.50949    656031.34645  24090074.788    24090085.881
       212.000         145.000
  22124622.769   -13704066.48649 -10679383.06947  22124622.003    22124630.423
       238.000         188.000
 02  7 11 17  4 30.0000000  0 11G 6G 2G18G17G15G29G26G23G 3G22G21
  21969550.779     9312503.70549   6998904.21146  21969550.816    21969560.205
       232.000         184.000
  24835343.565     1578737.74849   1225500.70445  24835343.489    24835354.592
       206.000         138.000
  20405730.666    -8380549.06649  -6533003.09147  20405730.227    20405735.391
       241.000         212.000
  20626885.947    -3097246.25649  -2424472.22347  20626885.354    20626892.492
       245.000         207.000
  20509763.430    -6114728.02149  -4773958.72647  20509762.887    20509769.751
       247.000         210.000
  23565665.101     5045038.71049   3739457.54546  23565664.630    23565674.332
       222.000         168.000
  22510069.596     1871839.90849   1450355.21946  22510069.753    22510077.395
       228.000         176.000
  23196917.565    12501424.42449   9395051.82346  23196915.440    23196924.432
       226.000         172.000
  23739898.942    -5602149.00949  -4366731.08745  23739900.049    23739907.822
       208.000         137.000
  24099326.682      905570.84749    693914.81945  24099325.544    24099337.479
       209.000         143.000
  22115372.860   -13752675.29449 -10717260.01247  22115372.416    22115380.257
       236.000         188.000
 02  7 11 17  5  0.0000000  0 11G 6G 2G18G17G15G29G26G23G 3G22G21
  21986431.687     9401212.74549   7068027.99946  21986432.340    21986441.092
       234.000         185.000
  24835589.294     1580026.68549   1226504.97945  24835588.390    24835599.969
       201.000         137.000
  20404734.421    -8385784.15749  -6537082.38847  20404733.567    20404739.525
       242.000         212.000
  20626804.776    -3097673.32049  -2424805.01847  20626804.021    20626811.228
       245.000         207.000
  20507040.609    -6129036.88649  -4785108.49947  20507039.692    20507046.770
       247.000         210.000
  23579275.940     5116563.62349   3795191.20046  23579276.257    23579283.116
       223.000         168.000
  22522771.121     1938586.09649   1502365.21946  22522770.910    22522778.480
       227.000         176.000
  23212053.218    12580962.81449   9457029.71646  23212052.111    23212061.753
       225.000         172.000
  23722442.077    -5693886.85049  -4438215.04545  23722441.965    23722449.880
       211.000         138.000
  24108640.151      954512.86749    732051.34045  24108638.567    24108649.484
       211.000         142.000
  22106174.713   -13801011.35849 -10754924.41846  22106174.004    22106182.880
       235.000         187.000
 02  7 11 17  5 30.0000000  0 11G 6G 2G18G17G15G29G26G23G 3G22G21
  22003376.475     9490257.02749   7137413.00646  22003376.220    22003385.788
       233.000         185.000
  24835911.470     1581719.60749   1227824.02345  24835910.877    24835923.586
       204.000         138.000
  20403812.177    -8390630.56349  -6540858.81548  20403811.825    20403817.193
       243.000         213.000
  20626764.906    -3097882.90149  -2424968.35147  20626764.088    20626771.179
       244.000         207.000
  20504362.231    -6143112.06949  -4796076.18547  20504361.256    20504368.081
       246.000         209.000
  23592960.118     5188474.57349   3851225.68946  23592959.504    23592968.029
       219.000         165.000
  22535572.472     2005857.78349   1554784.68846  22535572.648    22535580.463
       229.000         176.000
  23227196.830    12660543.56149   9519040.60246  23227196.546    23227205.213
       226.000         172.000
  23705032.173    -5785377.64349  -4509506.51845  23705030.379    23705040.145
       209.000         137.000
  24118014.671     1003776.28249    770438.25545  24118013.916    24118025.142
       212.000         143.000
  22097028.357   -13849075.32149 -10792376.79846  22097027.576    22097035.599
       236.000         187.000
 02  7 11 17  6  0.0000000  0 11G 6G 2G18G17G15G29G26G23G 3G22G21
  22020384.373     9579633.46449   7207056.83546  22020383.925    22020392.655
       232.000         183.000
  24836310.339     1583814.75249   1229456.51645  24836308.102    24836318.704
       201.000         134.000
  20402963.512    -8395090.57049  -6544334.14647  20402962.843    20402968.331
       242.000         212.000
  20626766.388    -3097874.96549  -2424962.18847  20626765.467    20626772.570
       244.000         207.000
  20501728.268    -6156953.32549  -4806861.58547  20501727.040    20501734.362
       246.000         209.000
  23606717.068     5260768.45549   3907558.55145  23606715.691    23606725.357
       216.000         162.000
  22548473.283     2073651.71649   1607611.10846  22548473.167    22548481.947
       228.000         176.000
  23242348.252    12740164.06049   9581082.47746  23242347.817    23242355.893
       228.000         173.000
  23687669.604    -5876619.87749  -4580604.30245  23687670.057    23687677.054
       212.000         139.000
  24127449.784     1053357.53949    809072.85445  24127448.595    24127460.892
       212.000         145.000
  22087933.461   -13896868.73449 -10829618.35746  22087932.682    22087941.199
       236.000         186.000
 02  7 11 17  6 30.0000000  0 11G 6G 2G18G17G15G29G26G23G 3G22G21
  22037455.342     9669341.95849   7276959.41446  22037454.798    22037463.453
       230.000         181.000
  24836785.824     1586313.32049   1231403.37945  24836782.763    24836797.953
       204.000         135.000
  20402188.491    -8399163.08249  -6547507.53647  20402187.999    20402193.560
       243.000         212.000
  20626809.788    -3097646.75749  -2424784.38047  20626809.267    20626815.899
       245.000         207.000
  20499139.300    -6170557.98649  -4817462.63347  20499138.482    20499145.386
       246.000         209.000
  23620546.840     5333445.47649   3964189.94145  23620547.066    23620553.536
       215.000         158.000
  22561473.453     2141967.60849   1660844.23946  22561473.307    22561480.983
       227.000         176.000
  23257507.466    12819824.91849   9643155.80646  23257507.662    23257514.736
       228.000         174.000
  23670354.816    -5967609.00849  -4651504.87445  23670353.116    23670362.781
       212.000         140.000
  24136945.201     1103256.00849    847954.65445  24136945.151    24136956.203
       211.000         144.000
  22078890.442   -13944389.76249 -10866647.66547  22078889.893    22078897.904
       237.000         188.000
 02  7 11 17  7  0.0000000  0 11G 6G 2G18G17G15G29G26G23G 3G22G21
  22054589.116     9759380.22049   7347118.95446  22054589.346    22054597.963
       233.000         180.000
  24837337.879     1589214.04249   1233663.58845  24837337.619    24837347.644
       205.000         134.000
  20401487.069    -8402849.36149  -6550379.97447  20401486.305    20401491.892
       242.000         212.000
  20626895.332    -3097197.39649  -2424434.25247  20626894.648    20626901.739
       243.000         207.000
  20496595.494    -6183925.45449  -4827878.85247  20496594.803    20496601.641
       245.000         209.000
  23634449.180     5406502.86249   4021117.72245  23634449.131    23634456.475
       217.000         157.000
  22574572.202     2210802.79249   1714482.01346  22574572.619    22574580.056
       228.000         174.000
  23272674.005    12899524.57449   9705259.37546  23272672.784    23272681.453
       228.000         175.000
  23653088.330    -6058342.78449  -4722206.47945  23653086.869    23653096.875
       208.000         141.000
  24146500.619     1153468.90449    887081.43445  24146500.196    24146511.791
       211.000         147.000
  22069899.370   -13991638.34749 -10903464.67547  22069898.727    22069906.579
       237.000         188.000
 02  7 11 17  7 30.0000000  0 11G 6G 2G18G17G15G29G26G23G 3G22G21
  22071785.229     9849744.82449   7417532.80446  22071785.621    22071794.876
       233.000         182.000
  24837965.860     1592514.61949   1236235.38445  24837964.755    24837976.163
       212.000         137.000
  20400858.677    -8406151.30349  -6552952.91947  20400858.180    20400863.807
       242.000         212.000
  20627022.824    -3096527.39549  -2423912.19647  20627022.420    20627029.855
       243.000         207.000
  20494096.838    -6197056.10449  -4838110.52547  20494096.003    20494103.254
       247.000         209.000
  23648423.560     5479937.17149   4078339.25145  23648424.137    23648431.312
       219.000         160.000
  22587769.307     2280153.66849   1768521.62246  22587768.853    22587777.483
       228.000         175.000
  23287847.370    12979260.46849   9767391.16646  23287846.839    23287855.479
       227.000         175.000
  23635870.845    -6148819.76349  -4792707.96645  23635870.357    23635879.684
       205.000         139.000
  24156115.065     1203992.54649    926450.36745  24156114.750    24156127.572
       207.000         145.000
  22060959.824   -14038616.05749 -10940070.62147  22060959.366    22060967.191
       239.000         189.000
 02  7 11 17  8  0.0000000  0 11G 6G 2G18G17G15G29G26G23G 3G22G21
  22089043.097     9940434.41449   7488199.88846  22089043.833    22089052.624
       232.000         184.000
  24838670.294     1596214.77949   1239118.51545  24838670.496    24838681.284
       216.000         140.000
  20400303.384    -8409069.47649  -6555226.82547  20400302.754    20400308.240
       243.000         212.000
  20627192.713    -3095634.96249  -2423216.81547  20627192.102    20627199.319
       243.000         207.000
  20491643.531    -6209948.57949  -4848156.62247  20491642.711    20491649.616
       246.000         210.000
  23662469.295     5553747.04149   4135853.39346  23662469.383    23662477.385
       221.000         164.000
  22601064.083     2350018.43149   1822961.65746  22601063.689    22601071.228
       227.000         174.000
  23303027.257    13059031.67349   9829550.46246  23303026.440    23303035.349
       228.000         175.000
  23618703.006    -6239036.64649  -4863006.74045  23618701.603    23618710.646
       204.000         138.000
  24165788.173     1254824.90349    966059.88145  24165788.932    24165799.438
       207.000         144.000
  22052071.897   -14085322.65749 -10976465.31547  22052070.879    22052079.151
       237.000         190.000
 02  7 11 17  8 30.0000000  0 11G 6G 2G18G17G15G29G26G23G 3G22G21
  22106362.352    10031446.08749   7559117.93946  22106362.574    22106371.983
       231.000         185.000
  24839450.424     1600312.96749   1242311.77245  24839449.687    24839459.274
       216.000         141.000
  20399820.788    -8411605.42549  -6557202.90147  20399820.208    20399825.481
       243.000         212.000
  20627404.950    -3094519.83149  -2422347.90547  20627404.265    20627411.157
       243.000         207.000
  20489235.477    -6222602.83449  -4858017.10547  20489234.598    20489241.690
       247.000         210.000
  23676585.758     5627929.53149   4193657.89346  23676584.212    23676593.688
       217.000         164.000
  22614456.189     2420394.11349   1877799.79846  22614455.718    22614464.540
       225.000         174.000
  23318213.485    13138836.24149   9891735.77646  23318211.798    23318220.990
       225.000         173.000
  23601584.512    -6328991.56049  -4933101.43645  23601584.593    23601592.985
       207.000         138.000
  24175519.393     1305962.76349   1005907.42145  24175517.887    24175531.214
       204.000         142.000
  22043235.288   -14131759.05949 -11012649.46047  22043234.406    22043242.705
       237.000         190.000
 02  7 11 17  9  0.0000000  0 11G 6G 2G18G17G15G29G26G23G 3G22G21
  22123742.614    10122779.70549   7630286.85546  22123742.382    22123752.294
       229.000         183.000
  24840306.315     1604810.17749   1245815.97445  24840304.815    24840319.407
       214.000         139.000
  20399411.125    -8413757.97849  -6558880.21247  20399410.512    20399416.249
       242.000         211.000
  20627660.060    -3093179.07749  -2421303.18247  20627659.568    20627666.296
       243.000         207.000
  20486873.384    -6235015.67649  -4867689.46547  20486872.683    20486879.678
       246.000         210.000
  23690772.885     5702484.48249   4251752.59345  23690772.729    23690780.981
       218.000         162.000
  22627945.238     2491280.12449   1933035.61646  22627945.209    22627952.888
       226.000         174.000
  23333405.974    13218674.77949   9953947.55846  23333404.410    23333413.621
       225.000         171.000
  23584517.354    -6418680.29149  -5002988.70145  23584517.198    23584526.337
       208.000         140.000
  24185308.387     1357405.53749   1045992.58445  24185309.798    24185319.841
       206.000         140.000
  22034450.461   -14177923.33349 -11048621.56847  22034449.828    22034457.880
       237.000         189.000
 02  7 11 17  9 30.0000000  0 11G 6G 2G18G17G15G29G26G23G 3G22G21
  22141183.497    10214432.63549   7701704.58246  22141183.108    22141192.288
       228.000         180.000
  24841237.943     1609704.75049   1249629.77145  24841236.720    24841246.580
       213.000         137.000
  20399074.165    -8415528.89449  -6560260.15247  20399073.725    20399079.095
       243.000         212.000
  20627958.337    -3091612.35549  -2420082.37847  20627957.712    20627964.806
       243.000         207.000
  20484557.317    -6247186.64149  -4877173.34747  20484556.667    20484563.778
       247.000         210.000
  23705030.714     5777409.12849   4310135.37745  23705030.439    23705038.220
       218.000         160.000
  22641530.943     2562673.63149   1988666.88046  22641531.294    22641539.027
       226.000         173.000
  23348604.814    13298545.44349  10016184.37746  23348604.787    23348612.776
       227.000         170.000
  23567501.367    -6508100.50549  -5072666.73045  23567501.578    23567510.447
       207.000         141.000
  24195155.277     1409150.16549   1086312.95745  24195155.193    24195167.529
       208.000         141.000
  22025717.252   -14223816.50549 -11084382.43347  22025716.574    22025724.638
       237.000         189.000
 02  7 11 17 10  0.0000000  0 11G 6G 2G18G17G15G29G26G23G 3G22G21
  22158684.587    10306401.45149   7773368.46346  22158684.572    22158692.884
       230.000         178.000
  24842244.390     1614994.42949   1253751.49945  24842243.243    24842258.011
       209.000         133.000
  20398809.367    -8416920.50049  -6561344.52147  20398808.948    20398814.260
       243.000         212.000
  20628299.392    -3089820.10949  -2418685.84447  20628298.276    20628305.797
       242.000         207.000
  20482287.249    -6259116.47049  -4886469.33047  20482286.518    20482293.321
       247.000         210.000
  23719358.201     5852699.83449   4368803.39745  23719357.910    23719366.655
       217.000         159.000
  22655212.439     2634570.79349   2044690.58946  22655212.053    22655219.954
       226.000         172.000
  23363809.364    13378445.44949  10078444.05046  23363808.672    23363818.472
       227.000         171.000
  23550536.449    -6597251.04549  -5142134.65945  23550536.533    23550545.831
       211.000         141.000
  24205058.656     1461192.56949   1126865.32745  24205058.087    24205070.339
       208.000         140.000
  22017035.305   -14269440.32249 -11119933.40947  22017034.464    22017042.717
       236.000         189.000
 02  7 11 17 10 30.0000000  0 11G 6G 2G18G17G15G29G26G23G 3G22G21
  22176245.467    10398683.77649   7845276.63546  22176246.114    22176254.346
       231.000         178.000
  24843325.863     1620677.92549   1258180.09344  24843324.115    24843335.751
       205.000         131.000
  20398616.513    -8417934.08249  -6562134.32847  20398616.062    20398621.530
       242.000         212.000
  20628683.420    -3087801.60849  -2417113.01747  20628682.760    20628690.022
       243.000         207.000
  20480063.233    -6270804.18349  -4895576.65147  20480062.658    20480069.485
       247.000         210.000
  23733754.732     5928354.17749   4427754.76945  23733755.053    23733761.828
       216.000         157.000
  22668989.402     2706968.73949   2101104.53546  22668988.926    22668996.754
       225.000         171.000
  23379019.143    13458373.17349  10140725.29646  23379017.713    23379027.351
       225.000         171.000
  23533623.782    -6686129.46449  -5211390.51645  23533623.531    23533631.994
       211.000         141.000
  24215018.372     1513529.95349   1167647.56645  24215018.721    24215029.478
       210.000         142.000
  22008404.508   -14314795.16749 -11155274.77847  22008404.069    22008411.366
       237.000         188.000
 02  7 11 17 11  0.0000000  0 11G 6G 2G18G17G15G29G26G23G 3G22G21
  22193865.527    10491277.06349   7917427.10646  22193865.726    22193874.654
       230.000         179.000
  24844482.074     1626753.91949   1262914.55244  24844481.733    24844496.004
       210.000         130.000
  20398495.341    -8418570.85849  -6562630.52147  20398494.586    20398500.153
       242.000         212.000
  20629110.755    -3085556.16649  -2415363.34247  20629110.414    20629117.262
       243.000         207.000
  20477885.308    -6282249.36149  -4904494.99247  20477884.396    20477891.389
       245.000         210.000
  23748220.086     6004369.42149   4486987.35445  23748219.830    23748228.767
       218.000         157.000
  22682860.962     2779864.73149   2157906.57746  22682859.693    22682869.702
       224.000         170.000
  23394233.883    13538327.02849  10203026.92846  23394233.679    23394243.192
       227.000         172.000
  23516763.004    -6774733.45349  -5280432.53245  23516762.334    23516771.577
       207.000         142.000
  24225033.764     1566159.50949   1208657.41845  24225032.719    24225045.841
       211.000         142.000
  21999824.929   -14359881.05049 -11190406.57547  21999824.279    21999832.190
       236.000         188.000
 02  7 11 17 11 30.0000000  0 11G 6G 2G18G17G15G29G26G23G 3G22G21
  22211544.504    10584179.54549   7989818.52446  22211544.788    22211553.979
       230.000         181.000
  24845712.860     1633221.58349   1267954.17745  24845710.103    24845724.646
       209.000         132.000
  20398445.718    -8418831.48849  -6562833.61747  20398445.480    20398450.500
       244.000         212.000
  20629581.584    -3083082.37349  -2413435.73047  20629580.938    20629587.779
       243.000         207.000
  20475753.739    -6293450.84849  -4913223.44547  20475752.811    20475759.865
       245.000         210.000
  23762753.740     6080743.84149   4546499.84645  23762752.898    23762760.813
       219.000         157.000
  22696826.974     2853256.71049   2215095.09446  22696827.473    22696834.590
       226.000         170.000
  23409453.617    13618306.18649  10265348.26246  23409453.812    23409462.325
       227.000         174.000
  23499954.619    -6863060.30849  -5349258.62345  23499952.911    23499963.783
       206.000         142.000
  24235104.208     1619078.83849   1249893.12145  24235103.467    24235115.641
       209.000         141.000
  21991296.429   -14404698.04049 -11225328.83947  21991295.693    21991303.123
       236.000         188.000
 02  7 11 17 12  0.0000000  0 11G 6G 2G18G17G15G29G26G23G 3G22G21
  22229281.583    10677387.89249   8062448.28446  22229281.469    22229291.413
       229.000         181.000
  24847017.697     1640078.49749   1273297.09745  24847018.307    24847028.282
       214.000         132.000
  20398467.316    -8418718.42549  -6562745.51847  20398466.555    20398472.388
       242.000         212.000
  20630095.710    -3080380.45449  -2411330.36047  20630094.962    20630102.205
       242.000         207.000
  20473668.508    -6304408.53249  -4921761.91847  20473667.815    20473674.551
       245.000         210.000
  23777354.984     6157473.97349   4606289.51545  23777354.140    23777362.928
       219.000         159.000
  22710886.861     2927140.92149   2272667.16346  22710886.840    22710893.493
       223.000         169.000
  23424677.561    13698307.97149  10327687.24746  23424676.074    23424686.360
       226.000         173.000
  23483199.304    -6951108.74649  -5417867.73945  23483198.500    23483208.234
       209.000         143.000
  24245228.928     1672284.07849   1291351.58245  24245228.238    24245241.734
       209.000         143.000
  21982818.871   -14449247.66349 -11260042.77847  21982818.222    21982826.333
       236.000         188.000
 02  7 11 17 12 30.0000000  0 11G 6G 2G18G17G15G29G26G23G 3G22G21
  22247076.307    10770899.65949   8135314.48846  22247076.130    22247086.333
       229.000         180.000
  24848396.698     1647323.33749   1278942.32045  24848395.704    24848408.384
       213.000         132.000
  20398559.707    -8418232.70249  -6562367.03847  20398559.281    20398564.684
       244.000         212.000
  20630653.419    -3077449.91249  -2409046.85047  20630653.176    20630659.852
       243.000         207.000
  20471629.783    -6315122.14249  -4930110.20447  20471629.046    20471635.910
       245.000         210.000
  23792023.473     6234557.34349   4666354.39045  23792022.086    23792031.393
       217.000         160.000
  22725039.715     3001514.50749   2330620.56246  22725039.862    22725047.288
       226.000         171.000
  23439905.454    13778330.97749  10390042.76246  23439904.722    23439913.784
       227.000         172.000
  23466497.889    -7038876.42149  -5486258.10345  23466498.501    23466506.325
       207.000         143.000
  24255407.493     1725772.35949   1333030.58645  24255407.811    24255418.594
       207.000         142.000
  21974392.029   -14493530.63049 -11294548.93047  21974391.385    21974399.351
       236.000         189.000
 02  7 11 17 13  0.0000000  0 11G 6G 2G18G17G15G29G26G23G 3G22G21
  22264928.499    10864713.69049   8208416.22146  22264928.141    22264938.197
       228.000         178.000
  24849849.145     1654956.07049   1284889.77344  24849849.667    24849860.694
       212.000         129.000
  20398723.091    -8417374.47349  -6561698.29747  20398722.488    20398728.145
       242.000         212.000
  20631255.115    -3074288.55749  -2406583.47747  20631254.590    20631261.494
       243.000         207.000
  20469637.942    -6325589.47849  -4938266.59147  20469637.225    20469644.205
       245.000         210.000
  23806758.812     6311992.59449   4726693.45145  23806759.433    23806768.148
       216.000         160.000
  22739285.386     3076376.04949   2388954.17946  22739284.831    22739293.893
       224.000         171.000
  23455137.398    13858374.88849  10452414.55746  23455137.566    23455145.342
       224.000         171.000
  23449850.324    -7126359.64449  -5554426.80445  23449849.317    23449859.508
       209.000         143.000
  24265639.833     1779542.04549   1374928.90145  24265638.378    24265651.752
       207.000         142.000
  21966016.023   -14537546.41449 -11328846.89547  21966015.034    21966023.419
       235.000         189.000
 02  7 11 17 13 30.0000000  0 11G 6G 2G18G17G15G29G26G23G 3G22G21
  22282838.356    10958830.55149   8281753.90546  22282838.432    22282848.459
       228.000         176.000
  24851375.848     1662978.34349   1291140.76944  24851376.510    24851387.918
       210.000         130.000
  20398957.568    -8416142.07549  -6560737.99548  20398956.986    20398962.419
       242.000         213.000
  20631901.333    -3070892.71249  -2403937.38847  20631900.552    20631907.271
       243.000         207.000
  20467693.654    -6335806.97449  -4946228.29447  20467692.921    20467699.896
       245.000         210.000
  23821561.478     6389780.42649   4787307.27745  23821561.416    23821570.077
       218.000         158.000
  22753623.829     3151725.89949   2447668.30046  22753623.784    22753632.631
       224.000         171.000
  23470373.552    13938441.08849  10514803.73946  23470372.539    23470381.661
       223.000         169.000
  23433258.044    -7213552.98149  -5622369.64945  23433256.794    23433267.068
       210.000         143.000
  24275925.560     1833593.47149   1417046.75945  24275924.617    24275936.674
       207.000         143.000
  21957691.361   -14581292.29249 -11362934.54047  21957690.367    21957699.288
       236.000         190.000
 02  7 11 17 14  0.0000000  0 11G 6G 2G18G17G15G29G26G23G 3G22G21
  22300804.845    11053244.25449   8355322.87546  22300804.754    22300813.675
       229.000         176.000
  24852975.933     1671385.14949   1297691.40845  24852974.644    24852983.873
       203.000         132.000
  20399262.440    -8414540.27249  -6559489.85348  20399262.055    20399267.354
       242.000         213.000
  20632591.703    -3067264.98649  -2401110.61047  20632591.034    20632598.038
       243.000         207.000
  20465796.368    -6345777.61249  -4953997.63247  20465795.864    20465802.601
       245.000         210.000
  23836430.069     6467914.76449   4848191.08545  23836428.964    23836437.798
       219.000         159.000
  22768054.251     3227557.60649   2506757.87246  22768054.594    22768062.664
       228.000         172.000
  23485612.932    14018524.46149  10577206.27946  23485612.459    23485620.691
       223.000         169.000
  23416720.741    -7300458.10749  -5690087.87245  23416721.021    23416729.581
       212.000         143.000
  24286263.591     1887920.03349   1459378.99345  24286262.990    24286275.277
       208.000         145.000
  21949417.326   -14624772.49649 -11396815.16047  21949416.605    21949424.793
       237.000         191.000
 02  7 11 17 14 30.0000000  0 11G 6G 2G18G17G15G29G26G23G 3G22G21
  22318827.609    11147953.19749   8429121.90946  22318827.827    22318836.549
       229.000         177.000
  24854648.639     1680176.12249   1304541.43845  24854647.695    24854661.918
       205.000         135.000
  20399637.491    -8412569.27649  -6557954.01948  20399636.945    20399642.464
       242.000         213.000
  20633326.456    -3063403.97549  -2398102.05147  20633325.736    20633332.962
       242.000         207.000
  20463946.357    -6355499.72949  -4961573.31247  20463945.395    20463952.475
       245.000         210.000
  23851364.239     6546393.96349   4909343.64245  23851363.994    23851373.358
       220.000         160.000
  22782576.149     3303869.10549   2566221.32446  22782575.851    22782583.866
       226.000         172.000
  23500855.467    14098624.50849  10639621.83546  23500854.177    23500863.903
       222.000         168.000
  23400238.836    -7387071.24649  -5757578.57445  23400238.342    23400247.724
       213.000         145.000
  24296653.902     1942519.95549   1501924.26745  24296654.336    24296665.527
       214.000         148.000
  21941194.030   -14667986.01249 -11430487.97947  21941193.358    21941201.263
       237.000         191.000
 02  7 11 17 15  0.0000000  0 11G 6G 2G18G17G15G29G26G23G 3G22G21
  22336906.106    11242955.89449   8503149.84846  22336905.852    22336915.957
       228.000         178.000
  24856394.314     1689350.66449   1311690.30845  24856393.927    24856406.894
       204.000         134.000
  20400082.702    -8410229.76749  -6556131.03648  20400082.467    20400087.752
       242.000         213.000
  20634105.874    -3059307.80049  -2394910.24747  20634105.166    20634112.614
       242.000         207.000
  20462143.861    -6364971.72049  -4968954.10147  20462142.863    20462150.127
       245.000         210.000
  23866363.691     6625216.36949   4970763.62245  23866363.750    23866370.830
       218.000         159.000
  22797188.843     3380658.62149   2626057.24446  22797188.994    22797196.764
       225.000         173.000
  23516101.006    14178740.70149  10702049.93046  23516100.243    23516108.523
       222.000         166.000
  23383813.128    -7473389.36349  -5824839.37045  23383812.533    23383821.286
       213.000         145.000
  24307095.800     1997391.09749   1544680.86745  24307094.758    24307107.654
       213.000         149.000
  21933021.491   -14710933.07449 -11463953.17047  21933021.075    21933028.955
       238.000         191.000
 02  7 11 17 15 30.0000000  0 11G 6G 2G18G17G15G29G26G23G 3G22G21
  22355040.094    11338250.14449   8577404.98846  22355039.518    22355050.373
       225.000         179.000
  24858213.372     1698907.46049   1319137.12045  24858211.089    24858224.854
       199.000         135.000
  20400597.925    -8407522.64049  -6554021.59148  20400597.360    20400602.914
       241.000         213.000
  20634930.221    -3054975.92449  -2391534.78047  20634929.715    20634936.977
       242.000         207.000
  20460389.116    -6374192.64449  -4976139.25647  20460388.418    20460395.631
       245.000         210.000
  23881427.915     6704379.49149   5032449.11745  23881429.550    23881435.141
       220.000         157.000
  22811891.839     3457923.43049   2686263.52946  22811892.615    22811898.891
       227.000         172.000
  23531349.584    14258871.68049  10764489.53346  23531349.306    23531358.548
       224.000         167.000
  23367443.900    -7559409.82449  -5891868.25245  23367442.756    23367452.579
       209.000         144.000
  24317588.734     2052530.74949   1587646.70945  24317588.574    24317600.317
       211.000         149.000
  21924899.587   -14753614.20949 -11497211.14547  21924898.708    21924907.127
       238.000         191.000
 02  7 11 17 16  0.0000000  0 11G 6G 2G18G17G15G29G26G23G 3G22G21
  22373228.840    11433833.07049   8651885.08246  22373228.916    22373239.242
       226.000         178.000
  24860104.073     1708844.91149   1326880.49345  24860105.477    24860115.608
       205.000         134.000
  20401182.675    -8404449.64649  -6551627.05848  20401182.315    20401187.623
       241.000         213.000
  20635799.662    -3050407.25249  -2387974.79847  20635798.724    20635806.239
       242.000         207.000
  20458682.359    -6383161.96949  -4983128.35347  20458681.699    20458688.747
       246.000         210.000
  23896556.637     6783880.92849   5094398.23045  23896556.598    23896563.581
       217.000         155.000
  22826684.829     3535660.60949   2746837.91846  22826685.604    22826692.461
       228.000         171.000
  23546600.711    14339015.81149  10826939.43246  23546600.618    23546607.883
       223.000         168.000
  23351131.396    -7645130.54049  -5958663.58345  23351130.329    23351139.981
       209.000         144.000
  24328132.194     2107935.85949   1630819.38045  24328131.435    24328143.978
       213.000         150.000
  21916828.151   -14796029.73849 -11530262.15747  21916827.306    21916835.657
       237.000         190.000
 02  7 11 17 16 30.0000000  0 11G 6G 2G18G17G15G29G26G23G 3G22G21
  22391472.331    11529702.49149   8726588.40146  22391472.906    22391482.111
       228.000         177.000
  24862067.048     1719161.81349   1334919.56245  24862066.809    24862079.700
       205.000         134.000
  20401836.962    -8401011.64849  -6548948.11348  20401836.522    20401841.874
       242.000         213.000
  20636714.246    -3045601.11849  -2384229.78947  20636713.660    20636720.584
       242.000         207.000
  20457023.656    -6391878.93849  -4989920.80347  20457022.858    20457030.017
       246.000         210.000
  23911749.349     6863718.21449   5156609.05345  23911748.731    23911757.274
       214.000         153.000
  22841567.355     3613867.52949   2807778.29346  22841568.111    22841575.682
       229.000         172.000
  23561853.978    14419171.94049  10889398.65446  23561854.268    23561862.431
       225.000         168.000
  23334876.577    -7730548.95149  -6025223.31645  23334874.802    23334885.443
       207.000         144.000
  24338725.585     2163603.64349   1674196.74445  24338724.841    24338737.774
       213.000         148.000
  21908807.148   -14838180.08849 -11563106.54347  21908806.029    21908814.455
       236.000         190.000
 02  7 11 17 17  0.0000000  0 11G 6G 2G18G17G15G29G26G23G 3G22G21
  22409769.994    11625856.27549   8801513.30446  22409770.679    22409778.853
       229.000         176.000
  24864102.676     1729856.74649   1343253.16745  24864103.120    24864115.038
       208.000         138.000
  20402560.398    -8397209.83849  -6545985.67448  20402559.982    20402565.605
       242.000         213.000
  20637674.220    -3040556.32949  -2380298.80547  20637673.866    20637680.797
       242.000         207.000
  20455413.128    -6400342.32949  -4996515.66147  20455412.373    20455419.485
       245.000         210.000
  23927005.051     6943889.10149   5219079.80745  23927004.060    23927012.924
       212.000         150.000
  22856538.713     3692541.47649   2869082.61446  22856538.278    22856545.261
       226.000         173.000
  23577109.486    14499338.95349  10951866.36946  23577109.657    23577117.750
       226.000         169.000
  23318679.565    -7815662.59649  -6091545.58845  23318677.825    23318687.956
       205.000         145.000
  24349368.426     2219531.70449   1717776.91145  24349367.114    24349380.211
       211.000         145.000
  21900836.518   -14880065.62749 -11595744.57447  21900835.717    21900844.063
       237.000         190.000
 02  7 11 17 17 30.0000000  0 11G 6G 2G18G17G15G29G26G23G 3G22G21
  22428121.423    11722291.72649   8876657.66146  22428120.855    22428129.694
       228.000         174.000
  24866209.543     1740928.07949   1351880.10445  24866207.483    24866223.359
       205.000         140.000
  20403352.834    -8393046.02949  -6542741.16048  20403352.393    20403357.540
       243.000         213.000
  20638679.782    -3035272.72049  -2376181.73347  20638679.370    20638686.390
       242.000         207.000
  20453850.783    -6408552.06449  -5002912.86247  20453849.704    20453857.079
       245.000         210.000
  23942323.726     7024390.68449   5281808.19745  23942324.384    23942332.196
       213.000         151.000
  22871597.989     3771679.28749   2930748.36746  22871597.722    22871606.262
       225.000         173.000
  23592366.731    14579514.94749  11014341.07246  23592366.275    23592374.293
       224.000         169.000
  23302541.186    -7900469.34449  -6157628.69045  23302541.196    23302549.912
       211.000         147.000
  24360060.180     2275716.51149   1761557.14545  24360058.313    24360072.652
       210.000         143.000
  21892916.226   -14921687.08349 -11628176.83047  21892915.230    21892923.901
       237.000         190.000
 02  7 11 17 18  0.0000000  0 11G 6G 2G18G17G15G29G26G23G 3G22G21
  22446525.973    11819007.80749   8952020.70746  22446526.103    22446534.418
       228.000         172.000
  24868387.680     1752375.89749   1360800.35745  24868387.004    24868400.629
       208.000         143.000
  20404214.175    -8388519.93949  -6539214.34048  20404213.487    20404219.155
       241.000         213.000
  20639731.150    -3029747.80549  -2371876.62947  20639730.562    20639737.658
       242.000         206.000
  20452337.219    -6416505.69649  -5009110.50847  20452336.472    20452343.575
       245.000         210.000
  23957705.674     7105221.82749   5344793.42145  23957706.465    23957715.002
       215.000         154.000
  22886745.258     3851279.55549   2992774.47046  22886745.995    22886753.948
       227.000         173.000
  23607625.511    14659700.12549  11076822.94346  23607624.032    23607632.518
       222.000         168.000
  23286462.557    -7984965.15849  -6223469.52145  23286462.607    23286472.449
       212.000         149.000
  24370800.546     2332156.81949   1805536.44045  24370799.816    24370812.082
       211.000         144.000
  21885046.244   -14963043.84849 -11660402.83847  21885045.648    21885053.636
       238.000         192.000
 02  7 11 17 18 30.0000000  0 11G 6G 2G18G17G15G29G26G23G 3G22G21
  22464982.589    11915997.74249   9027597.16246  22464981.207    22464991.860
       225.000         172.000
  24870636.977     1764194.51349   1370009.57045  24870638.235    24870649.310
       215.000         148.000
  20405143.327    -8383636.88749  -6535409.36548  20405142.784    20405148.330
       241.000         213.000
  20640827.848    -3023984.82449  -2367386.01547  20640827.323    20640833.967
       242.000         206.000
  20450871.784    -6424206.84649  -5015111.41247  20450871.296    20450878.202
       246.000         210.000
  23973148.920     7186376.03249   5408030.38845  23973149.374    23973158.263
       216.000         156.000
  22901979.444     3931335.35349   3055155.52746  22901980.909    22901987.771
       227.000         172.000
  23622884.832    14739888.95549  11139307.65346  23622883.858    23622893.532
       224.000         168.000
  23270442.404    -8069151.82949  -6289069.47345  23270441.549    23270451.311
       210.000         149.000
  24381588.059     2388845.39349   1849709.21645  24381588.328    24381599.482
       210.000         141.000
  21877225.863   -15004140.21349 -11692425.94247  21877225.202    21877233.084
       238.000         193.000
 02  7 11 17 19  0.0000000  0 11G 6G 2G18G17G15G29G26G23G 3G22G21
  22483491.138    12013262.03749   9103387.40346  22483490.813    22483501.578
       225.000         174.000
  24872957.166     1776385.27349   1379508.76645  24872956.560    24872970.972
       210.000         148.000
  20406140.765    -8378395.23849  -6531324.97447  20406140.193    20406145.557
       241.000         212.000
  20641970.545    -3017980.14949  -2362707.06947  20641970.071    20641976.822
       243.000         206.000
  20449455.107    -6431651.58149  -5020912.51147  20449454.297    20449461.029
       246.000         211.000
  23988653.703     7267853.72449   5471519.39645  23988654.610    23988661.515
       215.000         156.000
  22917300.319     4011846.74049   3117891.59846  22917300.363    22917308.919
       227.000         172.000
  23638145.515    14820083.06149  11201796.48046  23638144.403    23638154.898
       223.000         169.000
  23254482.247    -8153024.28249  -6354424.57745  23254482.337    23254491.200
       215.000         150.000
  24392422.863     2445782.47249   1894075.62745  24392421.208    24392432.858
       210.000         141.000
  21869455.438   -15044973.98349 -11724244.41847  21869454.462    21869462.921
       238.000         194.000
 02  7 11 17 19 30.0000000  0 11G 6G18G17G15G14G29G26G23G 3G22G21
  22502051.285    12110796.14249   9179387.88846  22502051.564    22502062.125
       226.000         175.000
  20407205.778    -8372798.39949  -6526963.81147  20407205.506    20407210.810
       241.000         212.000
  20643158.942    -3011735.08249  -2357840.80547  20643158.299    20643165.480
       242.000         206.000
  20448086.978    -6438841.26649  -5026514.87447  20448086.404    20448093.032
       246.000         211.000
  24648795.082    -1665077.59149  -1295781.14145  24648794.365    24648807.143
       207.000         137.000
  24004219.088     7349650.23649   5535256.85545  24004217.946    24004228.360
       212.000         155.000
  22932706.959     4092808.72949   3180978.78946  22932706.668    22932715.003
       226.000         171.000
  23653406.122    14900278.84149  11264286.58446  23653405.098    23653415.342
       222.000         169.000
  23238581.890    -8236582.40749  -6419534.73645  23238580.775    23238589.540
       211.000         152.000
  24403303.909     2502963.14949   1938631.86945  24403303.435    24403316.163
       208.000         142.000
  21861734.444   -15085548.01949 -11755860.51447  21861733.877    21861741.793
       238.000         194.000
 02  7 11 17 20  0.0000000  0 11G 6G18G17G15G14G29G26G23G 3G22G21
  22520663.924    12208605.44149   9255602.79846  22520664.958    22520674.974
       227.000         176.000
  20408339.700    -8366839.95649  -6522320.87647  20408339.291    20408344.837
       242.000         212.000
  20644394.723    -3005240.80849  -2352780.35547  20644394.163    20644401.505
       242.000         206.000
  20446769.080    -6445767.13149  -5031911.66147  20446768.247    20446775.431
       246.000         211.000
  24627112.278    -1779020.53049  -1384567.65545  24627111.186    24627120.783
       204.000         132.000
  24019846.003     7431770.76049   5599246.80845  24019844.807    24019854.353
       210.000         154.000
  22948200.194     4174226.27149   3244420.93346  22948199.822    22948208.686
       226.000         171.000
  23668668.444    14980482.90049  11326783.13446  23668668.612    23668677.739
       225.000         169.000
  23222742.795    -8319815.92149  -6484391.95745  23222742.530    23222752.308
       215.000         153.000
  24414232.315     2560392.24549   1983381.65045  24414231.619    24414245.559
       209.000         143.000
  21854064.233   -15125854.97549 -11787268.49847  21854063.746    21854071.485
       238.000         193.000
 02  7 11 17 20 30.0000000  0 11G 6G18G17G15G14G29G26G23G 3G22G21
  22539327.562    12306681.95349   9332025.91546  22539328.028    22539337.968
       226.000         175.000
  20409541.068    -8360526.74749  -6517401.49447  20409540.439    20409546.083
       241.000         212.000
  20645677.141    -2998501.98149  -2347529.33947  20645676.615    20645683.632
       242.000         206.000
  20445500.390    -6452434.09549  -5037106.70847  20445499.375    20445506.613
       246.000         211.000
  24605430.058    -1892957.26349  -1473349.49745  24605427.167    24605441.316
       202.000         133.000
  24035533.141     7514207.40949   5663483.06445  24035533.936    24035541.616
       214.000         152.000
  22963778.455     4256090.83249   3308211.43346  22963778.537    22963786.661
       225.000         171.000
  23683931.199    15060688.46549  11389280.89446  23683930.686    23683939.197
       224.000         168.000
  23206965.447    -8402727.94549  -6548998.64545  23206964.243    23206973.283
       214.000         154.000
  24425206.241     2618061.36549   2028318.49645  24425205.912    24425218.950
       208.000         141.000
  21846443.751   -15165900.68149 -11818472.91547  21846442.722    21846451.211
       237.000         193.000
 02  7 11 17 21  0.0000000  0 11G 6G18G17G15G14G29G26G23G 3G22G21
  22558041.647    12405024.33649   9408656.20146  22558040.863    22558050.966
       224.000         173.000
  20410809.854    -8353859.07849  -6512205.91647  20410809.371    20410814.769
       241.000         212.000
  20647006.362    -2991516.76549  -2342086.33447  20647005.895    20647012.597
       241.000         206.000
  20444281.329    -6458840.25049  -5042098.52647  20444280.749    20444287.703
       246.000         211.000
  24583749.965    -2006884.51349  -1562123.81645  24583747.496    24583761.239
       199.000         134.000
  24051280.470     7596958.70649   5727964.52845  24051280.325    24051287.449
       212.000         149.000
  22979441.612     4338400.79849   3372349.00346  22979441.554    22979448.439
       226.000         171.000
  23699194.119    15140895.19349  11451779.55046  23699193.510    23699202.348
       222.000         166.000
  23191249.198    -8485315.00049  -6613352.13945  23191248.073    23191257.745
       211.000         153.000
  24436225.677     2675968.73449   2073440.97145  24436225.203    24436238.251
       208.000         141.000
  21838873.018   -15205684.59549 -11849473.32947  21838872.723    21838879.609
       237.000         192.000
 02  7 11 17 21 30.0000000  0 11G 6G18G17G15G14G29G26G23G 3G22G21
  22576805.520    12503629.72449   9485491.43946  22576805.803    22576815.830
       224.000         170.000
  20412145.798    -8346838.68249  -6506735.48447  20412145.246    20412150.665
       242.000         212.000
  20648382.540    -2984284.92349  -2336451.15647  20648382.003    20648388.935
       242.000         205.000
  20443112.028    -6464985.16349  -5046886.77647  20443111.199    20443118.387
       246.000         211.000
  24562072.339    -2120799.74149  -1650888.79645  24562071.482    24562083.428
       205.000         135.000
  24067086.872     7680021.86149   5792688.96645  24067087.122    24067094.331
       213.000         147.000
  22995188.719     4421152.84249   3436831.03246  22995188.692    22995196.370
       224.000         170.000
  23714456.868    15221101.43749  11514277.83546  23714457.053    23714465.498
       221.000         165.000
  23175595.481    -8567574.95449  -6677450.76545  23175596.089    23175603.146
       213.000         153.000
  24447289.849     2734111.04149   2118746.50045  24447289.674    24447303.560
       208.000         140.000
  21831351.990   -15245207.85449 -11880270.65147  21831351.410    21831358.782
       237.000         192.000
 02  7 11 17 22  0.0000000  0 11G 6G18G17G15G14G29G26G23G 3G22G21
  22595619.037    12602495.77449   9562529.79446  22595618.799    22595628.575
       224.000         169.000
  20413548.597    -8339466.71549  -6500991.09947  20413548.155    20413553.568
       242.000         212.000
  20649805.843    -2976805.23549  -2330622.84347  20649804.908    20649812.650
       242.000         205.000
  20441992.519    -6470868.22549  -5051470.98847  20441991.774    20441999.099
       246.000         211.000
  24540397.710    -2234700.88949  -1739642.82345  24540395.408    24540406.761
       208.000         136.000
  24082952.391     7763394.45649   5857654.58545  24082952.229    24082961.186
       212.000         146.000
  23011019.374     4504344.17549   3501655.35946  23011019.293    23011028.254
       224.000         169.000
  23729719.278    15301306.03549  11576774.80946  23729719.937    23729728.284
       221.000         165.000
  23160004.893    -8649505.47849  -6741292.69245  23160004.183    23160013.400
       216.000         154.000
  24458398.275     2792485.45149   2164232.88345  24458397.824    24458412.032
       203.000         138.000
  21823880.439   -15284470.77449 -11910865.09747  21823879.533    21823887.706
       236.000         191.000
 02  7 11 17 22 30.0000000  0 11G 6G18G17G15G14G29G26G23G 3G22G21
  22614481.462    12701618.52649   9639768.15246  22614481.410    22614492.585
       225.000         170.000
  20415017.819    -8331745.80949  -6494974.81547  20415017.378    20415022.843
       242.000         212.000
  20651276.165    -2969078.33849  -2324601.91547  20651275.779    20651282.974
       242.000         205.000
  20440922.748    -6476489.77149  -5055851.43047  20440922.174    20440929.117
       246.000         212.000
  24518725.920    -2348586.84649  -1828384.95845  24518726.589    24518737.564
       211.000         140.000
  24098875.673     7847072.46249   5922858.12645  24098875.466    24098882.218
       211.000         146.000
  23026933.011     4587970.42749   3566818.58646  23026934.285    23026940.329
       226.000         170.000
  23744980.774    15381506.30249  11639268.41946  23744980.362    23744990.044
       221.000         166.000
  23144476.739    -8731105.61949  -6804877.18745  23144476.043    23144486.681
       216.000         156.000
  24469549.996     2851087.74549   2209896.83445  24469547.855    24469563.418
       204.000         135.000
  21816458.074   -15323475.39049 -11941258.27947  21816457.451    21816465.169
       238.000         192.000
 02  7 11 17 23  0.0000000  0 11G 6G18G17G15G14G29G26G23G 3G22G21
  22633392.748    12800997.09949   9717205.88646  22633393.038    22633403.320
       225.000         172.000
  20416553.543    -8323675.67549  -6488686.40947  20416553.394    20416558.654
       242.000         212.000
  20652794.137    -2961101.74549  -2318386.39747  20652793.419    20652800.740
       242.000         205.000
  20439903.215    -6481847.47749  -5060026.28347  20439902.640    20439909.519
       246.000         212.000
  24497058.108    -2462453.29349  -1917111.91445  24497057.500    24497069.702
       213.000         143.000
  24114856.778     7931054.92249   5988298.95745  24114856.202    24114863.665
       212.000         147.000
  23042929.299     4672030.33649   3632319.74646  23042930.131    23042938.528
       222.000         169.000
  23760241.691    15461702.50749  11701758.85546  23760241.927    23760250.833
       222.000         168.000
  23129012.494    -8812371.31349  -6868201.04445  23129012.238    23129019.879
       215.000         157.000
  24480744.977     2909916.57749   2255737.34345  24480744.024    24480758.178
       204.000         132.000
  21809084.979   -15362221.23449 -11971449.79247  21809084.505    21809092.135
       240.000         192.000
 02  7 11 17 23 30.0000000  0 11G 6G18G17G15G14G29G26G23G 3G22G21
  22652352.285    12900629.64449   9794841.50046  22652353.142    22652363.142
       224.000         172.000
  20418155.633    -8315257.09749  -6482126.48247  20418155.275    20418160.596
       242.000         212.000
  20654359.710    -2952874.12849  -2311975.28047  20654359.265    20654366.504
       242.000         205.000
  20438934.141    -6486939.96049  -5063994.45947  20438933.471    20438940.570
       246.000         212.000
  24475394.360    -2576297.25449  -2005821.38445  24475394.677    24475404.701
       213.000         144.000
  24130895.907     8015340.02949   6053975.59145  24130896.148    24130904.933
       215.000         150.000
  23059007.482     4756521.44349   3698156.90546  23059006.472    23059015.121
       221.000         167.000
  23775501.794    15541894.05149  11764245.67146  23775501.273    23775511.709
       222.000         168.000
  23113612.338    -8893299.85949  -6931262.17145  23113611.600    23113620.189
       213.000         155.000
  24491982.540     2968969.72749   2301752.62644  24491981.864    24491994.917
       200.000         130.000
  21801761.302   -15400707.74949 -12001439.23547  21801760.965    21801768.945
       239.000         193.000
 02  7 11 17 24  0.0000000  0 11G 6G18G17G15G14G29G26G23G 3G22G21
  22671359.716    13000513.51549   9872672.94846  22671359.894    22671371.004
       221.000         170.000
  20419823.682    -8306491.60649  -6475296.23548  20419823.470    20419828.695
       242.000         213.000
  20655973.348    -2944394.76049  -2305367.99147  20655973.017    20655980.212
       243.000         206.000
  20438015.741    -6491766.59049  -5067755.48347  20438015.177    20438022.241
       246.000         212.000
  24453735.120    -2690116.36949  -2094511.51145  24453733.383    24453748.118
       210.000         144.000
  24146992.139     8099924.91749   6119885.79145  24146992.305    24147001.961
       215.000         155.000
  23075167.090     4841440.71549   3764327.67946  23075168.253    23075175.901
       223.000         166.000
  23790760.629    15622079.47649  11826727.71846  23790759.840    23790769.265
       220.000         166.000
  23098276.567    -8973888.79749  -6994058.68845  23098276.556    23098284.559
       218.000         155.000
  24503262.180     3028243.98149   2347940.19044  24503263.983    24503275.326
       204.000         129.000
  21794486.726   -15438935.62749 -12031227.14547  21794486.381    21794493.812
       239.000         194.000
 02  7 11 17 24 30.0000000  0 11G 6G18G17G15G14G29G26G23G 3G22G21
  22690414.305    13100645.97049   9950698.11146  22690414.883    22690424.042
       224.000         168.000
  20421557.504    -8297380.80149  -6468196.91348  20421556.990    20421562.305
       242.000         213.000
  20657635.024    -2935663.02249  -2298564.05647  20657634.407    20657641.669
       242.000         205.000
  20437148.027    -6496326.87849  -5071308.96447  20437147.517    20437154.643
       246.000         212.000
  24432080.695    -2803908.53649  -2183180.58745  24432079.583    24432093.313
       210.000         143.000
  24163144.729     8184806.91249   6186027.55645  24163143.774    24163153.700
       213.000         155.000
  23091407.684     4926784.95349   3830829.62946  23091407.621    23091415.346
       218.000         163.000
  23806017.912    15702257.29249  11889203.82446  23806017.327    23806026.571
       219.000         164.000
  23083006.209    -9054136.10449  -7056589.03745  23083006.117    23083013.644
       220.000         156.000
  24514583.557     3087736.35249   2394297.72545  24514582.618    24514596.189
       203.000         132.000
  21787261.191   -15476906.00649 -12060814.41647  21787260.483    21787268.422
       239.000         194.000
 02  7 11 17 25  0.0000000  0 11G 6G18G17G15G14G29G26G23G 3G22G21
  22709515.906    13201025.07849  10028915.47346  22709515.350    22709525.722
       223.000         167.000
  20423356.746    -8287925.49749  -6460829.14847  20423356.285    20423361.768
       241.000         212.000
  20659344.890    -2926677.32749  -2291562.22847  20659344.453    20659351.318
       243.000         205.000
  20436331.190    -6500619.24849  -5074653.67747  20436330.673    20436337.683
       246.000         212.000
  24410432.150    -2917670.53449  -2271826.21545  24410430.131    24410444.749
       206.000         140.000
  24179353.528     8269984.02849   6252399.24845  24179354.541    24179362.094
       217.000         154.000
  23107728.395     5012551.84949   3897660.91146  23107729.162    23107737.383
       221.000         164.000
  23821273.737    15782427.04649  11951673.65645  23821273.376    23821282.210
       218.000         160.000
  23067801.122    -9134038.98749  -7118850.98745  23067801.004    23067808.192
       217.000         155.000
  24525945.879     3147444.40449   2440823.33245  24525945.621    24525956.068
       204.000         134.000
  21780084.600   -15514618.87249 -12090201.02247  21780084.201    21780092.217
       238.000         195.000
 02  7 11 17 25 30.0000000  0 11G 6G18G17G15G14G29G26G23G 3G22G21
  22728663.904    13301647.69249  10107322.55746  22728663.903    22728672.890
       223.000         166.000
  20425221.229    -8278127.52249  -6453194.37048  20425220.874    20425226.257
       242.000         213.000
  20661103.231    -2917437.54049  -2284362.40947  20661102.826    20661110.042
       243.000         205.000
  20435565.489    -6504643.38749  -5077789.37847  20435564.883    20435571.795
       247.000         212.000
  24388789.944    -3031400.54749  -2360446.92645  24388789.702    24388799.500
       210.000         138.000
  24195618.008     8355453.18249   6318998.51745  24195619.121    24195627.834
       215.000         153.000
  23124129.194     5098737.74749   3964818.68146  23124129.248    23124138.617
       221.000         166.000
  23836527.514    15862586.87049  12014135.73345  23836528.165    23836537.269
       218.000         159.000
  23052662.015    -9213595.33149  -7180842.89345  23052662.474    23052670.664
       219.000         157.000
  24537348.585     3207364.79449   2487514.39145  24537348.407    24537360.580
       205.000         133.000
  21772956.844   -15552075.37649 -12119387.87347  21772956.156    21772964.153
       237.000         194.000
 02  7 11 17 26  0.0000000  0 11G 6G18G17G15G14G29G26G23G 3G22G21
  22747857.761    13402511.72149  10185917.77546  22747857.906    22747868.156
       224.000         166.000
  20427150.754    -8267987.87049  -6445293.35248  20427150.248    20427155.763
       241.000         213.000
  20662910.131    -2907942.33249  -2276963.56747  20662909.645    20662916.928
       242.000         205.000
  20434851.019    -6508398.13849  -5080715.16147  20434850.387    20434857.286
       247.000         212.000
  24367154.594    -3145095.49449  -2449040.27645  24367153.890    24367166.818
       211.000         136.000
  24211937.330     8441212.29349   6385823.73045  24211936.465    24211946.466
       213.000         150.000
  23140609.232     5185340.20749   4032301.03846  23140609.769    23140618.075
       221.000         167.000
  23851779.484    15942736.00049  12076589.50945  23851779.717    23851788.193
       220.000         160.000
  23037589.443    -9292802.68949  -7242562.88045  23037588.999    23037597.022
       217.000         157.000
  24548791.103     3267494.91349   2534368.88745  24548789.746    24548803.334
       204.000         133.000
  21765877.892   -15589275.53149 -12148374.98047  21765877.277    21765885.393
       237.000         194.000
 02  7 11 17 26 30.0000000  0 11G 6G18G17G15G14G29G26G23G 3G22G21
  22767096.921    13503613.74749  10264698.42746  22767096.607    22767108.589
       221.000         167.000
  20429144.863    -8257508.53449  -6437127.64147  20429144.348    20429149.825
       241.000         212.000
  20664765.672    -2898191.80549  -2269365.77047  20664765.091    20664772.216
       242.000         205.000
  20434187.775    -6511883.50149  -5083431.03847  20434187.067    20434194.034
       246.000         212.000
  24345526.541    -3258753.76249  -2537605.04344  24345525.753    24345535.795
       208.000         130.000
  24228311.064     8527257.89849   6452872.19045  24228311.309    24228320.159
       213.000         148.000
  23157167.878     5272355.42649   4100105.03846  23157167.966    23157176.569
       222.000         168.000
  23867029.155    16022872.41549  12139033.38145  23867029.319    23867037.609
       221.000         161.000
  23022583.370    -9371659.35549  -7304009.60745  23022584.027    23022592.426
       217.000         157.000
  24560272.665     3327831.04149   2581383.93845  24560271.408    24560285.249
       203.000         134.000
  21758847.402   -15626220.94649 -12177163.58847  21758846.994    21758854.310
       238.000         194.000
 02  7 11 17 27  0.0000000  0 11G 6G18G17G15G14G29G26G23G 3G22G21
  22786381.216    13604952.52349  10343663.57046  22786381.776    22786392.944
       223.000         169.000
  20431203.505    -8246689.95649  -6428697.59347  20431203.112    20431208.606
       242.000         212.000
  20666670.180    -2888183.63449  -2261567.21847  20666669.552    20666676.866
       242.000         205.000
  20433576.177    -6515097.36549  -5085935.35047  20433575.310    20433582.327
       246.000         212.000
  24323905.724    -3372371.48549  -2626138.21544  24323906.670    24323916.353
       206.000         129.000
  24244739.603     8613588.70649   6520142.89345  24244740.086    24244746.945
       215.000         146.000
  23173804.472     5359781.65149   4168229.29746  23173805.188    23173813.029
       222.000         167.000
  23882276.409    16102996.19049  12201467.39446  23882276.704    23882286.419
       221.000         163.000
  23007644.866    -9450161.96549  -7365180.42145  23007644.799    23007652.719
       219.000         156.000
  24571793.045     3388371.54149   2628558.22445  24571791.203    24571806.297
       202.000         132.000
  21751865.593   -15662910.75449 -12205753.02347  21751864.827    21751872.989
       238.000         194.000
 02  7 11 17 27 30.0000000  0 11G 6G18G17G15G14G29G26G23G 3G22G21
  22805709.919    13706525.39749  10422811.12246  22805709.966    22805721.433
       222.000         169.000
  20433326.580    -8235533.53749  -6420004.28347  20433326.153    20433331.787
       242.000         212.000
  20668623.830    -2877917.20549  -2253567.41747  20668623.270    20668630.263
       242.000         205.000
  20433016.385    -6518039.23449  -5088227.72047  20433015.538    20433022.743
       246.000         212.000
  24302293.475    -3485946.43149  -2714638.08744  24302293.822    24302303.203
       206.000         128.000
  24261221.726     8700202.10549   6587633.78245  24261221.206    24261230.851
       212.000         148.000
  23190519.099     5447615.84849   4236671.47446  23190518.978    23190526.899
       220.000         164.000
  23897521.009    16183105.98949  12263890.49246  23897520.761    23897529.250
       220.000         163.000
  22992774.001    -9528308.23149  -7426073.57545  22992772.875    22992781.520
       217.000         156.000
  24583351.828     3449113.23749   2675889.26544  24583349.911    24583363.639
       202.000         128.000
  21744932.124   -15699345.98249 -12234144.06847  21744931.797    21744939.632
       238.000         194.000
 02  7 11 17 28  0.0000000  0 11G 6G18G17G15G14G29G26G23G 3G22G21
  22825082.790    13808329.64149  10502138.96146  22825082.794    22825094.110
       223.000         170.000
  20435513.624    -8224040.77249  -6411048.88848  20435513.199    20435518.595
       241.000         213.000
  20670626.719    -2867391.97149  -2245365.95847  20670625.943    20670633.338
       242.000         204.000
  20432508.401    -6520708.51049  -5090307.67947  20432507.539    20432514.710
       246.000         212.000
  24280689.589    -3599476.18149  -2803102.69644  24280686.790    24280701.266
       203.000         130.000
  24277756.857     8787095.27149   6655342.67745  24277757.668    24277765.837
       217.000         149.000
  23207310.240     5535854.58149   4305428.86245  23207311.133    23207318.928
       219.000         161.000
  23912762.490    16263200.31349  12326301.53046  23912762.719    23912772.737
       217.000         163.000
  22977971.309    -9606096.20149  -7486687.53545  22977969.603    22977979.185
       219.000         158.000
  24594948.209     3510053.02649   2723374.69744  24594948.791    24594959.707
       205.000         128.000
  21738047.019   -15735527.39249 -12262337.34347  21738046.434    21738054.141
       239.000         194.000
 02  7 11 17 28 30.0000000  0 11G 6G18G17G15G14G29G26G23G 3G22G21
  22844499.299    13910363.08449  10581645.39146  22844500.471    22844510.165
       223.000         168.000
  20437764.393    -8212212.83949  -6401832.32447  20437763.980    20437769.372
       242.000         212.000
  20672679.052    -2856606.46749  -2236961.69747  20672678.443    20672686.073
       242.000         204.000
  20432052.573    -6523103.88249  -5092174.21247  20432052.065    20432058.954
       246.000         212.000
  24259094.203    -3712957.98949  -2891529.94644  24259091.840    24259106.853
       203.000         130.000
  24294345.101     8874266.08049   6723267.93245  24294346.174    24294353.930
       218.000         152.000
  23224178.128     5624495.29849   4374499.47645  23224179.105    23224186.394
       222.000         161.000
  23928000.868    16343278.54549  12388700.01145  23928001.110    23928009.740
       216.000         161.000
  22963237.672    -9683523.03549  -7547020.07145  22963237.412    22963244.967
       217.000         159.000
  24606582.048     3571188.48349   2771012.60144  24606580.289    24606594.899
       204.000         128.000
  21731210.165   -15771455.38549 -12290333.14747  21731209.757    21731217.345
       239.000         195.000
 02  7 11 17 29  0.0000000  0 11G 6G18G17G15G14G29G26G23G 3G22G21
  22863958.808    14012623.11749  10661328.39546  22863959.400    22863969.446
       223.000         166.000
  20440078.719    -8200051.09949  -6392355.64947  20440078.258    20440083.837
       242.000         212.000
  20674781.131    -2845560.09549  -2228354.15647  20674780.557    20674787.583
       242.000         204.000
  20431649.054    -6525224.71149  -5093826.80647  20431648.304    20431655.313
       247.000         212.000
  24237508.471    -3826389.28849  -2979917.88445  24237507.832    24237520.360
       206.000         134.000
  24310985.691     8961711.80749   6791407.39645  24310985.585    24310994.206
       214.000         153.000
  23241122.186     5713534.98049   4443881.01646  23241122.386    23241129.773
       221.000         163.000
  23943236.064    16423339.43249  12451084.98245  23943236.532    23943244.761
       217.000         159.000
  22948572.860    -9760586.55449  -7607069.52945  22948572.104    22948582.280
       219.000         160.000
  24618252.493     3632516.52349   2818800.54844  24618252.199    24618265.317
       209.000         129.000
  21724421.353   -15807130.77549 -12318132.11947  21724420.477    21724428.300
       240.000         195.000
 02  7 11 17 29 30.0000000  0 11G 6G18G17G15G14G29G26G23G 3G22G21
  22883461.098    14115107.31149  10741186.06746  22883459.910    22883471.385
       223.000         164.000
  20442456.266    -8187556.77349  -6382619.82247  20442455.792    20442461.281
       242.000         212.000
  20676933.017    -2834251.82649  -2219542.54547  20676932.228    20676939.728
       241.000         204.000
  20431297.921    -6527069.96149  -5095264.67247  20431297.157    20431304.244
       246.000         212.000
  24215933.558    -3939767.57349  -3068264.46145  24215932.879    24215945.154
       211.000         140.000
  24327677.866     9049429.98449   6859759.15145  24327677.939    24327686.897
       214.000         153.000
  23258141.341     5802970.75449   4513571.18746  23258141.664    23258148.890
       222.000         163.000
  23958467.875    16503381.95449  12513455.68445  23958466.799    23958477.481
       218.000         158.000
  22933977.839    -9837284.29649  -7666833.93345  22933976.978    22933986.077
       219.000         160.000
  24629959.180     3694034.31449   2866736.34745  24629959.364    24629971.815
       208.000         132.000
  21717680.547   -15842553.65549 -12345734.32747  21717680.003    21717687.478
       239.000         195.000
 02  7 11 17 30  0.0000000  0 11G 6G18G17G15G14G29G26G23G 3G22G21
  22903005.257    14217812.40549  10821215.88146  22903005.899    22903015.714
       222.000         163.000
  20444896.713    -8174732.07549  -6372626.55847  20444896.433    20444901.717
       242.000         212.000
  20679134.798    -2822681.43849  -2210526.67447  20679134.353    20679141.645
       242.000         204.000
  20430999.152    -6528639.66849  -5096487.82647  20430998.474    20431005.355
       246.000         212.000
  24194368.948    -4053090.85349  -3156568.19945  24194368.717    24194380.172
       214.000         144.000
  24344421.653     9137417.55549   6928320.81445  24344421.168    24344431.087
       211.000         154.000
  23275235.194     5892798.92849   4583567.08646  23275234.840    23275243.162
       223.000         163.000
  23973695.630    16583404.36849  12575810.68645  23973695.296    23973705.334
       217.000         157.000
  22919452.583    -9913614.53649  -7726312.01245  22919453.473    22919460.335
       222.000         160.000
  24641701.011     3755738.26049   2914817.20745  24641700.796    24641714.793
       210.000         132.000
  21710987.548   -15877725.45949 -12373140.88847  21710987.076    21710994.547
       239.000         195.000
